GFSCGP_sfc_30mbdewp_000.txt.gz
Dewpoint
12 14 15 23 26 24 22 31 32 33 33 47 46 49 50 52 53 53 54 55 56 56 58 59 60 61 64 65 66 66 67 70 72 71 71 71 70 70 70 70 71 71 70 70
11 14 19 26 28 25 22 22 32 34 33 37 48 48 50 51 53 54 55 56 57 59 59 60 62 64 64 65 66 68 67 71 71 71 71 71 71 71 71 71 72 71 70 70
11 15 21 27 27 26 23 24 30 31 34 39 47 47 48 50 52 52 55 57 57 60 59 60 61 63 65 65 67 68 69 71 71 71 71 72 72 71 69 70 70 67 64 64
14 15 20 27 26 25 20 19 27 33 33 33 41 40 44 47 47 48 52 55 56 59 61 62 62 62 64 66 69 69 71 71 72 72 71 70 67 64 64 67 66 63 61 63
11 13 16 20 24 21 18 17 17 34 33 33 37 36 41 43 42 44 49 53 54 57 61 62 63 63 65 67 70 70 71 72 72 71 71 68 60 61 64 64 61 61 61 62
11 16 20 20 21 19 17 15 14 31 29 30 35 33 37 42 41 41 45 52 53 56 61 63 63 62 65 68 70 71 71 70 70 68 66 58 57 60 62 62 59 59 57 63
14 12 16 19 17 16 16 13 10 9 16 15 22 35 32 42 42 40 42 51 52 55 57 61 61 62 67 68 69 71 70 68 65 61 57 55 58 58 59 59 59 60 62 61
11 10 15 16 14 13 12 13 10 8 15 15 22 17 15 36 43 43 43 49 51 54 55 57 58 61 65 67 68 69 69 67 63 59 56 57 58 58 58 60 61 56 58 60
11 12 15 15 14 13 12 14 17 16 23 21 19 22 32 36 42 41 42 46 49 52 55 56 58 60 64 66 68 68 67 65 63 60 60 59 59 60 62 63 59 57 60 60
10 8 12 14 14 15 12 16 15 19 15 15 18 22 25 40 41 43 42 42 45 51 55 56 57 60 64 65 67 69 67 65 63 62 60 59 60 61 62 61 59 60 60 60
10 13 10 15 13 11 19 17 18 19 19 16 15 17 32 39 43 44 44 44 44 49 52 56 57 58 64 64 66 68 67 66 64 63 62 61 62 61 61 60 60 59 60 61
11 11 8 10 15 15 17 17 20 16 17 21 19 20 36 38 40 44 44 47 47 46 51 53 56 57 62 63 66 68 67 66 65 65 63 63 63 63 61 61 60 60 61 61
12 11 10 13 15 17 16 20 23 22 23 20 18 23 35 36 37 39 39 40 43 47 48 52 53 55 60 62 66 67 67 67 67 66 65 63 62 62 61 61 60 60 60 58
15 11 10 10 14 17 13 17 21 20 19 20 21 24 32 33 35 36 37 40 43 46 48 52 53 53 58 62 64 66 67 67 67 66 65 62 58 57 59 60 60 60 60 59
13 9 19 15 15 19 15 15 21 19 19 18 18 24 30 33 35 36 38 40 43 46 51 50 53 55 59 61 63 66 67 67 66 65 64 61 59 58 58 59 59 60 60 60
20 11 14 11 17 14 14 16 20 21 22 22 21 25 32 36 40 39 39 40 41 45 53 52 54 58 60 61 63 65 65 66 65 64 63 62 61 59 59 59 60 60 60 60
18 18 19 13 19 20 16 20 18 20 28 22 19 21 33 36 38 38 37 37 38 40 44 55 56 59 61 62 63 63 63 65 64 63 63 62 61 61 60 60 60 60 60 59
25 20 20 16 17 13 19 25 29 34 35 37 27 25 30 36 39 39 38 36 37 38 39 44 55 60 62 64 64 63 63 63 63 62 62 62 62 61 61 61 60 60 61 61
40 33 29 17 14 19 25 35 32 30 33 39 38 38 37 37 38 37 36 36 36 37 39 42 48 54 61 63 64 62 62 62 62 62 61 62 62 61 61 60 60 60 61 61
35 39 30 33 17 15 32 41 40 37 32 39 39 38 38 37 35 39 42 38 41 46 47 48 51 60 63 63 62 61 61 61 61 61 61 61 61 60 60 60 60 61 62 62
35 36 32 34 30 31 40 44 39 28 34 42 39 39 39 39 41 42 41 44 46 47 48 51 57 58 63 61 62 61 60 60 62 61 60 59 61 60 60 60 62 62 62 61
39 39 37 36 30 30 45 43 40 43 43 42 42 43 42 43 43 44 42 39 39 39 48 52 57 62 63 61 62 61 60 62 62 61 61 59 56 62 63 62 63 62 60 59
37 42 42 46 43 48 47 46 47 46 44 43 43 43 43 44 44 45 44 44 43 43 43 51 58 65 64 62 62 60 60 60 61 59 60 56 55 57 58 64 62 60 57 56
43 48 43 43 45 48 46 45 45 45 44 44 45 46 46 44 46 45 48 53 57 58 56 62 62 62 60 61 60 60 61 60 57 57 58 56 54 54 58 61 60 57 57 57
45 46 47 48 47 44 43 43 42 42 43 42 42 42 42 45 54 59 58 59 59 59 60 60 61 60 59 60 59 60 58 56 55 55 56 58 57 59 60 57 56 56 52 53
45 47 44 45 49 46 44 44 41 36 35 35 35 34 40 44 56 60 56 58 58 58 59 60 61 60 57 57 57 58 57 55 54 53 52 55 57 59 56 54 50 46 45 45

GFSCGP_sfc_30mbdewp_003.txt.gz
Dewpoint
9 12 14 15 25 23 29 28 37 40 40 45 45 48 53 55 55 55 56 57 57 58 59 60 62 64 63 65 68 69 70 71 72 71 71 71 70 70 70 71 71 70 69 70
10 11 13 18 26 24 21 17 29 33 40 43 47 48 49 52 53 54 54 55 56 57 58 58 60 62 63 64 67 68 68 70 72 71 71 71 71 70 70 70 71 71 70 70
7 10 17 22 25 25 24 23 22 30 39 46 47 47 48 51 51 52 53 54 55 56 57 58 59 60 63 64 66 67 67 69 71 72 71 71 71 71 70 70 71 71 70 70
8 9 15 23 21 25 23 23 23 30 35 34 44 37 47 49 51 53 54 55 56 58 58 58 60 62 63 64 66 67 67 69 71 71 70 70 70 69 66 66 70 68 66 64
7 12 13 17 23 25 23 23 20 25 31 36 42 36 42 48 49 51 53 54 56 59 58 58 59 62 63 64 66 67 69 70 71 71 71 70 68 65 62 65 67 64 62 63
7 14 15 15 17 23 23 18 17 28 31 31 39 35 36 46 47 49 50 53 56 58 59 59 60 61 63 65 67 69 69 70 71 71 71 70 67 61 62 64 62 59 59 59
10 9 14 19 18 20 18 16 14 21 29 29 33 36 33 43 46 48 49 50 55 57 60 60 61 62 63 66 67 69 70 70 71 71 70 69 64 60 62 62 60 59 59 62
9 6 12 15 16 17 16 16 14 10 18 25 27 34 34 37 44 47 47 48 53 55 58 61 62 62 63 66 67 69 70 69 69 69 67 63 59 58 60 61 59 59 59 60
11 10 13 16 15 16 16 14 14 13 22 19 20 24 25 34 38 44 44 45 50 53 56 60 62 62 63 65 67 68 69 69 68 65 63 57 58 58 57 59 60 56 57 59
11 10 13 13 16 15 14 17 14 18 11 12 18 20 18 30 35 43 43 42 48 53 55 59 61 61 64 65 67 68 69 69 67 63 60 57 59 59 59 60 59 56 56 59
11 11 10 12 12 13 19 15 17 17 18 12 12 16 27 24 33 42 43 43 46 51 55 57 59 60 62 65 66 67 68 68 67 63 60 59 59 60 61 60 59 58 59 58
12 11 9 9 14 15 14 14 15 13 17 19 18 17 27 31 39 44 43 43 46 50 54 56 57 58 59 62 64 66 67 67 66 63 61 60 60 61 61 60 59 58 58 58
13 10 8 9 13 18 16 19 20 20 22 20 16 18 33 38 40 46 45 45 45 47 52 56 57 57 58 61 63 65 67 66 66 64 63 62 61 62 60 60 59 59 59 58
15 11 9 8 10 15 16 19 22 19 17 19 20 20 30 36 37 42 45 47 47 46 48 53 56 57 57 59 63 64 66 67 67 65 64 62 62 63 62 61 60 59 59 58
13 10 11 10 10 15 15 17 22 18 17 17 19 20 28 33 36 39 42 43 45 47 47 49 52 54 56 57 62 64 66 67 67 66 65 63 63 62 62 62 60 60 59 58
17 11 15 10 12 11 11 15 19 20 20 19 20 22 29 34 39 39 39 40 41 45 47 47 50 52 53 56 61 63 66 67 68 67 66 64 62 60 60 60 59 59 58 58
20 15 14 10 16 16 16 17 20 23 25 21 19 21 29 34 36 36 38 40 41 45 50 49 50 51 54 56 60 62 65 67 68 67 66 64 63 61 58 58 59 58 58 58
32 18 18 9 17 12 20 29 27 32 36 38 34 25 27 31 34 39 41 41 42 44 47 52 52 52 56 58 61 62 65 67 67 66 65 64 63 62 59 59 58 58 59 58
40 25 23 15 15 21 31 35 34 26 32 39 37 37 37 37 40 39 40 40 41 42 44 48 56 58 58 61 62 63 65 66 66 65 64 65 64 61 61 59 59 59 59 59
38 38 28 27 15 18 33 40 44 40 29 39 39 39 39 39 36 38 44 39 39 39 42 44 49 55 58 60 64 63 63 64 64 64 64 64 63 62 61 60 59 60 60 59
36 37 34 32 29 33 42 45 43 27 32 42 41 41 39 39 41 42 44 45 47 47 49 52 54 53 57 63 63 63 63 63 64 64 63 63 61 61 61 61 59 59 61 62
36 37 38 39 33 31 44 43 36 41 43 43 44 44 43 44 44 42 43 42 42 43 45 49 53 61 63 63 63 62 62 63 63 63 62 59 60 60 60 57 56 57 59 60
36 42 41 42 38 43 48 45 45 45 42 43 44 46 46 48 44 45 44 49 50 52 53 55 55 59 63 62 62 61 61 63 63 62 60 59 60 59 57 56 54 53 56 60
42 46 40 40 41 45 43 42 43 43 42 43 43 41 39 40 46 48 48 50 53 56 56 61 61 61 61 62 62 62 63 62 62 59 58 58 58 58 59 57 57 59 60 58
44 45 45 41 43 38 37 42 39 36 37 36 38 40 42 46 49 51 51 54 54 57 58 61 60 61 61 62 62 61 60 59 59 59 60 58 58 56 57 57 56 58 55 55
43 49 42 41 44 36 37 37 38 35 36 37 36 36 37 40 43 49 48 58 58 58 60 60 59 60 60 60 59 60 61 60 58 56 54 53 54 56 58 55 50 46 46 47

GFSCGP_sfc_30mbdewp_006.txt.gz
Dewpoint
11 12 14 20 22 34 35 38 38 40 43 45 46 48 55 56 56 56 57 58 60 60 62 63 63 65 66 66 68 70 70 71 72 71 71 71 70 71 71 71 71 70 69 70
13 10 15 21 24 26 35 34 37 36 39 44 46 47 55 56 55 56 56 57 57 59 59 60 62 64 64 65 67 69 70 71 72 71 71 71 71 70 70 70 70 70 70 70
9 10 15 21 24 24 29 28 25 34 42 46 47 46 51 55 56 56 56 57 57 57 58 59 60 63 63 64 66 68 69 70 71 71 71 71 71 71 70 70 71 71 70 70
7 9 14 22 25 26 23 24 23 33 39 35 43 34 47 50 53 53 54 55 56 57 58 58 59 60 62 63 65 67 68 69 70 71 71 70 69 69 69 69 70 71 70 69
12 8 12 21 21 25 21 25 25 32 36 38 43 35 35 49 49 50 52 53 54 55 57 58 58 60 61 63 65 66 67 68 70 71 71 70 69 69 64 65 67 68 66 64
15 13 15 11 22 25 22 18 24 29 33 31 34 38 33 47 47 48 51 53 54 55 57 58 59 60 61 63 65 66 66 67 69 70 70 70 69 67 64 63 66 66 62 61
13 8 14 18 17 23 19 19 17 19 26 24 33 39 34 38 47 46 49 52 54 56 58 58 58 60 62 63 64 66 66 67 69 70 70 70 69 66 63 63 65 62 59 59
12 5 9 15 16 17 19 19 17 13 16 25 34 35 35 39 41 47 48 51 53 55 58 58 59 60 61 63 64 66 67 67 69 70 70 70 69 65 62 62 62 60 59 60
12 9 14 13 16 16 16 15 19 16 20 17 26 28 30 34 35 42 45 50 51 54 57 59 60 60 61 63 64 66 67 68 69 70 70 69 67 65 61 62 61 60 60 60
12 10 12 12 16 16 15 18 15 16 12 13 18 20 23 26 31 35 42 47 49 53 57 59 60 61 62 62 64 66 67 68 69 69 68 67 65 63 59 60 60 59 59 58
14 12 10 13 11 11 16 15 17 17 16 12 11 17 24 21 26 29 36 45 48 50 55 57 61 62 62 62 63 65 67 68 69 68 66 64 62 59 59 58 60 59 56 57
12 12 10 10 14 15 14 14 16 13 14 19 16 13 23 24 28 36 36 45 45 49 54 56 60 61 62 62 63 65 67 68 69 68 65 62 60 59 59 59 60 60 58 58
17 11 8 8 10 16 14 18 17 18 18 16 13 14 27 30 34 41 42 44 45 49 53 56 59 61 61 62 63 64 66 67 68 68 64 61 60 59 60 60 60 60 59 58
29 14 10 9 8 11 13 16 19 16 14 16 18 15 20 31 34 39 44 44 45 48 53 56 57 58 59 60 62 64 65 67 68 66 64 62 61 60 61 61 60 60 59 58
18 15 12 13 12 14 13 15 19 17 17 15 16 20 20 28 32 36 42 47 46 45 49 54 56 57 58 59 60 63 64 66 67 65 64 63 62 61 61 61 61 61 59 59
25 13 13 12 11 12 12 15 21 21 21 20 19 20 23 29 37 38 40 45 46 46 46 49 53 56 57 58 59 62 64 65 67 66 65 64 63 63 62 63 62 61 60 59
34 18 14 11 12 11 10 11 13 17 21 20 19 19 25 29 34 34 39 43 44 45 47 48 48 51 54 56 58 61 64 66 67 67 66 65 64 63 62 63 64 61 60 60
39 29 19 13 16 11 12 21 15 16 29 28 27 24 27 28 34 38 40 40 42 45 47 49 49 50 52 54 57 60 63 66 68 68 67 65 64 63 62 61 61 62 60 59
44 30 21 16 14 19 33 36 32 28 33 39 36 37 36 34 37 38 42 41 43 45 49 51 51 50 52 55 58 60 63 66 67 67 67 65 64 63 63 62 61 60 59 59
40 39 30 25 15 16 31 41 45 42 28 41 41 39 38 39 27 38 43 41 42 45 48 51 55 57 57 57 61 61 63 66 67 67 66 66 65 63 61 62 61 60 60 60
38 39 35 33 27 32 42 45 45 27 29 43 42 41 40 39 41 44 46 45 48 50 51 54 55 57 59 61 63 62 63 64 66 66 66 66 66 64 63 62 60 60 61 61
35 40 40 39 34 31 45 44 34 41 44 45 45 45 43 45 46 48 47 46 47 48 50 52 51 54 60 62 62 62 61 64 65 65 64 63 63 63 61 59 59 59 58 55
37 42 41 41 40 45 46 45 45 44 42 43 42 44 47 48 48 48 48 50 53 54 56 60 59 60 62 62 63 62 62 63 63 61 61 61 61 61 60 59 58 57 56 56
45 45 40 42 40 40 41 43 43 44 43 44 46 47 49 51 54 55 57 57 56 57 57 60 59 59 60 62 62 62 63 62 61 60 60 60 59 58 58 58 57 56 55 52
45 45 42 42 40 39 37 41 44 42 41 41 42 44 44 44 43 44 50 58 58 58 60 60 60 60 61 62 61 62 62 61 60 59 59 59 58 59 58 58 57 57 57 57
43 46 40 39 43 43 38 42 44 40 40 41 39 39 40 41 42 43 44 55 57 58 60 59 59 60 61 61 61 61 61 61 60 60 59 58 58 58 58 53 52 47 47 49

GFSCGP_sfc_30mbdewp_009.txt.gz
Dewpoint
19 12 7 14 27 29 32 37 36 41 44 44 45 45 53 56 57 57 59 60 61 61 62 64 66 67 68 69 69 70 71 72 72 71 71 71 70 72 71 72 71 71 72 71
15 9 13 17 22 29 36 35 36 40 43 43 45 44 50 55 55 56 57 59 60 61 62 64 65 65 66 67 69 70 71 72 73 72 72 71 71 72 71 72 73 72 72 72
8 7 14 21 21 23 33 34 36 36 41 45 44 40 47 54 55 56 56 57 57 58 60 61 63 64 65 66 68 69 71 71 73 73 73 73 73 72 71 71 71 71 72 72
12 9 11 16 21 22 22 34 37 38 37 34 41 32 41 47 53 55 55 56 56 57 59 59 61 63 64 65 67 68 70 71 72 73 72 71 69 69 70 70 70 71 72 71
16 9 13 11 18 25 24 30 31 35 35 37 41 36 32 48 48 52 54 54 55 55 57 58 59 61 63 64 66 67 70 71 72 73 72 71 70 70 70 69 70 72 72 71
19 15 9 14 21 26 26 27 30 36 33 27 29 35 26 44 45 46 50 53 54 55 56 57 59 60 62 63 65 66 69 70 71 72 72 72 71 71 69 68 66 68 69 68
21 17 13 13 17 25 23 22 22 24 26 22 31 37 30 36 43 44 46 50 52 54 55 56 58 59 61 63 64 66 68 69 70 70 71 71 71 72 70 69 66 66 67 66
21 16 17 14 11 20 22 20 20 19 20 21 34 31 29 37 38 44 47 49 51 52 54 56 58 60 61 62 64 65 66 68 69 69 71 71 72 71 70 69 66 65 66 65
18 18 13 13 17 19 22 20 21 21 21 19 23 33 31 34 37 40 43 47 50 52 53 55 58 59 61 63 65 66 67 68 68 69 71 71 72 71 69 68 67 66 66 63
19 15 9 10 13 19 18 20 17 20 19 18 19 23 17 28 29 38 42 45 48 52 55 56 58 59 61 62 64 65 67 67 68 69 70 70 71 71 71 69 66 65 64 63
22 14 8 13 10 7 15 15 21 19 19 17 17 17 28 25 30 31 39 44 47 51 55 56 59 60 61 62 63 65 65 67 67 69 70 70 70 70 70 68 65 64 64 64
19 19 17 12 13 13 11 15 18 16 21 19 18 16 26 29 32 34 31 41 46 52 55 57 58 60 60 61 62 63 64 65 67 68 70 69 70 69 67 67 63 64 62 63
19 17 16 15 16 14 14 13 16 17 19 21 15 15 27 30 32 33 38 43 48 52 54 57 58 60 61 61 63 63 65 64 65 68 68 68 68 67 68 64 61 62 63 62
29 28 23 19 17 14 11 13 16 16 14 15 19 16 22 23 30 36 38 46 49 51 54 56 58 61 62 63 64 64 64 64 65 66 68 68 67 67 65 64 62 63 63 63
34 27 27 26 25 19 15 9 13 17 16 15 15 21 20 26 29 33 38 48 49 51 53 56 58 61 63 64 65 65 64 66 66 67 68 68 67 66 66 64 63 63 63 63
28 32 23 19 24 20 15 14 11 15 14 20 16 23 25 31 36 40 41 49 49 49 52 55 57 59 61 63 64 64 65 66 67 68 68 68 67 66 65 64 63 61 62 62
40 32 32 26 18 17 15 16 15 16 18 19 17 21 28 29 33 35 40 48 50 50 50 53 56 59 60 61 62 62 64 65 67 68 68 68 68 66 65 64 64 63 63 62
44 41 32 29 23 15 15 17 16 16 18 23 20 25 31 29 34 43 46 46 49 51 52 53 53 56 59 59 60 61 64 66 67 68 68 68 67 66 65 65 64 63 63 63
43 38 35 29 23 23 23 30 18 14 15 22 27 30 34 35 41 43 46 44 46 49 52 53 53 55 58 57 60 62 64 65 66 67 68 68 68 66 66 65 64 65 64 63
43 44 38 36 29 20 36 43 45 44 21 42 43 41 40 39 30 40 47 46 48 50 52 55 56 57 58 60 61 62 63 64 66 67 68 69 68 67 66 65 64 64 63 62
38 38 36 40 36 30 44 44 46 28 26 44 44 43 43 42 46 48 51 53 55 55 57 59 59 59 61 63 63 63 64 65 66 68 69 69 68 67 66 65 64 64 63 62
36 37 39 42 38 32 44 45 39 44 46 46 46 47 47 48 49 50 51 53 53 53 54 56 58 60 63 64 64 65 65 67 68 68 68 67 67 65 65 64 63 64 63 62
38 40 42 42 42 44 43 46 47 48 46 47 49 49 51 52 53 54 55 56 58 59 60 61 60 62 63 65 65 64 66 66 67 67 67 66 66 65 64 63 62 62 61 60
46 43 40 43 46 44 44 43 44 45 46 48 50 49 49 50 55 57 58 58 59 60 60 61 61 62 63 64 65 65 65 66 66 66 65 66 65 64 63 63 62 62 60 59
45 47 44 42 42 42 43 46 45 45 43 43 44 46 46 46 49 55 57 59 60 61 61 62 62 63 63 64 64 65 65 65 64 64 63 63 62 62 61 59 59 59 60 58
46 46 43 38 43 45 44 45 42 41 42 43 42 42 44 46 47 48 52 55 57 59 62 62 63 63 63 64 64 64 65 64 63 62 61 60 58 58 58 56 54 46 48 50

GFSCGP_sfc_30mbdewp_012.txt.gz
Dewpoint
13 13 11 16 20 22 24 27 28 30 40 42 39 39 45 51 51 51 54 55 54 54 55 59 62 63 64 66 67 69 69 69 72 68 67 67 66 67 68 68 70 70 70 70
11 8 10 14 18 21 24 25 26 31 41 40 38 39 42 47 51 51 52 54 56 54 55 59 61 62 63 65 67 69 70 70 72 68 69 67 67 66 67 67 70 71 70 71
11 5 9 11 13 20 25 24 26 32 40 41 37 38 40 42 48 51 52 52 55 55 55 57 59 61 62 63 67 68 70 71 72 70 70 71 71 70 68 68 68 70 71 71
9 6 6 9 13 19 22 24 26 31 35 33 39 30 32 37 43 48 51 52 51 54 56 56 58 60 61 63 65 68 70 71 72 72 70 70 67 63 62 63 63 65 69 69
13 7 7 7 10 14 21 23 27 28 32 32 35 34 30 36 38 43 48 51 51 50 54 56 57 58 61 62 64 67 70 71 71 72 72 70 69 64 64 64 65 66 67 68
15 13 6 6 7 14 20 23 25 27 27 27 30 32 27 29 37 35 43 48 51 48 50 53 55 57 60 61 63 65 68 71 71 72 72 71 68 67 63 65 64 62 63 66
16 12 9 5 6 10 19 24 25 25 24 24 29 29 29 26 29 32 31 43 49 49 49 51 54 56 59 60 62 64 67 70 71 71 71 72 71 70 68 68 65 59 60 60
16 11 13 9 5 11 17 22 22 21 20 22 27 27 26 30 29 28 34 37 47 49 47 49 53 55 58 60 62 63 65 69 70 70 71 72 72 70 69 69 61 61 58 59
16 15 13 10 9 11 16 20 23 21 21 20 20 27 27 27 30 32 32 39 44 48 46 48 51 54 57 59 62 65 67 68 69 69 70 72 72 71 67 67 68 64 61 59
20 17 16 13 11 10 14 20 21 21 20 19 19 20 23 25 23 23 34 38 42 47 48 46 51 53 56 59 61 63 65 67 68 68 69 70 70 71 70 70 69 65 63 63
23 19 12 14 9 8 11 17 21 21 20 18 19 19 22 23 24 22 24 36 37 44 49 49 49 52 56 57 59 61 64 66 67 67 69 69 69 70 71 71 70 69 66 65
25 22 17 7 7 7 11 15 20 19 22 21 19 17 20 23 23 22 21 23 30 40 48 51 51 53 55 57 58 59 61 63 65 67 69 69 69 69 69 72 70 70 68 65
23 22 20 17 10 8 7 9 15 18 20 22 20 19 20 21 25 28 32 32 36 44 48 52 53 55 56 56 59 59 61 61 62 65 66 67 68 69 69 70 70 69 66 66
21 20 19 16 17 13 11 9 9 12 16 19 19 20 20 18 22 21 22 31 36 47 50 53 53 56 57 58 61 62 60 61 61 62 65 66 68 68 69 70 70 67 65 64
18 28 26 22 19 17 13 12 10 8 11 15 17 18 21 22 22 22 22 22 36 47 51 53 55 59 62 62 63 64 62 62 62 63 64 66 68 69 68 69 69 66 64 65
27 31 30 26 24 23 20 19 15 9 8 11 13 15 18 21 23 22 22 23 31 47 50 53 56 58 61 62 63 64 64 64 65 65 65 67 69 70 69 69 68 66 63 63
29 29 32 28 24 24 22 23 22 18 11 8 10 13 15 17 18 21 22 29 36 45 49 52 55 58 61 62 64 64 65 65 65 67 67 68 69 70 70 70 68 67 64 63
36 36 34 29 30 25 23 22 24 22 17 10 11 13 16 19 21 24 28 26 28 45 49 52 54 56 60 61 62 63 65 66 66 67 68 69 70 69 70 69 68 67 65 62
34 36 33 29 27 26 28 34 29 23 19 15 13 15 17 19 24 34 44 44 43 47 51 53 54 58 61 59 61 62 63 65 66 66 68 68 69 69 69 68 67 67 65 63
34 37 34 32 27 24 37 41 43 43 30 21 18 18 20 20 27 25 46 45 44 48 53 55 54 57 60 59 60 61 61 63 64 65 67 69 69 69 68 68 67 66 65 64
37 36 29 32 31 32 43 42 44 35 28 45 21 20 19 22 36 48 50 50 51 51 54 55 57 57 59 59 59 61 60 62 63 65 67 69 70 69 69 68 68 66 64 63
36 34 29 31 35 32 44 42 42 47 49 46 45 38 39 47 50 52 54 55 57 58 58 58 59 60 61 62 62 62 63 65 67 68 68 69 69 69 69 67 66 65 64 64
33 32 33 35 35 45 46 45 47 49 49 48 48 48 49 50 51 53 53 53 53 53 52 55 58 61 63 63 62 63 68 68 68 69 69 68 69 68 67 65 65 64 64 62
41 42 40 43 47 45 45 46 47 48 50 50 50 49 50 50 51 53 55 56 56 55 55 56 57 60 63 65 66 67 68 68 68 68 67 67 66 66 65 64 64 63 63 61
46 46 42 44 46 45 46 47 45 45 46 46 47 49 53 55 56 58 58 58 58 59 58 57 57 60 64 66 67 67 67 67 67 67 66 66 65 65 65 57 58 62 61 58
47 48 41 40 45 47 47 45 43 42 42 43 44 44 44 46 47 50 50 53 56 60 62 61 62 62 64 65 66 67 67 67 66 65 63 62 62 63 62 60 58 49 51 53

GFSCGP_sfc_30mbdewp_015.txt.gz
Dewpoint
16 10 9 15 19 21 23 24 23 27 30 35 35 36 39 45 45 43 45 46 47 49 52 54 57 58 59 61 64 66 67 69 68 68 70 68 66 67 64 64 67 71 71 70
11 9 8 15 19 20 21 23 23 26 30 33 34 35 38 44 45 46 46 46 47 48 49 53 56 58 60 61 64 67 69 71 71 70 69 68 66 63 64 64 66 68 69 70
6 6 7 12 17 20 20 21 22 24 34 35 33 34 35 38 44 46 46 47 48 47 47 51 55 57 59 61 64 68 71 72 72 71 70 69 70 68 66 63 67 68 69 68
9 6 4 7 12 17 19 21 22 23 31 32 30 28 33 34 37 43 46 47 48 47 48 48 54 57 58 60 64 67 71 72 72 73 69 69 66 63 60 61 60 64 66 66
11 7 5 5 8 14 17 21 23 22 27 35 27 26 27 32 33 36 42 46 47 47 48 48 51 55 58 59 62 66 71 73 73 73 71 68 68 61 61 60 64 65 67 65
12 11 7 5 6 13 15 19 22 21 22 24 29 28 30 33 31 33 35 42 47 48 47 50 51 54 56 58 61 64 71 73 74 73 73 72 70 65 62 62 63 62 62 65
15 12 11 5 5 8 14 15 19 19 19 20 26 26 34 30 30 32 31 35 43 48 48 47 52 52 56 59 61 64 70 73 74 72 72 72 72 71 68 66 63 61 59 61
15 12 13 10 5 5 9 13 16 18 18 19 21 23 24 31 29 29 29 28 35 45 48 46 49 53 56 58 62 64 68 72 74 72 73 73 73 69 67 67 63 60 59 60
15 15 15 11 8 4 4 8 16 17 20 20 20 22 25 29 29 29 28 27 29 42 46 46 47 50 54 57 62 64 67 71 72 70 74 74 74 73 66 67 69 64 62 58
16 16 16 11 10 7 3 7 11 18 19 19 18 19 22 26 28 28 28 26 28 37 45 46 46 49 53 56 60 64 66 70 70 70 72 72 73 74 73 71 70 66 64 63
15 17 17 16 12 9 5 3 11 16 19 18 19 20 21 26 28 26 27 25 27 33 43 46 46 48 52 54 56 61 64 67 69 69 70 70 71 72 73 72 71 70 67 66
17 18 19 16 16 12 9 5 7 16 20 19 19 18 22 22 24 25 25 25 27 29 39 45 46 48 50 53 53 57 60 61 66 67 70 70 71 71 71 72 72 72 70 67
17 19 18 20 14 12 11 8 5 8 18 22 20 19 21 22 23 25 25 25 25 31 34 43 46 47 49 52 54 54 58 57 60 66 67 69 70 71 70 72 72 72 72 70
21 21 20 19 19 13 10 7 6 7 9 17 19 21 22 22 23 24 25 26 27 27 44 42 46 49 51 54 56 56 56 55 57 61 62 66 69 70 70 71 72 72 73 70
18 20 21 21 21 18 10 5 5 5 11 12 15 18 22 23 23 23 24 24 24 24 38 47 49 53 57 57 59 60 58 59 58 61 62 64 69 70 70 70 72 72 72 70
18 20 22 20 19 17 16 15 10 8 6 8 10 13 18 20 25 25 23 24 24 24 27 47 50 53 59 60 62 63 62 62 62 64 63 66 70 70 70 71 72 72 72 70
20 22 21 22 24 23 19 17 17 16 13 11 9 11 14 17 22 23 25 25 26 26 27 36 49 53 57 60 64 63 65 64 65 66 68 68 71 72 72 72 72 72 72 69
19 23 24 24 26 23 25 24 20 18 18 19 17 14 13 20 22 24 23 24 26 29 31 31 47 53 58 60 61 63 64 67 67 69 69 70 71 73 73 73 72 72 70 68
24 24 25 24 24 27 29 32 34 35 32 23 20 22 18 14 13 19 21 25 26 26 30 32 49 53 60 61 63 65 65 67 68 69 70 71 72 72 72 72 71 71 69 68
29 32 31 28 25 24 28 39 40 38 29 26 30 31 22 16 11 17 21 21 26 36 36 38 51 54 60 62 61 64 64 66 67 68 69 70 71 72 71 71 71 70 69 67
22 26 26 27 27 26 40 40 39 32 31 47 45 45 41 30 18 21 35 26 32 40 42 51 54 57 63 62 61 65 64 65 65 65 66 69 70 71 71 71 70 69 69 67
22 25 24 26 24 23 43 40 36 46 49 47 46 45 44 42 22 41 49 50 48 47 50 55 57 59 62 62 64 65 64 65 66 66 67 69 70 70 70 70 70 69 67 65
24 26 25 30 32 47 46 46 48 48 48 48 48 47 45 41 47 50 53 55 55 56 56 56 59 61 61 63 63 65 68 68 68 68 69 70 71 70 70 70 68 67 66 64
42 34 31 41 45 45 46 48 49 50 50 52 52 49 49 50 52 53 53 54 55 57 58 60 60 61 64 65 66 69 69 69 69 69 70 70 69 68 68 68 67 65 65 64
48 49 42 45 46 47 46 46 48 48 49 52 54 54 56 55 56 56 56 55 54 54 55 58 60 62 64 66 66 67 68 69 69 68 67 67 66 66 65 61 62 65 61 62
49 48 48 45 46 46 46 45 45 45 45 46 48 49 51 52 53 54 56 58 58 57 58 58 60 63 65 66 67 68 68 68 67 67 66 65 65 64 62 60 58 51 53 53

GFSCGP_sfc_30mbdewp_018.txt.gz
Dewpoint
23 18 16 17 16 19 18 22 21 28 32 29 44 49 45 46 41 40 42 43 46 49 51 54 55 56 58 62 66 67 68 69 72 72 69 69 69 69 69 69 71 71 72 71
16 16 14 15 18 18 19 20 23 27 37 35 34 46 45 46 41 40 41 42 43 45 49 53 56 56 58 62 65 68 69 71 71 71 70 70 69 69 69 66 72 72 72 72
14 11 9 9 15 17 19 20 22 23 29 32 29 29 36 39 41 42 42 43 43 44 45 52 55 56 58 61 66 69 70 71 71 71 71 72 70 69 69 69 70 70 72 72
16 12 7 6 9 16 18 20 20 21 27 29 32 30 36 37 42 42 42 44 45 45 46 49 54 57 58 61 66 69 71 72 73 72 71 70 68 68 65 66 67 72 71 70
12 13 7 4 5 13 17 20 20 20 24 32 35 31 33 37 39 42 42 43 44 48 46 47 53 56 58 61 65 69 72 73 73 74 71 71 69 68 67 65 68 72 72 68
13 13 10 4 4 7 15 17 18 19 20 22 29 31 31 34 35 35 39 42 44 46 48 48 51 55 58 60 65 67 72 73 73 74 73 72 69 68 66 66 68 67 69 68
16 13 11 8 4 4 6 10 15 16 18 19 23 32 33 35 37 37 39 40 44 46 48 49 50 54 58 59 63 67 72 73 73 73 74 73 73 71 70 69 67 65 63 67
16 14 12 10 7 5 3 7 14 15 17 19 21 20 29 36 38 37 43 40 41 46 47 49 51 52 58 59 62 65 71 73 74 73 74 74 73 73 70 70 67 66 64 65
12 14 15 12 11 6 4 4 10 13 16 17 18 20 21 28 36 35 33 32 32 43 46 48 51 54 57 59 61 65 70 73 74 74 74 75 74 73 71 69 70 67 65 68
14 13 15 14 12 11 4 8 4 7 12 15 17 21 23 25 36 35 34 31 29 29 46 48 49 53 56 59 61 65 68 72 74 74 74 74 74 73 72 71 71 67 67 64
12 15 14 15 14 12 8 6 4 6 9 12 17 20 25 30 34 35 34 32 29 30 42 45 49 50 56 58 61 63 66 71 73 73 73 74 74 74 73 73 71 71 69 66
13 13 16 14 16 14 11 7 5 6 12 10 14 19 22 26 30 33 31 31 31 32 35 44 48 49 52 55 58 62 65 68 71 73 72 73 74 74 74 73 73 72 71 71
16 13 15 15 16 17 11 10 10 6 7 13 13 17 22 31 31 33 32 31 33 36 40 44 47 49 51 54 57 60 64 65 69 71 71 72 72 73 73 74 73 74 72 70
18 15 15 15 18 17 15 13 12 9 5 8 13 18 22 31 32 31 32 30 31 33 44 45 44 50 51 54 57 59 61 63 65 69 70 70 71 72 72 73 74 73 73 71
17 19 18 16 17 19 17 13 13 11 13 10 9 15 23 24 33 30 31 29 31 35 41 41 43 52 54 55 58 58 59 60 61 65 67 69 71 71 72 72 73 73 73 73
16 20 21 20 19 19 19 17 13 11 11 11 11 9 13 22 27 32 29 31 33 34 37 48 49 53 58 57 59 58 58 60 60 62 65 67 69 71 71 72 72 74 73 73
18 17 22 20 21 20 19 20 18 10 8 7 7 13 18 19 22 27 33 29 35 33 33 38 52 53 55 60 61 59 59 60 60 63 65 66 68 70 71 72 72 72 73 73
23 21 21 21 21 18 21 20 18 17 16 13 13 15 16 18 21 23 25 31 33 34 34 34 37 54 57 56 60 62 62 62 63 63 66 66 68 70 72 72 72 73 73 74
19 24 23 22 20 20 21 22 22 20 20 20 23 30 24 21 20 21 23 23 26 30 41 40 34 38 58 57 60 62 65 64 65 66 68 69 71 72 72 72 73 73 73 74
16 27 25 22 23 21 25 25 36 35 30 38 39 37 36 37 34 32 23 23 23 24 28 34 37 44 59 61 61 64 64 67 65 66 69 71 73 74 74 74 74 74 73 71
26 28 24 23 23 22 31 36 37 32 32 46 45 44 42 41 43 46 45 37 39 36 28 31 46 55 61 64 63 65 65 68 69 69 72 72 73 74 74 75 74 72 71 70
25 25 27 29 27 25 40 40 35 43 46 44 46 45 44 45 44 44 44 43 47 46 36 45 58 60 65 65 66 67 68 70 71 71 72 73 74 73 73 74 72 71 70 68
23 25 24 27 28 47 43 46 48 47 47 52 53 49 44 43 43 42 49 51 50 52 52 53 62 66 67 66 70 69 71 70 70 70 72 72 73 73 73 71 70 69 68 66
33 46 38 29 42 45 47 48 49 49 54 54 56 57 57 50 51 52 54 55 57 58 57 62 64 65 67 69 70 71 69 71 71 72 73 72 71 71 70 70 69 67 66 65
48 47 48 40 46 47 48 48 49 51 53 54 55 55 56 57 59 58 60 60 61 63 65 67 67 67 69 72 71 71 72 72 73 71 70 69 68 68 64 60 63 66 63 65
46 49 49 49 52 48 47 47 47 46 48 50 51 51 54 53 53 55 56 59 60 62 64 65 66 67 68 69 70 71 72 71 69 68 67 67 66 65 63 61 58 53 54 55

GFSCGP_sfc_30mbdewp_024.txt.gz
Dewpoint
22 25 24 22 22 18 20 20 18 19 22 38 39 39 40 52 53 54 55 55 55 55 56 57 62 62 62 64 67 67 67 68 69 70 70 69 67 68 70 70 69 69 71 71
17 17 22 23 21 18 16 16 18 19 20 37 40 39 38 47 49 52 52 53 54 55 55 56 59 61 63 66 67 67 67 67 67 69 69 69 69 69 69 70 70 69 70 71
15 18 21 22 22 18 15 13 15 16 19 44 41 39 41 41 41 46 51 52 53 53 54 55 56 60 61 65 66 66 68 68 68 69 71 70 70 70 70 70 71 72 71 71
16 20 20 19 21 20 16 15 15 16 18 21 39 31 39 41 40 41 46 49 51 52 53 54 55 57 60 64 66 66 69 69 69 70 70 69 68 68 68 68 70 71 72 72
19 20 20 20 21 21 17 18 18 18 18 19 23 33 35 41 41 40 43 47 49 51 52 53 55 56 59 62 65 65 68 71 70 70 69 69 68 67 68 68 69 70 72 71
20 20 20 18 20 21 17 13 12 18 19 17 20 28 34 37 39 39 42 44 47 49 51 52 55 55 57 61 64 65 66 70 71 70 70 69 68 67 67 67 68 71 71 71
22 20 16 19 18 17 14 9 6 7 12 15 19 31 32 37 41 39 41 44 44 48 49 50 53 54 56 59 63 66 67 67 70 70 69 69 69 68 67 67 69 70 70 69
19 19 20 17 15 15 13 8 5 5 10 14 18 23 28 35 41 42 42 44 44 44 48 50 52 55 55 58 63 66 67 66 69 69 70 70 69 69 69 69 69 70 69 67
14 16 19 20 19 14 13 7 6 5 13 10 15 20 25 32 35 42 43 44 44 43 44 47 51 54 56 59 64 66 67 67 69 69 69 70 71 70 69 69 69 69 68 67
13 12 16 15 20 20 14 12 5 4 1 3 7 15 17 21 30 36 40 43 44 44 44 45 47 53 56 58 64 66 68 67 69 70 70 69 70 71 70 70 70 68 67 67
11 12 12 17 15 17 17 13 8 5 3 1 5 6 14 17 24 30 41 43 44 46 46 46 46 52 55 57 63 66 68 67 69 70 70 70 71 70 71 72 71 69 67 67
14 10 9 10 14 18 18 15 10 6 5 5 3 4 16 17 22 28 37 42 43 44 44 48 47 49 54 58 62 66 69 68 69 71 71 71 71 71 70 70 72 70 68 67
32 13 9 10 13 14 15 16 13 9 8 6 7 6 11 12 16 37 38 39 38 40 43 47 49 50 53 57 60 64 68 69 70 70 71 72 72 72 71 70 70 71 69 68
29 26 17 13 13 12 12 13 13 9 8 7 7 8 11 12 15 24 22 28 38 39 41 45 50 50 54 57 59 63 66 70 70 71 70 70 72 73 72 71 70 71 71 69
32 25 21 19 17 13 13 15 13 12 10 8 9 8 8 9 9 11 14 35 39 38 43 47 50 51 55 57 58 62 66 69 70 71 71 71 71 72 73 72 71 70 72 70
32 27 26 23 21 14 12 14 15 14 12 10 10 9 10 10 14 18 20 23 36 35 35 42 50 52 54 57 59 60 64 69 70 71 71 72 72 71 72 72 72 72 71 72
31 29 25 21 22 14 13 15 17 17 17 13 10 12 16 16 19 22 23 38 37 35 43 47 49 51 54 58 59 59 63 68 70 70 71 71 72 72 72 72 72 73 72 71
30 29 26 23 23 13 14 16 14 15 17 18 14 14 16 15 16 22 33 38 31 34 36 50 50 51 55 56 59 60 61 64 68 69 70 71 71 71 72 72 72 72 73 71
31 30 26 22 24 21 23 22 17 16 16 23 22 19 20 26 27 37 40 32 30 31 35 41 52 52 52 54 57 59 61 63 64 67 69 70 71 71 71 71 72 72 72 73
26 26 26 25 21 19 20 23 26 30 24 44 37 38 36 33 25 37 46 43 41 39 39 34 52 57 56 54 55 58 60 62 63 64 66 69 70 70 70 71 71 72 72 72
35 34 25 26 27 23 27 29 34 22 30 46 46 44 42 40 42 45 48 45 46 41 44 44 33 48 54 59 57 57 59 60 62 63 64 66 69 69 70 70 71 71 72 72
34 35 33 31 30 23 43 44 24 38 49 47 48 46 45 54 60 62 59 55 51 47 44 45 42 34 45 57 59 57 58 59 61 62 63 64 67 68 69 70 71 71 72 72
36 38 36 38 40 43 52 54 57 57 55 57 56 58 58 59 61 62 64 65 66 67 67 68 51 39 40 57 61 60 59 59 60 62 62 66 67 67 70 71 72 72 71 70
41 47 42 39 47 49 49 50 56 56 56 57 58 58 59 60 61 62 64 65 66 68 68 70 69 66 58 63 61 61 62 62 64 65 66 70 70 72 72 72 72 71 70 68
43 43 44 43 47 50 48 49 54 54 53 54 53 54 56 57 58 59 60 62 64 66 67 68 69 70 70 71 69 70 71 67 70 72 73 73 72 71 66 61 66 68 66 68
45 46 40 44 49 47 48 49 51 50 50 50 51 52 53 54 54 55 55 57 61 64 65 62 62 65 66 66 69 72 72 72 71 70 68 66 64 62 60 60 58 53 60 64

GFSCGP_sfc_30mbdewp_030.txt.gz
Dewpoint
31 29 26 26 22 19 22 22 22 21 25 39 39 39 52 55 56 58 59 60 60 61 62 62 63 64 65 65 67 67 68 68 69 68 68 68 68 68 69 69 69 70 70 71
26 25 29 28 24 22 21 21 21 20 21 30 31 35 51 55 55 57 58 59 60 61 61 62 62 62 64 65 65 66 67 68 69 69 68 68 68 68 69 69 69 70 70 71
23 24 28 28 25 23 22 22 21 20 19 31 36 34 41 54 54 56 58 59 59 60 61 62 62 62 62 63 65 66 67 67 68 69 68 69 69 69 68 68 69 69 70 71
22 23 26 27 26 24 21 21 20 18 16 16 34 24 38 46 53 53 54 57 59 60 61 61 61 62 62 63 64 66 66 67 67 68 68 68 67 66 67 68 69 69 69 70
19 19 21 23 24 23 23 22 19 17 15 15 19 24 27 41 50 53 54 54 55 57 58 60 59 60 62 62 63 65 66 67 67 68 68 67 67 67 67 68 68 69 71 70
19 20 21 20 20 22 22 19 17 19 18 16 17 19 19 36 42 51 53 55 55 56 56 57 57 58 60 62 62 64 66 66 67 67 68 67 67 67 66 67 67 68 70 71
18 18 19 18 17 20 20 19 17 15 15 15 17 17 18 27 40 46 49 52 54 55 56 56 56 56 59 61 62 63 65 66 66 67 67 67 68 67 67 67 67 67 68 70
17 16 19 20 16 17 19 18 16 12 12 14 17 15 17 20 34 43 45 47 49 52 54 55 56 56 58 61 62 64 65 66 66 67 67 67 68 67 67 67 67 67 68 69
17 17 22 18 20 16 18 18 17 12 14 10 13 16 18 22 24 36 40 43 44 45 51 53 55 56 56 58 61 64 65 66 66 67 67 67 68 68 67 67 68 68 69 69
19 18 21 19 18 19 17 17 17 14 12 10 10 9 12 22 21 27 35 40 42 43 45 50 52 54 55 57 60 63 65 65 66 67 67 67 68 68 68 68 67 67 69 69
25 16 14 21 20 17 17 14 14 16 13 9 8 9 13 14 23 22 26 36 41 43 44 45 50 52 54 55 58 61 64 65 65 68 68 68 68 68 68 68 68 68 69 69
34 20 18 16 17 21 19 17 13 12 11 10 10 9 12 13 17 26 25 30 41 42 44 45 48 50 52 54 56 60 63 63 65 67 68 68 68 68 68 68 68 69 68 69
31 26 15 15 18 16 18 20 15 14 13 11 9 10 11 12 13 14 17 25 35 41 45 46 46 48 51 53 55 58 61 63 64 66 68 68 68 68 68 68 69 69 69 68
33 28 23 19 20 24 18 15 18 16 13 13 12 11 11 10 11 12 17 25 30 39 40 45 46 47 49 52 55 57 60 62 63 64 66 67 68 68 68 69 69 69 69 68
30 25 27 27 27 26 24 22 21 16 17 15 15 15 16 14 13 12 13 26 30 30 39 45 46 46 48 52 55 57 60 62 63 64 65 66 67 67 68 69 69 70 70 69
30 24 29 26 25 25 24 24 22 20 17 16 17 15 15 15 15 14 15 17 19 21 25 32 46 48 48 51 55 57 61 62 64 64 65 66 67 67 68 68 68 69 70 70
27 27 26 21 26 24 19 18 19 18 17 15 14 16 16 13 14 14 14 15 15 16 22 32 40 48 49 50 54 56 60 63 65 65 65 67 67 68 68 69 69 69 69 70
27 30 28 24 25 17 20 24 26 17 16 17 16 16 16 16 17 16 16 15 16 17 21 31 36 44 49 50 52 56 59 63 65 65 66 67 68 68 69 69 69 69 69 69
30 27 23 20 23 21 22 32 40 41 34 23 18 17 17 18 19 19 24 21 17 19 26 31 39 45 49 50 52 55 59 63 66 66 66 68 68 69 69 69 70 70 70 69
28 27 24 26 22 17 26 44 48 49 38 43 41 20 18 20 16 18 21 34 27 29 32 35 41 47 48 51 54 56 58 62 65 67 67 68 69 69 69 69 70 70 70 70
26 27 24 23 25 27 32 46 50 34 29 51 52 52 34 21 20 20 30 39 38 36 39 43 42 51 53 54 56 57 58 61 64 66 68 68 69 69 69 69 69 70 71 71
25 26 27 26 26 21 37 43 42 47 52 53 54 55 54 29 28 37 46 50 52 57 61 60 56 57 48 56 58 58 59 61 63 66 68 68 69 70 70 70 70 70 71 71
25 30 30 26 24 33 42 44 51 52 52 53 53 55 57 43 49 57 62 65 66 67 67 67 67 67 69 60 58 57 59 60 61 63 66 68 69 70 70 70 70 71 71 70
33 34 31 33 34 36 44 51 51 53 53 53 55 56 60 59 62 63 65 64 64 65 67 68 66 64 65 66 65 65 66 66 61 61 63 65 68 69 70 70 70 70 70 70
32 34 32 35 36 47 49 49 50 53 53 53 53 55 56 59 59 60 61 62 62 62 62 62 60 57 55 54 55 57 59 65 66 62 61 63 64 66 69 68 68 70 71 71
33 31 32 30 37 43 48 50 51 53 53 54 54 55 55 56 57 58 59 60 59 57 58 60 62 63 62 59 56 55 59 58 62 67 66 63 64 65 64 64 62 60 67 69

GFSCGP_sfc_30mbdewp_033.txt.gz
Dewpoint
29 25 23 23 22 19 16 16 20 23 25 35 34 35 42 53 55 56 57 57 58 58 59 61 62 64 65 66 67 68 69 70 69 68 67 66 64 65 67 69 71 71 71 72
29 22 22 23 25 22 18 15 18 23 22 25 27 34 40 51 54 55 57 58 58 58 59 61 62 63 64 66 67 69 69 70 70 69 68 65 65 65 68 70 71 71 71 72
18 19 22 25 25 23 21 14 14 18 21 25 29 26 35 48 52 54 57 57 58 58 59 60 61 62 64 65 67 69 70 70 70 69 69 68 69 69 69 69 70 71 72 72
17 20 23 23 22 24 16 19 16 18 19 19 28 22 33 38 50 53 54 57 57 58 59 60 61 62 63 65 67 68 69 70 70 71 68 68 65 64 66 67 69 69 71 71
18 21 23 24 21 25 18 21 18 16 19 20 20 23 25 41 45 50 52 55 57 57 59 60 61 62 63 64 65 67 69 70 70 71 70 69 68 66 66 68 69 71 71 72
16 21 23 25 25 26 24 23 22 22 19 17 20 21 22 27 35 43 50 53 56 57 58 59 61 63 63 63 64 65 69 69 70 70 71 70 69 68 67 68 68 68 68 69
19 19 21 22 23 25 23 19 15 14 14 14 20 21 22 26 32 31 43 51 54 56 58 58 60 61 63 64 64 65 68 68 70 70 70 70 70 70 69 69 68 67 67 68
16 16 18 20 21 19 22 18 10 8 7 9 20 18 20 24 26 34 37 44 52 55 55 57 58 61 62 63 65 65 66 68 69 69 69 70 70 69 69 69 67 67 67 68
15 14 20 19 18 20 20 19 16 11 15 11 11 16 21 24 25 31 37 40 46 51 54 56 57 59 60 61 63 65 66 67 68 69 69 70 70 70 68 69 70 68 69 68
22 18 20 18 18 18 19 19 16 15 7 7 11 15 13 23 22 27 32 36 41 45 50 53 56 58 59 60 62 65 66 67 68 68 69 69 69 70 70 70 70 69 69 70
27 20 19 20 18 16 16 18 16 15 12 4 4 4 20 23 30 27 28 32 37 42 45 48 53 57 59 59 60 63 65 66 67 68 68 69 69 69 70 70 70 70 70 70
32 21 19 19 20 19 18 17 18 13 16 13 9 6 19 22 23 31 28 32 36 41 45 47 47 52 55 58 59 61 64 65 66 67 68 69 69 69 69 70 70 71 71 71
31 26 21 20 19 19 18 19 19 17 16 16 10 9 15 20 22 24 26 32 35 38 43 47 47 48 54 56 58 59 61 63 64 67 68 68 69 69 69 70 70 71 71 71
33 27 24 19 20 25 23 20 20 18 16 16 16 12 16 19 21 23 26 28 31 38 43 47 49 51 53 55 58 59 60 61 63 65 67 68 69 69 69 70 70 70 71 71
29 25 26 25 24 24 24 23 22 21 20 18 17 17 18 20 21 23 26 30 34 35 39 47 50 53 55 56 58 59 60 62 63 65 66 67 69 70 70 70 70 71 71 71
27 21 24 20 20 20 23 23 23 22 21 21 20 20 22 24 26 27 24 27 26 31 35 41 50 54 55 56 58 59 60 61 64 65 65 67 69 70 70 70 70 71 71 71
25 22 19 15 22 21 19 21 21 21 22 20 19 20 21 21 23 26 27 29 31 33 35 36 40 48 53 55 58 58 60 62 64 65 66 67 69 69 70 70 71 71 71 71
25 29 23 13 17 14 18 25 25 25 20 20 20 20 21 22 26 29 30 26 29 30 29 34 34 40 50 51 51 58 60 63 64 65 66 67 68 69 69 70 70 70 71 71
26 23 19 12 13 15 16 19 31 36 27 40 32 22 21 21 24 28 30 31 32 32 35 36 35 40 48 53 55 58 60 63 65 66 66 67 68 68 69 69 70 70 70 70
26 25 21 17 10 10 22 25 36 46 29 47 49 46 37 24 22 21 28 32 30 31 32 37 40 45 48 54 54 58 59 63 65 66 67 68 68 69 69 70 70 71 70 70
24 24 21 17 15 14 21 33 48 34 30 50 51 52 52 49 36 33 36 37 38 40 42 43 45 51 56 57 57 58 60 62 64 65 66 68 69 70 70 70 71 71 71 70
19 23 22 21 17 12 23 24 26 43 49 49 50 53 54 55 55 55 49 39 49 55 55 49 53 55 58 60 60 61 62 63 64 66 68 69 70 69 69 71 71 71 71 71
23 23 25 23 15 24 30 35 35 46 47 48 53 54 55 56 56 57 47 58 61 64 65 66 66 64 63 63 63 63 65 64 65 67 68 69 70 71 71 71 70 70 71 70
27 32 31 28 25 28 28 32 36 50 50 53 54 55 56 57 59 55 60 65 67 67 67 67 66 66 65 66 67 67 67 66 66 66 68 69 70 70 71 71 71 70 69 70
28 31 30 29 31 34 34 35 39 43 49 52 55 55 56 60 61 62 64 64 63 62 60 59 58 57 58 60 61 63 67 69 66 65 66 67 68 69 70 71 71 69 70 70
32 30 30 27 30 32 32 37 41 50 48 54 55 56 58 61 61 63 62 61 62 62 63 63 62 62 61 60 60 61 63 65 68 68 65 64 63 65 67 70 68 64 64 69

GFSCGP_sfc_30mbdewp_036.txt.gz
Dewpoint
28 25 24 23 25 25 23 23 24 26 27 26 28 30 31 43 48 50 53 55 56 56 57 58 60 60 62 63 65 66 67 68 69 68 66 65 62 62 61 63 65 69 70 71
22 20 18 21 20 21 21 19 21 25 25 25 28 29 31 40 47 50 52 53 55 56 56 58 60 60 61 63 65 67 68 69 70 68 67 63 61 60 61 64 66 70 71 72
16 16 17 17 18 20 20 19 20 22 24 24 24 26 28 34 44 47 50 52 54 55 56 57 58 59 60 61 64 67 69 70 70 69 67 66 63 62 62 64 67 70 71 72
17 16 17 17 17 18 17 19 19 18 19 20 25 23 26 29 36 41 45 51 52 56 56 56 57 58 59 62 64 67 69 70 71 71 67 67 63 61 61 64 66 67 71 71
16 15 15 15 15 17 14 13 17 18 16 19 21 22 24 28 29 35 40 47 52 54 55 56 57 57 59 61 63 66 69 71 71 72 69 67 67 62 62 63 67 70 70 71
15 16 13 16 17 16 14 15 14 17 14 14 20 21 22 25 30 32 37 44 50 53 54 56 58 57 58 60 62 65 69 72 72 71 71 71 69 67 63 65 65 66 67 68
15 15 18 16 17 20 17 17 12 9 9 11 16 19 22 25 27 31 32 38 47 53 54 55 57 59 58 59 61 64 68 71 71 71 71 71 71 70 69 68 67 66 65 64
17 14 16 17 17 18 18 16 7 6 3 7 14 16 20 24 27 28 31 30 42 50 53 54 56 59 60 60 63 64 67 70 71 71 72 73 73 69 69 69 67 67 65 65
17 16 15 18 18 18 20 16 12 4 9 7 6 12 17 22 24 27 27 29 32 47 51 54 55 57 60 62 64 65 67 70 70 70 72 73 73 72 68 69 71 68 69 66
21 18 17 16 19 18 17 18 12 9 7 6 4 9 13 17 21 24 25 29 31 39 48 51 54 56 58 61 63 66 68 69 70 69 70 71 71 73 72 71 71 70 69 69
25 20 19 17 16 16 15 16 15 11 8 5 5 3 12 16 22 23 26 29 30 36 43 48 50 53 56 58 61 63 66 68 69 69 70 70 70 71 72 71 72 72 71 71
27 23 21 17 17 15 16 15 16 11 13 11 8 4 11 14 17 24 23 27 30 33 37 42 45 49 53 56 58 60 62 65 66 68 71 71 70 71 70 72 72 73 72 72
30 23 21 20 19 19 15 15 15 15 13 15 10 7 16 20 22 26 26 28 31 33 39 41 43 44 49 53 57 58 60 61 63 67 67 68 69 69 70 72 72 72 73 73
32 27 22 19 20 19 18 17 16 15 14 12 15 12 14 14 19 20 20 23 27 34 36 38 41 42 44 50 56 59 58 60 61 63 65 67 69 70 70 71 72 72 73 73
26 26 27 27 26 25 22 18 18 17 18 15 14 16 17 18 20 22 23 24 23 27 33 36 42 45 51 52 55 60 59 59 60 64 64 67 70 71 71 71 72 73 73 73
24 26 26 25 23 22 22 24 22 20 19 20 19 19 20 22 24 23 25 27 27 27 26 25 34 47 52 55 57 58 61 60 61 64 65 67 70 71 71 72 72 73 73 73
23 21 23 21 23 22 21 22 23 23 23 23 21 23 24 24 24 25 25 25 26 27 29 30 33 40 45 50 55 57 61 62 63 65 67 68 70 71 72 72 73 73 73 73
23 22 21 19 21 19 22 23 24 23 23 24 24 24 24 25 26 26 26 25 24 24 25 29 30 31 37 44 42 50 56 64 64 66 67 69 70 71 72 73 72 73 73 73
21 21 18 18 18 19 20 21 22 23 24 24 24 25 24 23 24 24 25 25 29 30 31 31 31 30 35 39 42 46 53 59 64 66 68 69 70 69 70 72 72 72 72 72
16 23 19 16 17 15 20 20 24 27 28 31 38 37 40 40 24 22 23 25 29 29 32 32 32 32 35 43 47 51 53 57 64 66 67 68 69 70 70 72 72 72 72 71
14 18 17 13 14 17 19 31 39 27 38 42 43 45 46 46 47 49 51 49 48 46 41 40 42 41 42 47 51 51 53 57 61 64 64 67 70 71 71 72 72 72 72 70
16 16 13 15 11 11 16 17 21 29 33 40 43 42 44 45 47 49 51 54 54 52 42 44 50 46 49 57 58 57 61 61 63 64 65 68 70 69 69 72 73 72 72 72
19 17 14 13 13 17 23 23 30 32 33 35 41 40 45 47 48 49 51 56 57 50 49 54 50 53 57 62 60 61 64 64 65 65 67 68 69 70 70 71 72 71 72 69
20 23 24 22 21 22 24 26 28 28 31 37 38 38 41 45 47 50 55 58 54 56 61 61 62 60 63 65 65 64 67 67 66 67 68 69 70 70 70 70 70 70 69 69
24 25 24 25 26 27 26 25 28 32 30 30 33 40 41 42 50 53 60 59 59 64 65 65 65 65 66 67 68 68 67 67 67 68 68 68 68 70 70 70 68 68 69 67
27 27 25 25 27 28 29 29 30 28 24 37 38 44 44 45 55 60 62 62 63 63 62 62 61 61 61 61 63 64 67 68 66 65 64 63 63 66 67 67 69 68 66 64

GFSCGP_sfc_30mbdewp_039.txt.gz
Dewpoint
35 35 35 32 37 32 25 27 27 30 30 29 29 30 31 34 42 46 51 53 54 54 54 55 57 57 58 59 62 65 66 68 67 66 66 64 62 62 61 61 62 65 68 69
34 33 31 27 28 32 31 27 27 27 28 29 28 29 29 33 41 45 49 51 53 54 54 54 57 57 57 59 63 66 68 70 70 68 67 64 63 60 60 60 65 66 69 70
23 25 26 18 22 28 27 26 24 25 27 28 27 28 29 31 39 45 48 50 52 53 54 55 55 57 57 59 64 66 69 70 71 69 68 67 64 63 60 60 63 67 69 70
19 16 17 16 15 17 17 22 23 21 24 24 26 23 27 28 34 41 46 48 49 52 54 56 55 56 57 59 63 67 71 71 72 72 67 66 62 59 58 59 60 65 69 70
21 13 13 14 13 13 13 14 20 20 21 23 24 24 23 27 27 35 39 45 48 50 53 55 56 56 56 58 61 65 71 72 72 72 70 67 66 60 60 59 62 67 71 70
20 15 13 14 13 13 13 12 13 16 18 19 21 21 22 22 26 30 34 36 43 48 51 54 56 56 56 56 59 63 70 73 73 73 73 71 67 65 61 61 61 64 65 69
17 17 16 14 14 13 13 11 9 8 11 14 19 20 22 23 24 28 30 35 38 46 51 53 55 56 56 57 60 63 69 72 74 73 73 73 71 70 70 67 63 63 62 62
15 14 16 15 12 13 13 10 7 6 6 8 14 16 19 22 25 25 29 32 37 41 49 52 54 56 57 58 61 62 68 72 74 73 73 74 73 69 69 68 64 64 62 62
15 16 16 15 14 14 15 12 9 6 7 3 4 10 14 18 22 25 28 30 32 39 47 50 53 56 58 59 61 63 67 71 73 73 74 74 74 73 68 69 71 68 68 63
20 19 18 16 16 15 15 16 9 9 6 5 4 8 10 16 21 23 26 29 29 34 45 50 52 55 58 59 60 64 66 70 73 72 74 74 74 75 72 71 71 69 69 70
23 22 21 19 15 15 15 15 13 10 7 4 8 7 11 16 20 21 25 28 28 29 41 48 51 53 57 59 60 62 65 68 71 73 73 73 74 74 74 73 72 72 72 73
23 23 22 19 16 17 16 14 17 12 13 7 6 8 13 11 16 22 24 26 27 30 37 46 48 51 53 57 59 61 63 64 69 70 72 73 73 73 73 74 73 74 73 73
29 25 22 22 18 17 16 15 15 16 12 12 8 10 18 18 17 21 24 26 29 31 34 39 44 49 50 52 57 59 62 63 64 68 69 71 72 72 72 73 74 74 74 74
33 28 25 21 20 18 16 16 15 15 14 12 13 11 17 19 22 25 26 26 29 33 35 38 39 42 45 49 56 59 58 61 62 64 66 69 71 71 72 72 74 74 75 74
28 29 27 25 24 21 18 16 15 15 16 14 12 15 18 18 21 22 24 27 29 32 34 35 37 40 46 50 56 60 58 59 60 64 65 68 71 72 72 72 73 74 74 75
27 25 28 27 25 26 24 21 18 15 15 15 15 15 18 21 21 22 23 25 27 27 27 31 35 40 44 47 52 56 61 60 60 63 65 67 70 72 73 73 73 74 74 74
26 24 27 26 27 26 24 23 22 18 17 17 16 18 19 21 24 25 26 28 27 27 27 28 30 31 40 47 52 54 59 62 62 63 66 67 69 71 73 73 74 74 74 74
22 26 26 24 26 23 24 25 23 23 22 20 21 23 23 25 27 28 29 29 29 28 28 28 27 29 39 39 38 52 55 64 64 65 66 68 69 71 73 74 74 74 75 74
19 22 23 22 22 23 23 23 24 23 23 24 24 25 26 26 27 28 29 29 29 29 29 31 31 28 33 31 35 41 49 59 65 66 67 68 70 71 73 73 74 74 74 74
16 19 20 21 20 21 22 26 24 28 24 26 25 26 26 27 26 25 32 42 47 46 45 46 36 33 33 35 35 38 41 47 62 66 68 69 70 71 72 73 74 75 74 74
12 15 16 17 20 21 24 30 27 24 37 32 32 35 37 40 43 48 48 48 49 51 52 51 50 45 46 46 42 46 49 49 56 64 67 70 71 72 73 73 75 75 74 72
19 14 14 17 16 17 22 21 27 33 37 39 42 43 42 43 46 46 47 49 50 51 53 53 50 48 48 50 50 54 57 58 61 63 66 68 71 71 71 74 74 75 74 74
13 17 16 15 16 21 23 24 24 26 31 32 34 36 39 40 41 42 46 48 50 54 56 55 48 47 51 54 57 60 64 66 65 66 68 69 72 72 71 73 74 73 74 71
15 18 17 19 20 20 22 23 24 26 28 29 30 34 35 33 37 40 42 48 51 56 57 56 56 56 57 61 63 64 65 66 67 69 70 71 72 72 72 70 71 71 69 70
23 23 20 19 19 23 25 26 26 26 26 27 29 32 30 30 35 42 43 49 54 57 60 62 62 63 63 67 67 67 68 68 67 68 68 69 69 70 71 71 69 69 70 67
27 26 25 21 24 25 25 27 29 28 28 29 30 29 28 39 41 44 46 54 57 60 62 64 64 65 64 66 68 70 71 68 68 68 68 67 66 69 69 69 70 67 67 63

GFSCGP_sfc_30mbdewp_042.txt.gz
Dewpoint
35 30 29 29 34 36 34 31 28 33 35 31 31 30 34 37 41 50 51 53 53 53 55 56 56 57 58 61 65 65 66 68 70 69 69 68 66 65 66 66 65 72 71 71
33 30 30 31 32 34 34 29 23 28 31 33 30 30 29 37 39 48 51 52 53 53 53 56 57 57 57 61 65 67 67 69 70 69 69 68 67 65 65 65 67 68 70 71
31 30 30 30 31 29 33 31 25 25 31 35 31 30 29 33 37 41 49 50 53 53 53 55 57 57 57 61 64 67 68 70 71 69 70 70 69 68 66 65 65 69 70 73
31 30 28 29 29 26 28 33 29 27 26 27 28 26 30 28 33 41 44 48 51 53 54 55 57 57 58 60 64 68 69 70 71 71 69 68 66 64 64 63 64 68 70 71
31 28 25 27 27 25 20 22 28 27 23 24 24 24 24 28 30 38 42 47 48 52 53 55 56 57 58 60 64 67 70 71 72 70 71 69 67 65 64 64 63 68 72 73
31 28 22 17 22 18 16 20 20 21 21 20 22 24 25 25 28 29 38 45 47 50 53 56 57 57 58 60 64 67 70 71 72 72 71 72 68 67 63 63 64 67 71 71
30 29 21 15 13 15 12 12 11 11 15 17 20 20 24 25 30 29 36 38 46 48 52 55 58 57 58 59 63 66 70 71 72 73 72 71 72 69 68 69 64 65 67 70
20 21 25 14 12 13 11 9 9 10 11 12 16 16 21 24 25 25 33 36 39 45 49 53 58 58 58 59 62 65 70 71 73 73 73 72 73 72 68 70 66 65 66 67
18 19 22 19 14 14 11 10 10 8 9 8 10 14 16 22 23 24 24 32 36 41 46 51 57 58 59 59 61 63 68 71 73 73 73 74 72 73 70 68 70 70 67 68
20 17 18 19 17 14 14 13 9 8 7 8 6 12 14 18 24 25 26 27 34 39 44 51 55 58 59 59 60 63 66 70 72 73 73 74 74 73 72 70 71 69 71 68
19 20 17 18 17 14 12 13 11 9 8 7 9 9 14 22 22 25 26 28 31 38 44 49 54 57 59 59 60 62 64 69 72 73 74 73 74 74 73 71 72 73 71 73
24 19 18 19 18 17 15 12 15 15 15 10 12 9 15 19 23 23 24 29 30 35 44 47 52 55 58 59 60 61 63 66 71 73 74 73 74 74 74 73 72 73 73 72
30 25 19 20 23 17 15 15 14 16 12 15 12 9 20 20 23 25 26 27 32 35 42 47 50 53 56 59 60 61 63 64 68 72 73 73 73 74 74 74 73 73 73 74
30 30 26 22 24 21 17 15 15 14 16 14 14 16 19 19 18 24 27 30 32 38 39 46 47 52 54 58 60 61 62 63 64 69 71 72 73 73 74 74 74 73 74 73
29 29 28 26 24 23 17 16 16 15 17 16 14 14 22 23 26 26 28 31 33 38 39 44 46 53 55 57 61 62 62 63 64 65 69 70 72 73 73 74 74 75 74 74
28 28 30 29 27 26 25 17 17 16 14 16 16 14 23 25 27 28 31 32 34 36 36 38 38 43 46 58 61 62 62 63 64 65 66 69 71 72 73 73 73 74 75 74
26 28 28 27 30 28 25 24 18 17 17 15 16 19 24 26 26 28 28 29 29 29 31 32 35 40 45 49 56 62 62 62 64 65 67 68 70 71 73 73 73 73 74 75
22 25 28 27 28 26 28 28 26 23 18 17 18 20 24 28 29 29 28 29 31 30 30 33 31 35 38 40 43 53 62 64 64 66 66 69 71 71 73 73 73 74 74 74
20 21 24 25 26 29 28 27 26 24 23 21 20 20 22 28 29 31 31 31 31 32 36 35 40 37 43 44 50 55 57 64 66 65 68 68 71 71 72 73 73 74 74 74
18 20 22 24 23 22 27 26 26 25 23 31 26 26 26 27 26 42 49 49 49 50 52 54 53 53 53 55 50 58 58 62 65 66 66 70 69 71 71 73 74 74 74 74
15 19 18 21 23 25 32 28 28 24 38 42 43 37 30 35 46 48 48 49 50 52 53 54 55 55 55 54 54 55 56 53 63 67 68 69 71 70 72 73 74 75 75 74
16 17 19 19 20 22 29 27 31 38 37 37 39 40 42 44 44 43 44 47 49 51 53 58 56 56 56 55 56 57 57 62 60 59 69 70 72 71 71 73 75 75 75 75
15 24 22 21 20 28 28 26 27 28 30 33 33 33 37 40 38 37 41 45 46 51 55 58 60 56 57 57 59 59 61 66 65 66 69 71 72 73 72 73 74 74 75 74
24 25 22 19 21 23 24 25 25 26 27 28 29 29 30 34 35 33 38 44 48 51 56 58 63 63 64 63 63 66 68 68 70 69 71 72 72 73 73 72 74 73 73 74
24 26 24 25 24 23 22 23 25 27 28 28 29 29 30 32 33 33 41 47 49 55 57 61 65 67 68 69 69 70 70 70 71 71 71 72 72 73 73 73 72 73 73 72
28 28 29 30 33 35 35 35 34 31 27 28 30 31 32 33 35 39 40 46 51 56 60 64 65 65 67 66 69 70 72 72 71 70 70 70 69 71 72 73 72 60 62 62

GFSCGP_sfc_30mbdewp_045.txt.gz
Dewpoint
30 28 26 21 25 29 36 37 35 35 39 38 37 34 49 50 52 55 56 54 55 55 56 60 60 59 58 62 64 62 67 67 67 70 68 68 65 66 67 66 71 71 71 72
31 29 28 27 26 26 33 36 35 34 34 35 34 33 36 48 55 57 57 58 55 55 55 56 55 57 59 63 63 65 67 69 67 69 68 69 68 67 67 65 70 71 71 72
29 32 32 30 26 25 30 33 34 33 28 28 33 32 32 47 53 54 59 60 55 55 55 56 55 56 59 63 63 65 66 70 69 69 69 68 69 68 67 66 65 71 71 71
29 33 32 32 28 28 29 33 34 34 30 31 33 31 33 35 49 54 59 57 54 54 54 56 55 56 59 63 65 65 67 71 70 70 69 68 66 65 67 65 66 68 71 71
27 32 32 30 29 29 30 31 32 33 32 30 32 31 32 32 35 50 56 57 55 54 54 56 56 57 57 62 66 67 67 70 70 70 69 69 67 67 65 66 64 68 69 70
27 34 32 31 30 29 30 28 26 31 31 27 27 31 31 31 33 50 54 55 55 55 55 55 57 57 57 63 66 68 68 69 70 70 70 68 68 66 66 63 64 67 70 71
26 27 32 31 29 28 28 26 21 18 21 24 25 24 25 29 32 37 46 52 53 54 55 55 56 57 58 62 64 68 68 68 70 70 68 71 68 68 65 65 63 66 70 71
24 24 29 31 27 25 27 25 16 17 19 21 20 18 21 24 27 31 42 50 53 54 57 55 56 57 57 60 64 67 68 68 69 71 70 68 72 69 67 68 67 64 69 70
19 21 32 32 24 20 21 18 15 12 16 13 16 16 18 20 23 23 30 46 50 53 55 55 56 57 57 60 64 65 69 68 70 70 71 70 69 73 68 66 69 67 67 69
21 15 27 29 31 21 15 15 12 10 9 10 12 14 15 16 17 22 24 35 45 49 53 56 56 57 58 59 63 65 68 69 70 71 71 72 70 69 72 69 67 69 68 67
32 21 15 21 26 26 12 14 12 11 11 12 13 14 17 18 20 19 26 29 37 47 52 56 57 57 58 58 61 64 67 70 71 71 71 72 72 71 70 72 68 69 70 71
33 30 16 16 22 24 21 14 14 11 11 12 11 11 23 22 22 22 23 27 36 45 51 56 57 58 58 58 59 62 65 69 71 72 72 72 73 73 71 70 72 68 71 70
35 30 24 18 19 20 19 14 14 16 17 14 10 10 21 22 25 23 27 26 35 43 49 55 57 57 59 58 58 61 62 67 70 71 72 72 72 73 73 71 70 73 69 72
39 31 28 24 19 21 20 18 13 13 14 14 15 16 21 24 26 28 30 34 33 45 49 52 56 57 58 59 59 59 61 63 69 70 72 72 73 72 73 73 72 70 72 71
34 25 28 31 28 27 25 18 16 14 14 18 17 20 22 26 33 32 32 35 37 41 48 51 54 56 58 59 59 60 60 62 64 70 71 72 73 73 73 73 73 73 71 72
31 26 30 31 30 28 27 24 17 16 15 16 20 15 27 28 35 34 36 38 41 44 49 49 52 55 57 59 60 60 60 61 63 66 70 71 72 73 73 73 73 74 74 72
27 24 27 28 30 30 28 28 19 17 18 16 15 21 30 29 34 31 31 32 31 31 34 42 44 53 59 60 61 62 62 62 63 64 66 69 71 72 73 73 73 73 74 74
25 22 25 29 29 27 31 32 31 21 20 18 18 29 27 30 40 39 36 31 34 43 44 45 50 48 45 58 62 61 63 64 64 64 65 66 70 71 72 72 73 73 73 74
24 21 23 27 28 29 30 29 29 28 39 42 43 32 32 41 46 50 51 52 53 54 55 55 56 55 55 53 51 62 64 65 67 65 68 67 70 70 71 72 72 73 73 73
22 21 23 25 28 27 32 31 30 31 37 38 44 46 34 43 46 49 52 52 52 55 56 59 57 56 55 55 56 59 64 64 64 66 69 71 70 71 71 72 72 73 73 73
20 21 21 21 24 35 35 32 38 34 36 36 36 41 42 41 44 46 48 50 53 55 55 58 60 62 59 57 57 55 55 60 67 67 67 70 71 72 72 72 73 73 73 73
25 24 21 21 24 31 35 29 27 35 35 35 34 34 38 38 37 38 43 48 50 53 55 57 58 60 63 62 57 54 57 57 63 65 68 68 71 70 72 73 73 74 73 73
27 29 30 28 28 30 31 32 30 31 31 32 31 31 33 35 37 37 37 48 49 52 57 58 59 62 63 67 62 57 59 67 68 63 68 69 70 72 70 73 73 74 74 74
27 29 27 29 29 30 33 36 37 37 36 31 30 32 33 34 35 38 39 47 50 54 55 58 60 63 68 70 70 70 72 70 66 67 68 72 72 73 72 72 74 74 74 74
28 29 31 29 30 33 34 35 36 37 38 38 38 35 31 34 38 39 42 46 45 46 55 55 60 61 67 67 70 70 71 71 72 69 72 73 73 73 73 70 69 73 74 74
31 32 33 32 35 35 35 36 37 38 37 38 38 39 40 37 34 42 41 42 42 42 40 55 57 61 67 66 67 68 69 70 71 72 72 73 72 73 73 70 64 56 59 60

GFSCGP_sfc_30mbdewp_048.txt.gz
Dewpoint
26 21 20 21 24 23 29 34 34 38 41 47 44 46 49 57 58 59 60 60 60 60 61 61 61 61 61 63 63 63 63 66 67 68 66 65 64 64 66 67 69 70 70 72
27 22 22 27 25 21 23 27 32 37 38 39 42 44 48 55 57 58 59 59 59 60 60 61 61 60 60 63 63 63 63 65 67 67 67 66 65 65 66 67 70 70 71 72
26 29 29 28 27 22 23 25 26 35 37 35 37 38 47 50 55 57 58 58 58 57 59 60 61 61 61 62 63 64 64 65 66 68 68 68 68 66 65 66 68 71 71 72
28 29 29 29 27 25 23 25 26 30 34 33 35 33 39 47 52 54 55 56 56 55 58 60 60 61 60 60 63 65 66 66 66 69 67 66 65 66 66 65 66 70 71 72
21 27 28 28 28 29 25 26 26 29 32 33 32 33 35 47 52 52 53 53 53 56 55 56 59 59 59 61 63 64 68 67 67 69 67 66 65 66 67 66 65 67 71 71
22 25 28 29 31 31 29 28 29 30 29 29 31 31 32 45 51 53 51 53 54 56 56 55 56 57 59 61 62 64 68 68 68 68 68 67 66 66 66 65 65 65 69 70
22 21 26 31 30 32 31 28 26 26 26 25 30 30 30 45 51 52 52 55 55 55 55 55 56 55 59 62 62 63 66 68 69 68 68 68 67 67 66 66 64 64 67 69
17 16 22 27 31 31 29 28 27 25 22 22 25 27 28 29 37 52 53 55 56 53 53 55 56 55 57 62 64 64 65 66 69 68 68 68 68 68 67 66 65 64 67 69
31 18 26 28 28 31 29 26 26 21 18 19 21 22 24 24 26 48 53 55 56 54 53 55 55 56 57 61 64 65 65 65 68 68 69 69 69 68 68 67 66 65 66 70
34 30 25 26 27 29 28 27 24 21 20 13 14 16 20 20 18 25 50 54 55 53 54 53 55 56 57 59 63 65 66 65 66 68 68 68 69 71 69 67 67 69 66 68
34 31 28 23 19 27 26 23 23 23 17 14 11 12 16 16 17 17 37 52 53 52 54 54 55 56 57 58 62 65 66 66 67 67 69 69 68 67 72 69 66 67 69 68
35 35 32 26 21 20 31 21 18 15 13 12 14 12 15 16 18 19 19 48 51 52 53 54 55 56 57 58 61 64 66 67 67 68 69 70 70 69 68 71 70 68 67 69
37 35 29 24 22 19 17 26 15 14 13 11 10 10 15 17 22 28 25 26 49 51 53 54 55 56 57 57 60 63 65 67 68 68 69 70 71 71 70 68 70 71 68 68
40 36 33 29 27 27 20 18 20 13 11 11 12 11 12 13 16 23 27 27 38 49 51 53 55 56 57 57 59 62 64 67 68 69 70 69 70 72 72 71 69 70 71 68
37 30 30 29 28 28 28 24 21 15 13 12 12 16 16 16 19 32 30 33 41 49 52 54 56 56 57 58 58 61 63 65 69 70 70 70 71 71 72 72 71 70 70 71
36 29 29 24 28 30 29 28 26 18 14 16 14 15 18 22 37 37 41 37 43 49 53 55 56 57 58 58 58 59 61 64 67 69 70 70 71 71 71 72 73 72 71 69
32 29 27 24 30 30 28 28 30 24 16 15 15 18 28 36 45 45 34 39 45 47 52 55 56 57 58 59 59 59 60 62 65 68 69 70 71 72 72 72 72 73 72 72
30 29 27 23 27 25 30 33 30 35 34 37 41 39 40 50 51 52 54 53 53 53 52 52 54 56 58 59 59 59 60 61 63 64 69 70 71 71 72 72 72 72 73 73
30 31 23 23 28 30 33 34 31 30 33 33 38 43 49 49 49 50 52 54 56 58 59 57 55 55 57 59 61 60 61 61 62 63 64 69 70 71 72 72 72 72 73 73
31 32 24 21 30 30 33 36 32 35 30 32 34 36 42 43 44 46 50 54 55 57 58 60 62 62 58 57 58 62 62 62 63 63 64 65 68 70 71 72 72 73 73 73
30 30 23 23 33 36 37 39 34 31 31 33 33 35 36 34 38 42 50 50 55 55 58 60 62 63 64 63 54 59 62 64 64 65 65 67 66 68 70 71 72 71 72 72
31 31 29 31 32 30 38 39 34 35 36 37 35 33 34 36 38 40 47 47 52 54 57 59 62 65 68 68 59 54 54 58 63 66 67 69 70 68 69 70 71 71 71 72
29 30 31 31 33 36 37 39 40 37 36 37 37 38 36 34 38 40 43 43 43 50 52 57 60 64 68 71 67 69 70 69 69 63 66 68 70 71 71 71 71 71 72 72
30 32 31 30 30 33 33 33 36 36 36 37 37 38 39 37 38 40 40 40 41 42 41 54 57 59 64 69 69 69 70 70 71 69 66 68 69 70 70 72 72 72 73 72
33 32 34 31 32 35 35 37 38 39 39 39 38 36 39 40 38 40 38 39 39 40 43 47 55 57 59 67 67 68 68 69 69 70 72 70 70 70 71 67 67 72 73 72
37 34 32 31 35 36 36 38 40 40 40 40 40 38 35 40 40 41 39 38 40 40 43 48 53 57 58 62 67 67 67 67 68 68 69 71 73 72 70 65 61 54 56 60

GFSCGP_sfc_30mbdewp_051.txt.gz
Dewpoint
25 20 17 17 25 26 29 34 36 37 39 48 48 47 59 60 60 59 59 59 60 61 61 61 62 61 62 61 59 62 63 64 67 66 66 66 65 66 67 69 69 70 71 69
24 20 20 21 24 24 23 22 27 33 36 46 47 48 56 59 59 59 59 59 60 60 60 60 61 61 61 61 60 62 62 64 67 66 66 65 64 65 66 67 69 69 70 71
24 25 23 23 22 23 23 21 22 29 36 40 42 45 47 58 59 59 60 60 60 60 59 59 60 61 61 62 61 62 62 63 66 66 66 67 66 65 65 66 67 70 70 71
27 25 25 21 24 24 22 23 22 25 28 30 36 35 45 53 57 58 59 59 59 60 60 60 60 60 60 61 63 63 62 63 65 67 66 65 63 62 63 64 66 69 71 71
24 27 25 25 23 27 25 24 24 25 26 29 29 32 40 51 55 56 57 58 59 60 60 60 60 61 61 61 63 63 63 63 64 67 65 65 63 63 66 65 65 67 70 71
23 22 26 25 29 27 28 26 25 27 27 25 28 31 32 47 49 55 56 57 58 58 59 60 60 61 61 60 63 64 64 64 64 66 66 65 65 65 65 66 64 65 69 70
30 25 25 26 27 30 29 26 23 22 25 25 29 30 31 42 46 49 53 56 56 57 57 58 60 60 61 60 62 63 64 64 65 66 66 66 65 65 65 65 66 65 66 69
30 24 23 24 26 26 29 28 25 22 24 26 27 27 29 38 45 47 51 54 55 54 54 56 57 60 60 60 61 63 65 65 65 66 66 66 66 66 66 66 65 65 66 67
31 30 32 29 24 29 28 28 29 26 20 23 26 25 28 37 43 47 49 52 52 53 54 55 56 58 58 60 61 62 64 65 66 66 67 67 67 66 66 66 66 65 66 68
33 29 32 32 29 26 30 30 28 25 23 19 18 21 26 27 31 46 49 51 52 52 53 55 56 56 57 59 61 62 63 64 66 67 67 67 67 67 67 67 66 66 65 67
35 32 30 33 25 21 26 29 28 28 25 24 19 17 20 25 26 32 41 48 52 53 54 54 55 56 56 59 62 62 62 63 65 67 67 67 68 68 68 67 67 67 67 66
37 35 31 32 33 34 32 27 25 26 24 20 24 24 19 19 23 32 41 48 52 53 55 54 53 55 56 56 61 63 63 63 64 66 67 67 68 69 69 68 67 67 68 68
37 34 27 27 25 27 25 24 26 23 24 22 23 23 17 15 17 22 23 36 49 54 55 55 54 55 56 56 60 63 64 64 64 65 67 67 67 67 68 70 70 68 67 67
36 35 31 27 27 29 28 28 28 24 21 19 18 23 16 14 15 16 23 25 41 51 54 55 54 55 56 57 59 62 64 65 65 65 66 67 68 68 68 67 69 71 69 68
35 29 32 32 30 29 28 28 26 26 19 18 17 13 14 15 16 25 38 36 31 35 51 53 54 55 56 57 58 62 63 65 65 66 66 67 68 69 70 69 68 68 70 70
36 29 31 28 27 26 25 26 26 27 28 14 14 13 16 39 47 47 49 39 31 37 50 52 53 54 56 57 57 60 63 64 66 66 67 67 68 69 70 70 70 69 68 70
32 31 29 24 26 26 27 31 32 30 32 32 18 27 42 48 50 52 54 51 38 45 50 52 53 54 56 57 57 59 62 64 66 67 67 68 69 69 70 71 71 71 70 69
32 32 31 25 24 27 32 36 32 30 30 33 38 42 50 50 50 51 52 55 57 54 50 51 53 55 56 57 58 58 62 63 66 68 68 69 70 70 70 70 71 72 72 71
32 32 29 22 23 33 33 35 36 32 29 34 33 37 45 48 49 50 50 54 57 59 60 58 56 57 57 58 59 59 61 62 65 66 68 69 70 70 71 71 71 71 72 72
33 35 30 29 28 32 35 36 38 37 29 36 37 35 38 46 46 47 48 53 54 59 61 62 62 58 58 59 59 59 60 61 62 64 67 69 70 70 70 71 72 71 72 72
30 30 27 29 29 36 38 37 38 30 31 36 37 37 37 39 40 43 44 42 49 53 58 63 67 63 60 58 60 59 60 60 61 62 64 66 69 70 71 71 72 72 72 72
30 29 29 31 32 31 37 39 33 35 36 36 36 35 37 38 41 41 41 40 42 44 54 58 66 68 65 58 61 61 62 61 65 64 63 64 66 68 70 71 72 72 72 72
29 32 30 31 31 38 36 40 36 37 36 37 37 37 36 39 39 40 38 39 40 43 47 55 59 65 68 70 70 69 70 68 65 66 67 68 67 67 67 69 70 71 71 71
33 35 33 32 31 33 34 37 40 40 39 40 40 39 38 36 40 41 38 38 39 43 47 53 55 57 63 67 68 68 69 70 70 70 69 68 68 70 70 70 69 70 70 70
35 36 33 33 33 36 36 37 39 40 42 42 43 41 40 37 39 40 40 39 40 43 52 54 56 55 56 64 67 67 67 66 65 68 69 70 71 70 70 68 67 71 71 70
36 33 31 33 39 39 39 40 40 40 43 43 44 42 42 41 38 40 40 41 41 42 50 53 55 55 55 55 63 66 67 66 65 64 66 67 67 71 70 65 61 55 57 60

GFSCGP_sfc_30mbdewp_054.txt.gz
Dewpoint
26 22 18 20 25 28 30 32 34 36 38 47 48 49 59 59 58 57 56 54 54 54 58 62 63 64 64 64 64 64 65 66 67 66 66 66 66 67 68 69 70 70 70 70
24 21 20 18 20 27 27 24 31 34 37 46 46 48 58 59 58 58 58 58 58 58 58 61 62 62 64 63 62 63 64 65 66 66 66 66 66 66 67 68 70 70 71 71
22 22 21 19 20 18 24 25 23 31 32 40 45 45 54 59 59 59 59 60 60 60 60 60 61 62 62 63 61 62 63 64 66 66 67 66 66 66 66 66 68 69 70 71
26 26 21 20 20 22 18 24 26 24 25 31 41 36 45 56 58 59 59 59 59 60 61 60 60 61 61 62 62 61 63 63 66 66 66 65 64 63 64 65 66 69 70 71
29 28 25 20 17 22 18 22 24 24 25 26 27 32 34 51 56 57 58 59 59 60 60 60 60 60 62 62 62 62 63 63 64 66 66 65 65 64 64 64 65 67 70 70
22 24 27 26 25 22 26 25 24 26 24 22 24 27 31 45 51 57 58 59 60 59 60 61 60 60 61 62 63 63 63 63 64 66 66 65 65 64 64 64 64 65 68 70
31 24 23 25 24 26 26 23 22 22 24 23 27 25 29 35 47 52 56 58 59 60 59 60 60 60 60 61 62 63 63 63 64 65 66 65 65 65 64 64 64 63 65 68
30 21 26 26 25 25 27 24 21 19 20 23 27 27 29 32 40 51 54 57 58 59 59 59 60 60 60 61 62 63 63 63 64 64 66 66 65 65 65 65 65 64 65 67
30 29 32 32 31 27 27 26 26 25 24 24 26 28 30 33 35 41 47 51 55 58 59 59 60 60 60 61 61 63 63 64 64 64 65 66 66 65 65 66 66 66 66 66
33 29 31 32 32 29 27 29 26 26 22 20 23 25 28 30 33 39 44 48 52 56 57 57 58 59 60 61 62 62 63 63 64 65 65 65 66 66 66 66 66 65 66 67
35 31 30 32 29 23 23 24 29 27 26 21 21 22 27 30 32 32 40 47 51 54 56 55 55 58 60 61 61 61 62 63 64 65 65 65 66 66 67 66 66 66 66 66
37 33 30 29 32 34 33 29 29 27 26 25 24 22 23 28 31 32 32 44 50 53 53 54 55 56 57 60 61 61 62 63 64 65 66 66 66 67 67 67 67 67 66 66
36 32 27 24 27 30 29 29 29 27 25 26 25 25 27 22 22 22 28 36 45 51 53 53 53 55 57 57 59 61 62 63 64 65 66 66 66 67 67 67 67 68 68 67
38 32 30 24 26 29 26 28 28 27 24 25 26 26 24 26 22 21 21 25 32 50 53 54 54 54 56 57 59 61 61 62 63 64 66 66 66 67 67 68 68 68 68 68
34 27 28 30 31 31 28 27 28 26 26 24 23 24 26 25 24 20 25 36 36 31 52 55 55 55 55 57 59 62 62 63 63 64 65 66 67 67 67 68 69 70 68 68
36 27 30 28 29 29 27 26 26 26 27 27 27 23 36 49 48 49 52 54 54 48 36 53 56 56 55 57 58 62 63 64 64 64 64 66 67 67 68 67 68 69 70 70
31 28 29 25 26 25 25 26 29 32 34 33 24 26 40 50 50 50 52 54 56 57 52 36 51 55 55 57 58 61 63 64 65 65 65 66 67 68 68 69 69 68 68 69
30 30 31 26 25 23 33 35 33 31 34 36 36 39 50 50 50 49 47 50 54 58 59 48 45 54 56 57 58 61 63 65 65 65 66 67 67 68 69 70 70 70 69 68
31 32 27 25 27 31 34 36 35 35 31 35 36 37 39 45 48 49 42 44 47 53 61 61 53 55 57 57 58 61 63 64 66 66 66 67 68 68 69 69 70 71 71 70
33 32 29 30 26 30 37 36 38 38 30 34 35 34 38 46 41 37 40 41 45 50 59 65 57 56 57 58 58 61 62 63 65 66 67 68 69 69 69 69 70 71 71 71
29 29 26 27 28 32 36 38 38 31 30 34 36 35 36 38 39 40 40 41 46 50 57 66 64 60 59 59 59 60 62 63 64 66 68 69 70 70 70 70 71 71 71 71
29 28 29 30 29 29 37 37 34 34 36 37 38 38 36 37 40 40 39 42 49 51 54 59 67 67 63 61 60 60 61 62 63 65 67 68 69 70 70 71 71 72 71 71
29 32 29 31 30 37 38 39 39 39 38 39 40 40 39 36 39 41 39 40 50 53 54 55 58 65 67 69 65 63 65 64 64 63 64 66 69 70 70 71 71 71 72 71
35 37 32 33 35 37 39 40 39 40 40 41 43 42 40 37 38 40 41 40 43 49 53 55 54 54 59 66 67 68 70 69 67 66 66 66 66 67 69 70 71 71 71 71
34 35 32 33 37 39 42 43 42 42 42 44 44 43 41 41 38 39 40 42 42 47 50 51 51 50 52 56 65 66 66 66 67 69 70 70 69 69 69 68 68 70 70 70
38 34 32 32 38 40 41 44 45 43 43 44 45 44 43 43 42 40 40 41 44 46 49 47 47 46 47 49 54 62 66 66 64 64 65 66 67 71 69 67 64 56 59 62

GFSCGP_sfc_30mbdewp_057.txt.gz
Dewpoint
26 20 23 19 22 23 28 29 24 40 45 44 44 45 56 58 57 57 57 58 58 58 58 61 62 64 65 66 66 67 67 67 67 66 65 65 65 66 67 69 70 71 71 71
23 17 18 19 20 23 24 28 30 31 38 44 45 44 52 58 57 57 57 57 57 57 57 60 62 63 64 65 66 67 67 67 68 66 66 66 67 67 68 69 70 71 71 72
20 20 21 19 18 19 20 22 27 30 34 37 43 42 46 56 58 58 57 56 56 56 56 59 61 62 63 64 66 67 67 68 68 67 67 68 68 68 67 69 70 71 71 72
29 26 22 19 17 17 14 20 26 28 27 32 39 38 43 49 57 58 58 57 55 55 56 56 60 62 62 64 65 67 67 68 68 69 67 67 64 64 65 67 68 70 71 72
29 28 25 21 20 18 14 16 15 22 28 28 29 37 38 46 53 56 57 58 59 58 57 56 58 60 61 63 65 65 67 68 68 69 68 67 66 65 67 66 68 70 71 72
26 29 29 26 22 20 18 21 18 14 18 25 30 30 33 40 48 53 56 58 59 59 60 60 60 60 61 62 64 64 66 67 68 68 68 68 67 66 66 66 65 66 68 70
29 25 25 27 26 23 21 18 17 17 11 19 28 30 31 36 43 48 54 57 58 59 60 60 61 61 61 62 63 64 66 66 67 67 68 68 68 68 67 67 65 65 65 67
25 14 24 24 25 24 23 21 14 15 9 6 22 27 30 33 34 44 49 53 57 59 59 60 61 62 62 63 64 64 65 66 67 67 68 68 69 66 66 67 64 65 64 65
29 27 32 31 31 25 24 22 21 17 24 16 8 24 30 33 34 35 38 51 55 58 59 59 60 61 62 63 64 65 66 66 66 66 67 68 69 68 66 67 68 66 67 65
28 18 29 31 32 30 26 25 23 22 13 14 14 15 20 30 33 35 36 46 52 56 58 59 60 61 61 62 63 64 65 66 66 66 67 67 68 69 68 68 68 67 67 67
32 25 15 27 29 25 26 25 25 24 22 14 12 15 24 27 34 36 38 41 46 52 57 58 60 61 62 61 62 64 64 66 66 66 66 66 67 67 68 68 68 68 68 68
33 27 20 20 29 33 32 28 24 24 24 25 21 16 27 31 32 34 34 41 44 49 55 57 58 60 61 61 62 62 63 64 65 66 66 67 67 68 67 68 68 69 69 69
34 28 20 6 15 29 28 30 29 26 28 26 22 20 26 30 31 35 36 38 46 51 54 57 57 59 60 62 62 62 63 62 63 65 65 66 66 67 68 68 68 69 69 69
36 30 23 13 16 24 28 28 27 28 23 26 27 26 25 25 30 30 32 33 37 47 52 55 57 58 59 62 63 63 63 62 63 64 64 66 67 67 68 69 69 69 69 69
33 23 23 19 20 22 25 25 27 25 26 25 25 28 30 31 30 30 35 40 41 39 44 54 56 58 59 61 63 64 64 64 63 65 65 66 67 68 68 69 69 69 69 69
35 23 25 20 18 24 23 23 24 24 26 27 28 28 31 39 47 46 51 53 53 53 53 48 56 57 59 61 62 63 64 64 65 66 66 67 68 68 69 69 70 70 69 69
31 28 22 13 24 26 22 23 23 25 32 28 28 30 42 43 50 49 49 50 52 55 56 58 53 56 59 60 62 62 64 65 65 66 67 68 69 69 69 69 70 70 70 69
31 29 26 18 19 20 21 32 28 33 35 36 37 40 44 50 51 48 47 47 49 52 54 57 60 56 59 58 59 62 63 65 65 66 66 68 69 69 69 69 70 70 70 71
29 30 22 18 24 30 33 35 34 34 34 35 37 38 40 44 51 49 43 44 48 52 56 60 62 62 51 59 60 63 64 66 66 66 67 67 68 69 69 70 70 70 69 69
30 31 27 19 24 24 34 37 38 38 34 35 37 38 39 46 46 43 42 44 51 56 60 63 65 61 51 60 61 63 64 66 66 66 67 68 69 69 69 70 70 71 71 70
28 29 25 22 24 28 36 37 38 34 32 36 38 38 38 38 40 41 42 47 55 58 60 66 62 58 61 61 62 64 64 65 66 66 67 69 70 70 70 71 71 71 71 70
25 24 24 25 25 24 37 37 36 36 37 39 40 39 39 39 41 42 42 45 49 52 56 62 65 63 62 62 64 64 65 66 68 68 68 70 70 69 69 71 71 71 71 72
29 32 31 32 32 37 40 40 41 40 39 39 41 41 40 38 39 42 43 44 46 46 45 52 63 65 67 65 64 64 66 67 68 69 70 70 71 70 71 72 71 71 71 70
33 36 32 31 36 38 41 43 42 42 41 41 44 43 42 41 40 41 42 45 46 48 48 45 44 51 60 67 68 69 69 67 67 68 69 70 70 71 71 71 71 70 70 70
34 35 32 33 38 38 39 44 45 45 44 43 45 45 44 44 44 44 43 44 48 49 50 48 46 45 47 54 63 66 67 70 68 67 67 68 68 70 70 70 69 71 71 70
37 36 33 32 40 41 40 43 44 45 45 45 46 46 47 47 46 45 45 45 47 48 49 51 49 47 48 49 53 59 63 68 67 67 69 69 70 69 68 68 66 59 61 63

GFSCGP_sfc_30mbdewp_060.txt.gz
Dewpoint
22 23 19 16 17 15 20 18 19 35 44 45 45 45 52 55 55 56 57 58 57 57 58 59 59 59 59 61 63 64 63 64 65 64 62 62 63 65 66 66 68 70 70 71
20 16 18 19 16 18 17 23 25 24 40 46 44 43 45 54 54 55 57 57 57 57 58 58 60 59 59 61 62 64 64 65 66 63 62 61 63 64 65 66 69 70 70 71
19 17 16 16 19 17 17 15 22 25 30 40 44 42 43 49 54 54 56 57 57 57 57 58 59 59 59 60 63 64 66 66 67 62 63 66 66 67 67 67 67 69 70 71
23 22 20 16 17 16 12 13 13 24 28 29 39 37 41 43 51 54 54 56 56 56 57 57 58 59 59 60 63 65 66 67 67 65 63 66 64 62 62 64 64 66 70 70
25 24 23 20 19 16 14 12 13 14 25 27 31 36 36 41 45 52 53 54 55 56 56 56 58 60 59 60 62 65 67 68 68 68 65 65 65 60 62 63 66 68 71 70
26 29 26 24 23 21 18 15 14 14 9 17 26 31 33 38 41 44 52 53 54 54 55 56 57 59 60 61 61 64 68 69 69 69 67 66 65 63 61 65 65 65 65 68
20 21 26 28 24 24 19 16 15 12 6 -1 15 25 30 34 40 42 46 51 54 56 56 56 56 57 60 61 62 63 67 69 69 68 68 66 66 67 65 66 65 63 62 63
15 11 17 25 26 22 21 18 13 11 7 3 2 14 24 32 36 40 44 49 53 55 56 57 57 57 58 61 62 63 65 69 69 68 69 69 69 66 66 67 64 64 62 62
16 14 25 28 24 26 23 20 19 13 13 9 3 4 17 27 32 36 40 44 48 51 54 57 59 60 60 60 62 64 66 68 68 67 70 70 70 68 64 67 66 64 66 63
18 13 17 26 30 29 27 25 19 18 13 13 13 9 4 25 30 34 36 37 44 48 53 55 58 60 61 61 61 63 64 67 67 66 68 68 68 69 68 67 68 67 65 66
19 16 8 15 23 20 23 24 24 20 18 14 13 11 12 14 22 32 34 37 39 48 53 55 57 59 61 61 61 62 64 65 66 66 67 67 66 67 68 67 68 69 68 67
21 17 14 11 14 29 28 26 24 22 21 19 18 13 17 18 19 27 33 35 37 40 48 53 55 57 59 61 61 61 63 64 65 66 68 67 67 67 66 68 68 69 69 69
25 15 13 10 9 14 19 25 28 24 24 22 20 19 22 25 30 25 28 32 37 40 42 49 52 56 58 60 61 60 61 62 63 65 65 65 66 66 67 68 68 69 69 70
28 15 16 8 12 16 25 28 29 28 24 23 23 24 23 24 26 31 35 35 35 40 46 49 52 54 58 60 62 62 60 60 61 63 64 65 66 66 66 68 69 69 70 70
28 19 17 16 14 13 15 19 23 25 27 25 24 25 28 27 25 28 31 37 39 36 41 47 52 55 58 60 63 64 61 61 61 64 63 65 68 68 68 69 70 70 70 70
29 23 19 17 13 9 7 11 16 19 26 26 27 27 27 32 36 42 40 47 46 45 47 44 51 54 57 59 62 65 65 63 63 65 65 66 69 69 70 70 70 71 71 70
27 23 18 13 10 12 13 16 19 20 24 26 25 28 30 32 37 45 47 46 47 48 51 53 53 51 54 57 60 63 66 65 65 67 67 67 70 70 71 71 71 71 71 71
29 27 21 14 14 6 3 6 16 19 24 26 29 28 32 40 46 49 50 50 51 52 53 54 54 55 55 55 56 61 63 66 67 68 68 69 70 71 71 71 72 72 71 71
27 30 20 14 11 6 17 37 37 37 23 33 35 35 37 41 49 50 51 52 53 56 58 58 58 58 59 58 56 59 62 65 66 68 69 70 70 70 71 71 71 71 71 71
24 27 26 17 18 15 34 37 38 38 33 37 38 38 39 42 41 43 48 50 55 58 60 61 62 63 63 62 57 57 61 63 67 67 69 70 71 71 71 71 72 72 71 70
29 30 26 21 19 21 32 37 40 34 33 39 40 41 42 43 44 45 44 47 49 52 57 62 65 64 63 63 58 59 62 63 66 66 66 69 70 71 71 72 72 72 71 69
25 25 23 22 20 20 38 37 35 39 42 39 41 41 40 42 42 43 44 45 47 48 50 61 66 63 59 57 57 63 65 65 67 67 67 69 70 69 69 72 72 71 71 71
25 28 27 27 25 39 39 40 40 41 42 41 41 42 41 40 41 42 43 45 45 48 48 47 62 68 65 62 61 63 67 67 68 68 69 69 70 70 70 71 71 71 72 69
32 36 33 32 37 38 40 42 45 46 44 44 43 44 43 43 44 44 43 43 45 46 50 49 49 55 65 69 68 65 66 68 68 69 69 70 70 70 69 70 71 70 69 69
32 33 32 32 36 38 40 42 45 46 48 46 46 46 47 47 46 45 45 45 47 48 50 54 52 52 54 62 65 69 69 69 68 69 69 69 70 70 70 70 69 69 69 68
37 35 32 31 38 38 39 42 43 43 43 44 44 44 45 45 46 47 47 48 49 50 52 54 54 54 55 54 57 60 66 70 68 67 67 67 67 69 69 69 70 63 65 64

GFSCGP_sfc_30mbdewp_063.txt.gz
Dewpoint
31 27 19 22 23 19 10 10 17 24 46 44 44 48 55 51 51 54 56 55 56 56 57 57 56 56 56 58 60 61 62 66 65 65 64 62 62 63 65 65 67 68 68 69
20 18 19 18 17 15 12 13 15 20 33 45 44 45 49 50 50 53 55 55 55 56 57 56 56 56 56 58 60 63 64 67 66 64 64 62 63 62 62 62 67 68 68 69
22 17 18 18 17 15 13 13 15 22 23 39 42 44 45 56 50 52 54 56 54 55 56 57 57 56 56 58 60 64 66 67 67 65 64 64 64 64 62 64 66 68 68 69
21 20 18 16 15 17 15 14 13 15 24 25 37 38 47 49 49 50 53 54 55 54 56 57 58 57 56 57 60 64 67 68 68 67 62 64 62 60 60 63 62 66 68 68
21 20 18 18 16 15 16 15 11 9 12 24 28 32 43 47 51 48 50 53 54 55 55 56 58 58 57 57 60 62 68 69 68 68 65 64 65 61 61 60 67 66 70 68
21 25 21 18 20 19 18 15 14 12 9 8 22 27 34 40 42 45 49 51 53 54 55 55 57 58 59 58 59 62 68 70 70 70 68 67 66 64 58 60 64 63 66 68
10 15 22 26 21 20 20 18 14 12 9 6 6 21 28 35 43 44 46 49 52 53 55 55 56 57 59 59 60 62 68 70 71 70 68 68 68 68 67 66 62 62 60 61
8 8 13 16 23 21 19 18 15 13 9 8 6 3 19 30 37 43 45 48 50 52 53 55 56 57 59 60 61 63 67 70 71 70 69 69 69 64 63 65 62 61 59 60
3 5 16 18 16 21 21 19 18 15 14 11 7 4 3 20 29 41 49 46 49 51 52 53 55 56 58 60 62 63 66 70 71 69 71 71 70 66 62 65 68 65 64 61
11 12 17 16 22 24 22 22 18 16 14 13 11 9 5 5 19 28 36 39 45 50 51 53 55 56 57 59 61 63 65 69 70 69 71 71 70 70 68 69 69 67 66 67
15 13 13 6 17 20 19 22 23 21 16 14 14 12 14 9 11 24 30 37 41 47 49 51 53 56 57 58 59 61 64 66 68 69 70 69 69 68 69 70 70 70 69 69
18 15 12 11 8 9 12 14 13 21 21 17 16 14 16 15 13 23 29 33 36 40 45 49 51 55 58 59 59 60 61 63 66 68 69 69 70 68 68 69 69 71 71 71
20 17 15 12 11 12 10 16 21 20 18 21 16 16 19 20 20 17 20 27 34 37 43 48 50 53 56 59 61 60 60 61 63 67 67 68 69 69 67 70 70 71 72 72
24 21 18 11 11 14 13 11 18 20 19 18 21 19 19 23 25 27 25 26 31 37 41 43 47 51 55 58 62 62 60 60 61 63 64 66 68 68 68 69 70 71 72 72
23 19 17 14 14 14 13 15 17 17 25 25 21 23 25 22 24 28 32 33 34 38 39 40 42 49 58 60 63 64 61 62 61 63 63 65 68 69 69 68 70 71 72 72
21 18 21 23 20 14 13 12 14 21 23 26 28 28 29 30 33 26 32 36 44 44 40 40 46 50 53 57 63 64 64 62 62 64 63 64 68 69 69 69 70 71 72 72
25 31 23 20 17 15 11 10 9 10 16 20 22 28 30 30 33 39 38 44 45 45 47 48 49 50 52 56 60 63 65 64 64 65 65 66 68 69 70 70 71 71 72 73
27 29 27 26 19 15 14 6 11 14 12 16 19 23 28 30 33 39 49 49 49 50 50 51 51 51 53 53 56 61 63 66 66 65 68 67 69 70 71 71 71 72 73 73
19 20 27 23 17 15 13 30 34 33 29 15 20 23 26 28 30 36 49 52 53 55 57 57 57 56 55 54 54 57 61 67 67 68 67 69 69 70 72 72 72 73 73 73
20 22 25 18 16 13 17 35 34 37 28 40 25 27 32 34 34 35 48 50 52 53 55 58 60 61 60 60 58 56 58 63 67 68 69 70 70 71 72 73 73 73 74 73
29 30 25 20 19 19 20 31 32 32 33 42 41 42 40 39 44 46 48 50 52 53 54 54 60 65 65 64 61 60 58 61 66 68 69 71 72 72 73 74 74 74 74 71
28 28 24 22 18 16 37 33 28 39 41 41 42 42 43 42 43 44 46 47 47 51 53 54 57 64 69 64 63 65 63 64 66 68 69 71 72 71 72 74 74 74 74 73
25 32 29 27 22 34 39 39 41 41 40 41 43 41 43 43 42 43 44 44 45 48 52 53 54 57 61 68 64 65 65 68 68 69 70 71 72 73 72 73 74 73 73 70
36 36 34 33 28 37 38 41 41 44 46 42 44 43 45 44 46 45 45 44 45 47 50 53 54 56 56 58 63 68 68 68 70 70 71 71 72 72 72 72 72 71 69 70
33 32 32 33 34 35 38 40 41 43 46 46 46 46 46 46 47 48 48 49 48 51 51 52 53 54 55 56 58 60 65 69 68 70 70 70 70 71 71 70 69 69 68 67
37 33 30 31 36 37 39 40 41 42 43 44 43 43 44 45 45 47 49 51 52 52 52 54 54 54 55 55 56 58 59 63 70 69 69 68 68 70 69 69 69 64 66 65

GFSCGP_sfc_30mbdewp_066.txt.gz
Dewpoint
33 31 30 29 24 24 19 13 15 19 23 36 38 52 54 54 55 55 54 56 57 57 57 57 56 54 57 59 61 62 65 69 68 68 67 66 65 67 67 68 70 71 71 71
30 29 30 20 23 23 21 19 11 11 18 38 48 52 53 52 50 56 53 54 56 56 56 57 56 55 56 59 61 65 65 69 68 69 68 66 66 66 66 69 71 70 70 71
21 20 24 21 17 18 16 15 12 12 17 34 37 51 53 51 54 60 56 52 54 56 56 57 57 56 56 60 62 65 66 69 68 68 68 68 68 68 66 70 70 70 70 71
27 24 19 17 17 17 15 15 12 12 13 19 25 37 51 53 57 57 57 52 52 55 56 57 57 57 56 60 64 65 67 70 68 69 66 65 64 64 64 68 69 70 71 71
21 22 21 18 16 17 16 17 15 13 12 13 20 23 41 53 50 55 55 53 51 53 56 57 57 57 57 61 63 66 67 70 68 69 68 67 66 64 66 64 69 70 71 71
17 20 19 18 17 17 16 15 17 16 11 7 10 18 25 47 48 51 56 57 51 51 54 57 58 58 58 60 62 66 68 69 69 69 69 68 65 68 64 64 67 70 71 71
2 11 20 23 18 17 18 16 14 14 12 10 8 6 18 32 48 48 49 56 52 53 54 56 58 59 59 59 61 64 68 69 69 70 67 70 67 67 69 68 67 65 68 68
10 7 5 16 23 19 18 18 16 13 11 10 11 9 9 15 45 51 54 58 58 53 54 55 58 59 60 60 61 63 68 69 70 70 68 69 70 68 68 69 64 67 64 66
10 3 8 10 12 19 21 18 18 15 14 12 11 10 12 10 15 47 48 50 54 56 54 55 58 59 61 61 61 63 67 69 70 69 70 68 70 69 65 67 68 67 67 67
16 11 11 11 15 16 15 18 18 17 14 15 14 14 12 12 11 22 46 54 56 59 57 61 57 58 60 61 62 63 66 69 71 70 71 70 68 70 69 66 69 67 67 65
19 16 11 11 13 14 17 19 20 20 18 15 15 15 17 21 14 16 45 50 51 55 57 63 60 58 59 61 62 63 64 69 71 71 70 70 70 68 68 68 67 69 69 72
19 18 14 10 12 11 8 18 18 20 21 22 17 14 18 19 19 15 18 48 50 55 55 56 57 59 58 60 61 63 64 66 70 71 71 71 71 70 69 66 70 71 72 71
22 19 15 14 14 13 10 8 11 13 15 21 21 17 18 20 21 20 16 21 43 56 57 61 63 61 57 59 61 62 63 64 68 71 71 70 70 71 70 67 68 71 70 72
23 19 19 18 16 18 15 11 10 10 12 12 13 20 24 21 23 28 26 25 29 44 54 55 58 57 58 59 60 61 62 63 65 69 69 70 70 70 70 70 68 70 72 72
20 17 17 17 17 16 15 15 14 13 12 17 17 16 22 29 34 33 43 42 30 31 39 44 52 57 66 61 62 62 62 62 63 65 68 69 70 70 71 69 70 70 70 72
27 19 16 15 16 19 20 18 14 14 15 14 15 18 25 31 39 39 44 50 47 46 46 50 51 55 59 62 63 64 63 63 63 64 66 68 69 70 70 70 70 71 71 72
25 26 26 23 18 15 17 17 16 14 15 17 19 20 27 29 37 38 43 49 53 48 50 52 52 53 60 62 63 65 65 64 64 65 66 67 69 69 70 71 70 71 71 71
21 20 28 24 22 19 18 20 16 14 14 13 15 19 22 25 32 36 39 46 52 54 55 56 55 56 56 65 65 66 66 66 66 65 67 67 68 69 70 70 71 70 71 71
21 19 26 24 17 19 18 19 28 32 27 15 33 33 24 16 21 37 51 55 55 53 54 56 58 59 62 62 60 60 66 66 66 67 66 68 67 69 70 70 71 71 71 72
25 20 26 27 16 16 16 33 32 30 25 40 42 41 41 42 20 44 49 50 51 53 54 55 56 57 63 64 63 61 60 67 66 66 68 68 68 69 70 71 71 71 71 71
27 26 25 26 23 16 27 34 35 26 29 40 41 42 43 43 48 49 47 49 49 50 53 55 56 58 63 65 68 64 63 62 68 68 67 69 71 69 71 72 72 72 72 72
27 26 27 27 28 17 37 32 31 39 40 38 39 41 42 43 45 44 46 47 47 47 51 54 55 57 60 63 64 67 66 65 66 70 69 70 70 72 71 73 73 73 73 73
30 35 32 30 26 37 38 39 40 40 40 41 43 41 43 43 44 46 45 46 46 48 51 53 54 56 57 59 61 63 68 70 67 69 70 70 72 72 71 73 73 74 74 73
33 36 33 32 28 35 36 36 40 41 41 43 46 43 45 45 46 47 46 46 47 49 50 50 53 54 55 57 58 60 64 67 71 68 72 71 73 72 72 72 73 73 73 73
34 34 32 32 34 37 38 39 39 39 41 43 44 45 45 46 45 46 47 48 49 50 51 51 52 54 55 55 56 57 60 64 70 71 71 71 71 72 73 72 73 73 73 73
37 34 31 30 35 36 36 40 39 39 41 43 44 44 44 45 45 46 47 49 51 51 51 52 53 54 54 55 55 57 59 62 67 72 71 71 70 71 72 72 70 64 68 67

GFSCGP_sfc_30mbdewp_069.txt.gz
Dewpoint
33 31 32 34 30 27 26 25 22 19 23 27 47 56 54 53 55 61 61 58 58 59 59 57 55 56 61 62 61 64 65 66 68 67 66 67 67 67 69 71 71 71 72 67
35 31 32 32 30 28 24 23 23 22 18 40 53 53 54 53 58 60 61 58 57 58 58 57 55 56 59 62 61 64 66 67 69 68 68 67 66 68 67 67 70 71 72 70
26 30 32 31 30 22 21 22 21 20 17 41 52 52 53 54 55 59 62 61 58 58 57 57 55 57 59 61 62 63 68 68 69 67 68 69 69 69 68 68 68 71 72 71
28 27 23 27 27 24 17 18 18 15 13 12 36 37 51 51 53 57 61 60 57 57 57 57 55 56 59 60 63 64 69 68 69 68 65 67 65 64 66 68 70 71 70 72
24 25 26 24 22 19 17 19 18 17 15 13 12 14 49 51 51 53 55 54 56 57 56 56 57 55 59 61 63 65 70 68 67 69 66 66 65 66 67 68 69 71 71 71
15 17 18 21 22 20 18 17 17 16 17 15 14 12 48 49 50 51 52 51 57 57 57 57 57 57 59 62 62 66 69 67 67 67 69 65 65 65 66 67 68 69 71 72
10 4 6 13 20 20 18 16 15 14 13 14 15 12 10 51 52 51 50 55 56 57 57 57 57 57 57 61 63 65 67 69 67 67 67 69 66 65 68 68 69 69 70 70
10 9 3 6 16 22 20 17 16 13 14 15 17 13 13 42 53 53 55 54 56 60 59 58 57 57 57 61 63 64 66 67 68 66 66 68 69 66 67 69 69 69 69 69
16 14 16 13 12 20 23 22 20 16 17 16 17 17 16 16 46 52 52 53 60 60 59 60 61 57 58 60 62 65 66 66 68 68 65 67 70 66 67 67 69 69 68 69
19 15 16 16 13 15 19 20 16 19 14 15 17 17 19 22 32 50 49 56 56 57 60 62 64 64 60 58 62 63 67 67 68 68 67 66 68 70 68 67 67 69 66 69
18 18 18 17 12 13 15 16 17 19 20 18 14 16 20 20 25 37 50 56 54 57 59 63 62 64 63 62 60 63 67 67 68 68 69 66 65 70 70 67 66 69 68 70
21 18 17 17 19 17 15 13 12 19 19 22 23 23 24 21 22 43 49 56 55 58 61 60 62 59 60 60 61 61 64 67 68 69 68 69 66 67 68 69 66 67 68 69
23 21 18 18 16 17 19 18 16 12 14 15 16 20 26 31 36 42 48 53 54 55 58 58 58 50 54 59 60 61 62 67 68 69 68 69 69 66 67 66 69 66 70 67
24 21 19 17 18 17 19 19 18 16 10 10 12 16 17 32 33 38 41 52 54 55 55 57 52 56 55 61 64 61 62 65 68 69 70 69 69 69 66 66 65 70 69 72
25 18 18 17 17 16 16 17 19 19 17 15 15 15 17 34 35 40 46 53 55 56 56 58 59 60 63 63 65 65 62 63 67 69 70 70 70 70 70 68 67 64 71 69
29 26 25 26 24 18 15 16 18 20 19 17 15 16 25 25 37 37 42 47 53 55 57 61 60 62 65 62 59 64 63 63 64 68 70 70 70 70 70 70 69 66 66 71
25 26 26 24 26 26 20 19 17 17 19 18 14 16 21 22 23 46 52 52 54 55 55 56 59 63 64 64 65 62 64 64 64 65 69 69 70 70 70 70 70 70 66 67
22 22 25 23 26 18 22 23 22 19 19 38 38 32 41 43 43 49 52 53 53 53 55 56 57 58 63 66 65 65 67 67 66 65 66 68 69 70 70 70 70 70 70 69
27 26 23 23 22 20 19 17 31 31 31 39 39 41 42 45 43 47 50 51 51 50 53 55 57 57 60 65 68 66 62 66 63 66 66 68 69 69 70 69 70 70 70 71
30 30 27 25 24 18 27 31 33 31 27 39 38 40 41 43 43 45 48 50 49 50 51 54 56 57 59 63 64 67 60 57 59 65 67 68 68 69 69 70 69 70 70 69
30 29 25 25 27 25 33 32 32 24 31 40 39 40 41 41 43 45 47 47 48 49 51 54 55 56 57 59 60 63 64 67 68 68 69 69 68 69 69 70 70 70 70 69
31 31 28 27 25 23 39 36 33 38 40 39 40 41 41 42 43 44 47 47 47 49 52 52 52 54 56 57 58 59 61 62 65 67 69 69 70 68 70 70 70 70 70 70
29 32 29 33 33 39 40 39 39 39 39 39 40 41 45 44 44 46 47 47 48 49 51 51 51 53 55 56 56 56 57 60 62 65 69 69 71 69 69 70 70 71 70 70
34 36 32 30 31 35 38 38 39 39 39 39 41 43 44 45 46 45 47 48 48 51 51 51 52 53 53 54 55 55 57 59 60 63 68 71 71 71 69 72 71 71 71 71
34 35 32 32 35 36 37 37 39 39 39 40 41 44 43 44 45 46 46 47 49 51 52 51 52 52 53 54 54 55 56 57 59 61 67 72 70 71 71 71 72 72 72 72
36 33 30 28 35 36 36 38 40 39 39 41 42 42 43 44 44 45 46 47 49 51 53 53 51 50 51 52 53 54 56 56 58 59 66 70 70 72 72 71 69 64 68 71

GFSCGP_sfc_30mbdewp_072.txt.gz
Dewpoint
31 30 30 32 35 33 29 26 25 26 26 23 49 57 59 61 60 61 60 59 57 58 59 57 55 60 60 60 61 64 65 65 66 67 67 66 67 68 70 70 70 71 71 69
33 31 32 33 34 32 29 27 25 24 26 46 56 57 59 60 61 61 60 59 58 58 58 59 54 60 60 60 61 62 65 65 66 67 66 67 67 68 70 70 71 71 70 66
34 35 35 32 31 30 30 27 26 23 39 53 53 53 54 54 59 62 62 61 60 58 58 59 54 60 60 60 62 63 65 65 67 67 67 67 68 68 68 68 69 71 72 69
33 31 26 29 30 30 28 26 21 20 17 14 44 42 51 53 56 61 61 60 61 60 58 59 55 58 61 60 63 64 66 66 67 67 66 66 67 66 66 67 68 70 72 70
20 27 28 27 24 27 27 27 21 18 17 16 24 14 39 52 53 58 61 59 60 60 58 58 56 56 60 61 61 66 67 67 68 67 65 66 65 66 67 67 68 69 71 71
8 13 17 22 24 22 24 21 18 18 17 13 16 14 35 50 51 54 60 61 61 59 58 58 57 57 58 61 61 67 67 66 68 67 65 65 66 65 67 67 69 69 70 71
12 11 9 7 10 20 19 17 14 13 13 12 17 15 14 43 51 52 56 60 59 58 58 57 57 57 58 60 61 65 67 66 67 67 67 65 65 65 66 67 68 68 70 70
13 8 15 16 13 14 22 17 15 12 12 15 18 14 14 23 43 50 52 57 58 57 59 58 57 57 59 59 61 63 66 66 66 67 67 68 66 65 66 68 68 68 69 70
15 12 18 17 17 15 20 21 21 18 18 15 17 18 20 21 33 51 51 54 57 59 58 58 60 58 60 60 61 63 65 65 66 65 65 67 69 67 66 68 69 69 68 69
18 13 19 19 17 18 16 17 16 18 15 14 17 17 17 21 37 43 52 52 56 61 60 60 61 61 61 61 62 62 64 65 66 66 65 64 66 69 67 67 67 69 69 69
20 18 17 15 18 17 16 15 13 19 19 18 17 17 30 36 43 46 51 53 54 60 60 61 63 63 63 62 62 63 63 64 67 67 66 64 64 67 69 67 66 67 69 69
23 18 16 17 20 20 17 19 17 15 12 19 22 20 30 37 41 49 53 50 54 60 59 62 61 62 63 63 62 62 64 64 65 67 67 65 64 65 68 69 66 67 68 69
22 20 17 14 17 19 17 16 18 19 17 13 13 14 21 36 44 51 54 55 56 56 58 59 59 60 62 62 62 62 63 66 65 67 67 67 65 63 65 68 69 66 67 68
25 20 19 17 18 18 16 16 16 19 17 18 16 17 17 23 33 43 53 57 56 55 58 60 58 60 60 59 61 61 62 65 66 66 67 67 67 65 63 65 67 69 66 67
26 18 22 23 25 25 24 23 19 16 18 18 18 17 17 28 27 46 51 55 57 59 60 60 60 60 60 61 60 64 64 64 67 67 67 66 68 68 66 63 65 66 68 67
29 24 27 25 26 25 21 21 22 19 18 18 22 25 43 43 50 52 52 55 56 58 58 59 62 64 64 62 63 64 65 66 67 67 67 68 67 69 69 66 64 65 65 68
24 25 25 23 26 23 18 17 19 20 23 36 34 39 42 43 46 46 49 53 55 57 59 58 59 61 65 66 64 65 65 66 65 67 68 68 69 68 69 70 67 66 65 63
24 23 26 22 24 18 20 22 22 26 37 39 39 40 41 42 44 46 47 50 51 54 56 58 59 61 65 65 65 67 66 66 66 66 67 69 70 70 69 69 70 69 68 65
27 25 23 21 21 22 23 21 19 26 36 38 38 39 40 41 45 44 46 47 47 50 54 57 58 59 62 60 61 64 67 67 65 65 65 67 71 70 70 70 69 70 69 68
29 30 28 25 21 19 24 36 37 33 32 39 40 40 39 40 38 42 45 47 47 49 54 55 56 56 57 58 59 62 64 65 64 65 66 67 69 70 70 70 70 70 70 69
29 31 27 24 25 27 37 38 38 25 28 39 39 40 41 40 42 43 44 47 48 50 52 53 54 54 56 56 57 58 60 61 62 63 64 65 67 69 69 70 71 70 70 69
29 28 28 29 25 24 37 37 33 37 38 38 39 39 40 42 44 45 45 47 48 49 51 52 52 54 55 55 55 55 56 58 60 62 62 64 66 70 69 70 70 70 69 70
29 30 25 30 33 37 39 39 39 38 38 38 37 38 38 40 43 45 46 46 48 50 51 52 52 53 53 54 54 54 55 57 58 60 62 63 65 70 68 69 69 69 69 69
34 35 31 30 31 35 36 37 38 38 36 38 38 38 38 40 43 43 45 46 47 48 50 52 52 52 51 52 53 53 55 56 57 58 60 62 65 70 70 69 69 68 69 68
31 34 30 30 32 34 36 37 38 39 38 38 39 40 41 42 43 44 44 45 46 48 49 52 51 50 50 50 51 52 54 55 56 57 58 61 65 68 71 69 69 69 69 69
35 32 29 25 31 35 35 37 39 39 38 38 38 39 41 42 43 43 43 45 47 47 50 52 51 49 49 49 50 52 53 54 55 55 57 59 61 64 71 71 68 64 66 68

GFSCGP_sfc_30mbdewp_075.txt.gz
Dewpoint
31 27 29 31 34 34 32 29 27 27 27 25 47 54 58 61 61 60 59 58 58 58 59 55 57 59 62 63 64 65 66 65 67 66 66 66 66 68 70 70 70 70 71 70
33 29 31 32 34 34 33 30 28 27 39 40 56 56 58 60 60 61 60 59 58 58 59 55 58 60 60 63 63 65 65 65 67 66 67 66 67 68 69 70 70 71 71 69
31 34 35 33 32 31 31 29 28 27 32 55 54 54 57 58 60 61 62 61 59 57 58 55 58 60 60 62 63 65 64 65 66 66 67 67 68 68 68 69 70 71 70 67
33 35 33 31 31 31 29 30 29 25 18 15 49 45 53 54 56 58 61 61 60 57 57 57 58 59 59 60 62 65 65 65 66 67 65 66 66 66 67 67 68 71 72 69
31 23 30 27 26 30 29 30 27 23 17 16 28 26 44 53 53 57 60 61 61 61 58 58 56 59 60 59 61 63 65 65 66 66 65 65 66 66 66 67 67 69 71 71
12 13 21 25 28 27 27 25 20 19 17 13 15 15 25 51 52 54 60 61 61 61 61 58 56 59 60 60 61 63 64 65 66 66 65 65 65 66 66 66 66 68 69 71
11 13 14 14 8 18 20 18 15 13 13 13 17 14 16 41 50 52 55 60 61 60 60 59 57 57 59 60 61 63 65 64 66 66 65 65 65 65 65 66 67 67 69 70
10 10 16 18 14 13 20 18 15 11 12 14 18 13 16 22 31 45 53 57 60 60 61 59 58 55 58 60 60 64 65 64 66 66 66 65 65 65 65 66 67 68 69 69
14 13 19 18 18 17 19 20 21 17 18 15 16 18 21 38 44 49 51 55 60 61 60 60 59 56 57 60 60 63 65 64 65 66 66 66 65 65 65 67 68 68 69 70
18 10 18 19 17 18 16 16 16 18 15 14 17 22 31 38 44 49 52 53 57 60 59 59 60 58 58 59 60 61 64 65 65 65 66 66 66 67 66 66 67 69 69 69
20 16 14 17 18 17 17 17 16 18 20 16 15 24 28 39 45 52 54 55 54 58 59 59 60 60 60 59 59 61 62 64 65 65 65 65 65 68 68 66 66 67 69 69
23 19 16 18 20 19 17 16 17 15 14 16 22 20 21 23 36 50 55 56 56 58 60 60 61 62 62 60 60 60 62 63 64 65 65 64 64 65 67 67 67 67 67 68
22 20 14 15 16 19 17 17 18 18 17 17 15 16 20 34 32 46 54 57 58 58 61 62 63 63 63 62 62 62 61 63 64 65 65 64 64 64 64 67 68 67 67 67
25 20 18 15 18 20 22 23 19 17 16 17 17 18 33 42 46 51 54 56 59 60 60 61 60 61 61 60 61 62 63 63 63 65 66 65 64 64 63 64 67 68 67 67
21 21 24 24 25 24 24 22 22 19 18 16 18 19 39 43 46 48 52 55 58 57 58 60 62 63 63 63 61 61 63 64 65 64 66 66 66 65 63 63 64 67 68 66
27 26 26 23 26 23 21 21 20 19 20 19 25 27 41 43 46 46 48 51 54 56 58 59 60 64 65 65 64 63 64 65 66 65 65 66 67 67 65 63 63 64 66 67
24 24 23 20 26 21 12 18 19 22 30 27 27 38 41 41 44 45 46 46 48 50 56 57 58 60 63 63 64 65 65 65 65 66 66 66 67 67 68 66 64 63 64 64
24 24 25 21 22 13 17 24 25 36 38 39 39 39 39 40 43 44 46 46 46 49 54 55 56 56 59 60 60 63 67 66 66 65 66 67 68 67 68 69 67 65 64 64
26 24 23 20 21 21 22 27 31 31 34 39 38 39 39 39 41 44 43 45 47 49 52 53 54 55 56 57 58 61 65 66 66 66 65 67 69 69 68 68 69 69 67 65
32 30 25 24 20 17 22 35 38 37 29 39 39 39 39 39 38 43 44 45 47 49 51 51 53 53 54 55 56 58 59 61 61 63 66 67 68 70 70 69 69 69 70 68
28 30 26 25 24 25 36 37 38 25 27 38 39 39 38 38 40 42 44 45 48 49 51 52 52 53 53 54 54 55 57 57 59 60 62 64 65 67 68 70 71 70 70 70
25 26 26 28 26 22 37 36 31 36 37 38 38 37 37 38 38 39 42 45 46 47 50 51 52 52 54 53 52 52 53 55 57 58 60 62 64 65 68 70 70 71 70 70
26 30 25 28 27 38 39 38 39 39 37 36 37 37 38 37 37 38 40 43 45 47 48 50 52 52 52 52 51 49 51 54 55 57 57 59 62 64 66 69 69 70 71 70
31 34 30 28 27 32 33 36 37 37 37 38 36 36 38 38 39 39 41 43 45 46 47 49 51 52 50 50 50 51 51 53 53 55 56 57 60 62 65 68 71 70 70 70
30 34 30 29 29 31 34 36 38 37 39 38 38 38 37 38 38 40 41 43 44 45 46 48 50 51 49 49 49 50 52 51 52 53 53 56 59 60 62 65 71 70 70 70
33 32 28 24 28 29 31 35 36 38 37 39 39 40 40 39 40 41 41 42 43 43 45 47 50 50 49 48 48 49 50 51 51 50 52 54 56 58 60 63 69 66 67 69

GFSCGP_sfc_30mbdewp_081.txt.gz
Dewpoint
26 30 29 38 38 34 32 30 28 28 37 40 42 45 54 61 60 61 59 59 58 58 60 62 62 63 62 63 63 66 68 68 68 68 66 67 67 69 70 70 71 70 72 72
24 25 32 37 35 35 34 33 30 29 45 35 51 53 55 57 58 60 60 59 59 59 59 60 61 62 61 62 64 66 67 69 69 68 67 68 68 69 70 71 71 70 71 72
21 26 34 34 33 35 34 34 31 28 30 53 51 51 55 59 60 61 61 60 59 59 59 60 60 60 62 62 63 65 67 68 69 69 69 69 70 70 70 70 70 71 72 72
26 34 35 31 32 34 34 33 32 30 25 18 49 28 52 56 58 58 61 61 60 59 60 60 59 60 60 62 64 66 67 68 69 70 68 68 66 65 66 68 70 70 72 71
30 34 37 36 34 33 33 32 31 30 25 20 33 32 31 54 54 55 56 59 62 60 59 59 59 59 59 61 63 65 67 68 68 69 69 68 67 66 67 68 69 70 72 72
21 23 31 33 32 32 30 24 22 21 20 17 21 28 36 41 45 49 53 56 58 62 60 59 60 60 60 61 62 64 66 68 68 69 69 69 68 67 67 68 68 68 70 71
14 16 17 18 26 29 27 24 19 19 17 16 20 26 40 43 47 52 53 53 54 59 61 59 59 59 61 61 62 63 66 67 67 68 68 69 69 69 69 69 67 68 68 69
19 14 17 19 18 22 26 24 18 17 16 15 20 27 34 29 37 45 54 56 56 58 60 61 59 59 61 61 62 63 65 66 67 67 68 69 69 67 67 69 67 67 67 68
15 14 19 19 19 20 21 20 20 17 19 15 18 28 33 35 44 49 55 57 58 58 60 61 61 59 61 61 62 63 65 66 66 66 68 68 69 68 67 68 69 68 69 68
18 14 19 18 18 19 21 20 19 20 16 13 25 26 24 39 47 52 54 56 59 59 59 62 62 60 60 61 62 63 64 65 66 66 67 67 67 68 68 68 69 69 69 70
19 16 18 19 18 18 18 18 21 21 20 16 20 22 35 46 50 50 53 57 59 61 59 61 62 63 62 61 61 62 63 64 65 65 67 67 66 66 67 67 68 69 69 70
23 19 16 17 19 21 19 19 19 19 20 22 21 20 43 48 50 50 52 57 59 61 63 63 62 63 61 61 61 61 62 62 63 65 66 67 67 67 66 67 67 68 69 70
23 19 15 15 17 20 20 20 19 18 20 23 17 18 43 48 49 50 51 55 56 57 58 59 64 64 63 61 61 61 62 62 63 64 65 66 66 67 66 66 67 67 68 68
25 21 18 9 18 21 18 17 19 17 17 20 20 21 36 45 47 48 51 53 53 53 54 55 56 60 61 65 65 64 64 64 63 64 64 64 66 66 67 67 68 67 68 67
25 23 24 24 23 21 20 18 17 16 19 17 20 23 38 45 46 47 49 51 51 51 51 53 54 55 58 58 60 64 65 65 64 63 64 64 66 66 67 67 68 68 68 68
28 25 25 24 24 22 19 20 19 18 17 19 20 27 41 45 46 46 46 48 48 49 50 50 51 53 54 55 56 60 63 66 67 65 64 65 66 67 67 67 67 68 68 68
26 26 25 20 24 19 13 17 18 20 25 22 14 31 40 41 42 43 45 45 46 47 49 51 50 51 53 54 54 57 61 64 67 67 66 67 67 67 67 67 67 67 67 67
26 26 26 22 21 9 18 24 26 23 32 37 38 39 39 39 37 42 41 41 43 46 48 49 50 50 52 53 54 54 59 60 62 67 67 68 67 67 68 68 67 67 67 67
28 26 26 21 15 19 20 31 32 29 27 39 39 39 38 38 36 42 41 39 38 40 44 46 48 49 50 52 54 53 53 56 57 59 62 63 65 68 68 68 68 68 67 67
30 29 25 25 19 12 22 35 37 37 24 38 39 38 37 37 31 37 38 37 37 37 39 41 44 47 48 50 52 53 51 51 53 55 58 61 64 65 65 69 69 69 69 68
30 31 26 25 22 22 30 35 38 23 27 38 38 38 37 36 36 38 38 38 38 38 39 40 41 43 45 48 51 51 52 50 51 54 56 59 61 63 65 66 67 70 70 70
27 27 27 29 25 19 35 35 31 35 37 37 36 36 35 36 36 36 37 37 37 38 38 39 40 41 43 45 48 50 50 52 52 52 54 56 58 61 63 64 65 66 68 70
26 29 31 30 28 37 38 34 36 36 35 36 36 36 35 34 35 35 36 36 37 38 38 39 39 41 42 43 46 49 50 52 52 52 52 54 56 57 61 62 63 65 67 68
33 33 32 28 28 35 36 35 36 37 36 36 36 36 36 35 35 35 36 36 37 38 39 39 39 41 41 42 44 46 50 52 51 51 51 51 52 53 57 62 62 64 66 66
33 35 34 31 29 32 33 33 34 36 36 36 37 35 36 37 36 37 37 38 38 37 40 40 40 40 40 42 43 45 49 51 50 49 49 50 50 52 54 58 60 62 64 65
33 34 30 28 32 30 32 33 36 36 36 37 36 36 39 39 38 37 36 38 40 40 40 43 43 42 41 40 41 43 49 51 49 48 47 47 48 49 51 55 57 59 60 60

GFSCGP_sfc_30mbdewp_084.txt.gz
Dewpoint
22 24 21 26 29 37 36 35 35 44 49 42 40 48 57 61 61 58 58 57 56 52 55 59 60 59 57 58 60 64 65 66 67 67 65 66 66 67 67 67 69 69 69 70
20 21 19 30 36 37 36 33 30 35 36 31 37 38 54 60 59 60 59 58 56 53 56 59 60 60 59 58 59 63 65 67 67 65 65 65 66 66 68 69 70 69 69 69
17 18 27 33 38 34 35 33 30 31 32 39 41 44 47 54 58 59 60 59 58 54 54 59 59 59 59 56 60 63 66 67 68 66 68 70 69 69 68 68 68 69 70 70
18 27 28 31 33 33 30 37 32 28 25 33 40 42 50 52 56 58 59 60 59 58 57 57 59 60 59 58 59 62 66 67 68 69 67 67 64 62 63 65 66 69 70 70
21 25 31 31 31 32 29 35 34 30 26 22 29 31 46 54 53 56 57 60 60 59 58 58 58 60 59 60 60 61 65 67 67 69 68 67 67 63 64 64 68 69 71 71
28 26 34 33 34 34 33 31 31 30 26 22 23 28 37 43 48 49 51 54 59 60 59 59 58 59 59 59 61 62 65 68 69 69 70 69 66 65 64 66 66 66 67 69
23 28 26 28 35 34 30 25 22 25 22 18 22 26 40 42 42 48 52 53 52 60 61 59 59 59 59 59 60 62 64 68 68 68 69 69 69 68 67 66 65 64 64 65
16 17 21 20 26 30 28 23 17 19 17 17 23 28 32 40 47 52 55 56 55 54 59 61 60 59 59 60 60 62 63 67 68 68 68 69 70 68 67 65 62 65 64 65
20 16 18 19 19 23 26 24 20 16 18 15 20 32 34 41 47 52 57 58 58 57 55 59 61 60 60 60 62 63 64 67 67 67 68 69 70 69 65 64 66 65 65 65
21 17 17 17 18 20 24 26 20 17 16 15 19 30 31 42 47 53 56 58 60 59 58 60 60 60 60 60 61 63 64 66 67 67 67 68 68 69 69 67 67 66 64 67
18 18 17 18 19 18 20 21 21 18 17 14 20 23 38 46 50 52 55 57 59 61 61 61 62 62 61 61 61 62 63 65 66 66 66 66 66 67 69 68 67 67 67 67
21 18 16 17 19 21 20 22 23 19 19 19 17 26 42 47 49 51 54 55 56 58 61 61 62 64 63 63 61 61 62 62 64 65 67 66 67 67 66 67 67 67 68 68
23 17 16 14 16 20 20 20 22 21 22 18 15 27 42 47 49 52 53 54 53 54 56 56 59 61 62 64 65 62 62 62 62 64 65 66 66 67 68 66 67 67 67 68
25 19 20 13 17 19 17 18 19 20 18 20 20 34 41 44 46 50 52 52 52 51 52 53 54 55 56 60 64 65 66 63 62 62 64 65 66 66 67 68 66 67 68 68
24 22 22 21 19 18 16 13 15 20 22 21 24 31 39 43 45 47 50 51 51 52 51 51 52 53 54 56 57 61 64 66 67 64 64 64 66 67 67 68 68 66 67 68
25 24 22 20 20 18 15 16 15 16 19 22 25 34 41 44 45 45 47 48 49 50 51 51 50 51 51 52 53 56 61 63 66 67 67 65 66 66 67 68 68 68 67 68
25 24 22 14 19 16 10 14 13 15 18 19 21 33 39 40 42 43 44 45 46 48 49 49 49 50 51 51 52 53 57 58 61 63 67 67 68 67 68 68 68 68 68 67
25 25 21 16 19 5 20 23 18 15 25 26 30 33 35 38 39 42 42 41 41 40 42 45 46 47 49 50 52 53 52 55 56 57 59 62 66 68 68 68 69 68 68 68
27 23 20 18 11 17 19 23 21 19 26 32 32 35 35 37 37 42 41 41 40 40 39 39 40 42 46 48 49 52 52 52 53 54 55 57 60 63 66 69 69 69 69 69
25 28 23 18 19 11 21 31 32 27 20 36 35 36 36 36 27 40 40 39 39 39 39 40 40 40 41 44 44 47 50 51 52 52 54 56 58 61 62 66 69 70 70 69
26 25 22 20 20 18 29 32 33 19 30 37 36 37 36 32 35 38 38 38 38 38 39 40 40 40 42 43 43 45 47 48 52 53 53 54 57 58 59 62 65 68 70 71
28 27 25 24 22 20 32 32 26 36 37 36 35 36 35 36 36 36 36 37 37 38 38 39 39 39 41 43 43 44 46 49 51 52 53 53 53 55 58 61 63 64 67 68
27 28 29 26 27 36 34 34 38 35 31 34 33 33 35 34 34 35 35 36 37 37 38 38 39 40 41 42 44 45 46 48 50 51 51 52 53 52 53 55 59 63 65 66
29 32 29 30 28 35 33 31 32 32 32 33 34 34 34 34 35 35 36 36 37 38 39 39 40 40 41 42 43 44 45 46 48 50 50 49 50 51 51 52 52 58 63 64
34 34 34 33 29 32 33 32 33 34 35 33 34 33 33 35 35 36 35 36 37 38 39 40 42 43 44 45 44 43 43 45 45 48 48 47 45 48 50 49 50 52 55 60
32 34 34 33 31 28 29 33 34 35 35 35 34 33 35 36 36 36 35 37 38 38 39 40 42 42 43 44 45 46 45 44 45 48 46 44 45 45 46 48 48 51 54 56

GFSCGP_sfc_30mbdewp_087.txt.gz
Dewpoint
21 21 21 24 26 31 31 33 37 50 45 46 48 51 58 59 60 58 57 55 55 54 53 53 54 54 54 58 62 63 63 64 65 65 63 67 65 68 68 69 68 68 69 68
18 17 19 19 22 28 33 31 32 44 44 41 42 48 56 57 56 58 57 57 56 54 51 54 56 54 53 56 59 63 64 66 67 65 65 63 68 68 65 67 67 69 67 68
18 17 17 17 22 30 34 31 33 34 36 33 35 46 53 58 57 58 58 58 57 54 50 57 58 57 55 56 58 62 64 66 66 64 65 66 67 69 64 67 66 67 68 68
19 18 19 19 29 31 29 31 30 31 33 32 37 36 47 54 56 57 57 59 58 56 54 57 59 59 55 54 57 62 65 66 66 67 66 67 63 62 65 66 68 67 67 69
18 18 20 24 29 29 24 33 31 29 29 31 34 43 51 52 54 56 58 59 58 58 54 57 58 59 57 55 58 62 66 67 67 68 70 67 67 66 68 69 69 68 70 69
18 19 24 24 27 27 31 30 33 30 27 23 24 34 49 46 49 50 55 59 59 60 59 57 58 60 59 55 57 60 65 68 68 68 69 69 66 66 67 65 64 64 66 68
26 22 27 30 28 29 32 30 27 26 23 20 20 30 45 44 47 48 51 53 55 59 60 59 59 59 60 56 56 59 64 68 68 68 68 69 68 67 67 67 65 67 64 65
21 21 28 32 31 29 29 27 23 20 19 16 19 31 37 43 49 51 55 55 54 53 58 60 59 60 60 59 56 59 63 67 69 68 69 70 70 68 65 66 66 62 66 63
17 18 22 25 29 27 29 24 18 15 17 14 25 36 41 46 49 55 57 59 60 54 56 59 61 62 60 60 59 59 62 66 68 68 69 70 70 70 64 65 66 65 65 68
23 18 18 17 21 24 25 26 20 17 15 13 26 32 34 43 48 54 57 59 61 60 56 59 60 62 66 61 60 60 62 65 68 68 68 69 69 70 69 66 65 64 65 64
21 20 18 18 18 22 23 24 23 19 16 15 24 31 40 46 51 54 56 57 59 62 63 64 66 67 66 61 61 62 62 64 66 68 67 67 68 68 70 68 67 67 66 67
22 19 18 16 20 21 21 22 23 20 17 15 22 34 45 46 51 54 54 55 57 59 60 61 63 65 67 67 66 67 63 62 64 66 67 67 67 67 67 69 68 68 68 67
21 17 17 17 18 19 19 20 23 20 19 20 16 35 45 46 49 53 53 54 54 56 57 57 58 59 60 63 66 66 67 67 65 64 65 66 67 67 67 67 68 68 68 68
28 18 18 18 17 16 18 20 21 21 20 20 24 39 43 45 50 52 53 53 52 52 54 54 55 56 58 59 62 64 64 66 67 67 66 64 67 67 67 68 68 67 69 69
21 17 20 20 17 18 19 18 18 19 20 20 35 38 41 43 47 50 51 51 52 52 52 52 52 53 54 55 57 60 62 64 66 68 67 67 66 67 68 68 69 69 69 69
22 20 21 18 17 14 14 14 15 18 21 22 31 39 42 44 45 46 48 49 50 50 51 51 51 52 52 54 55 56 57 59 63 64 65 68 70 70 69 68 69 69 69 70
25 20 22 14 17 13 10 13 14 14 19 21 30 39 41 42 42 43 45 46 46 47 48 48 48 49 50 51 53 55 56 56 57 58 59 62 65 66 68 70 70 70 70 70
26 26 22 17 21 14 16 20 13 14 18 26 36 39 40 40 41 41 41 42 42 42 42 43 42 44 47 48 49 53 53 57 57 57 57 58 61 63 65 67 70 70 71 70
22 25 19 15 16 16 19 22 16 14 22 25 32 35 37 36 39 40 40 41 42 41 41 42 42 42 44 46 45 47 50 52 53 54 56 58 58 59 61 64 65 69 71 70
20 26 21 19 15 10 19 23 28 19 20 30 32 32 32 32 28 40 41 39 39 39 40 41 41 41 42 44 43 45 45 48 51 52 54 55 58 58 58 59 61 64 68 70
23 23 20 19 18 19 29 29 26 17 28 34 31 34 32 30 39 40 39 38 38 38 39 40 40 40 42 43 44 45 46 47 50 51 52 53 55 56 59 60 61 62 63 66
25 25 22 21 20 19 31 28 22 36 36 35 35 35 34 35 35 35 36 37 38 38 38 39 39 40 42 42 43 44 46 48 49 50 51 52 53 55 54 55 59 62 63 64
27 26 28 24 31 37 33 33 38 36 36 35 33 33 34 33 33 34 35 37 37 38 39 39 39 40 42 43 44 45 46 47 48 49 50 51 52 51 53 53 54 54 60 62
28 31 30 31 32 35 34 34 33 30 31 31 32 31 32 32 33 34 35 36 37 38 39 39 40 41 43 44 45 46 46 46 46 47 48 48 49 48 48 51 50 48 49 53
33 33 31 30 31 33 34 30 30 31 32 31 32 32 33 33 34 34 35 37 37 38 39 40 40 41 42 42 43 45 45 46 46 45 45 45 46 45 45 47 47 49 49 50
29 33 34 35 32 31 29 34 33 33 33 33 32 32 34 35 35 36 35 37 38 38 39 39 40 41 41 42 43 44 46 48 49 47 44 43 44 44 43 43 42 46 48 49

GFSCGP_sfc_30mbdewp_090.txt.gz
Dewpoint
27 22 21 23 30 34 34 35 41 45 51 50 53 55 56 58 55 52 52 52 51 52 53 52 51 52 57 61 64 64 66 67 68 67 67 67 67 70 69 68 68 70 69 71
21 16 20 22 24 30 33 30 43 47 46 55 53 54 56 58 58 58 57 53 54 53 53 52 52 51 55 61 64 66 68 68 69 67 69 69 70 69 70 70 70 70 70 69
19 15 16 18 19 20 26 29 40 42 45 51 54 55 54 57 59 58 57 56 55 55 54 53 54 53 54 61 64 66 69 69 69 69 69 69 69 66 68 70 70 70 69 69
19 16 15 16 15 17 21 31 39 46 35 38 45 47 52 56 57 58 58 58 57 56 57 55 55 55 54 59 62 67 69 69 68 70 69 68 67 67 68 68 69 70 70 69
17 17 15 15 15 20 24 33 37 37 31 28 31 43 51 50 52 55 58 58 58 58 56 55 57 58 57 59 60 66 68 70 68 69 70 68 67 67 67 69 68 69 71 70
17 17 17 19 19 28 28 26 32 33 28 26 35 34 49 51 50 54 55 57 57 58 55 57 58 59 60 56 58 65 69 70 71 70 70 68 68 67 67 69 69 69 70 70
19 16 17 20 22 26 25 26 28 26 24 22 30 32 49 53 55 55 57 57 58 59 58 56 59 59 59 57 60 66 69 70 70 71 70 71 69 69 67 67 66 68 67 68
16 21 17 22 22 24 24 28 25 22 21 20 22 38 45 50 58 58 55 57 58 58 60 58 58 60 61 61 60 64 69 70 70 70 71 72 72 70 69 69 69 65 69 70
18 19 19 26 30 32 24 26 26 22 21 18 33 40 46 52 54 56 57 60 61 62 61 60 58 60 61 60 59 62 69 70 71 70 72 72 73 72 67 67 69 68 70 69
25 23 24 26 26 30 29 26 24 23 18 16 33 39 42 48 53 55 57 58 61 62 65 65 66 63 62 64 66 64 68 70 71 70 71 72 72 73 73 72 68 69 69 65
24 25 19 19 23 25 26 25 25 23 19 17 30 36 44 49 53 54 56 58 58 60 63 65 66 67 67 67 66 67 68 69 70 71 71 71 71 72 73 72 70 69 69 70
24 22 20 16 16 19 24 24 24 23 23 31 40 43 50 52 54 55 56 57 58 58 59 62 61 64 65 65 67 67 69 68 69 70 71 71 71 71 72 72 71 71 71 71
27 20 19 17 17 18 19 21 21 22 23 27 29 38 51 52 54 54 54 54 56 57 58 59 60 61 62 63 63 66 67 68 69 69 70 70 70 71 70 72 72 72 72 72
27 20 24 24 19 17 17 19 20 21 20 23 37 41 49 51 51 53 53 53 53 54 55 56 57 58 59 60 62 63 65 66 69 69 70 70 70 69 69 71 72 72 72 72
20 18 21 26 19 17 16 16 17 19 22 38 42 42 48 50 50 52 53 53 52 52 53 54 55 56 56 57 58 61 61 63 65 66 66 69 70 71 70 71 71 71 72 72
20 19 22 21 18 16 17 16 17 17 18 31 43 45 49 49 50 50 51 50 50 50 50 51 52 52 54 56 56 57 57 60 62 62 63 66 68 69 70 71 71 71 71 72
22 19 18 20 19 16 14 15 15 15 19 37 41 45 46 46 46 47 47 48 48 48 46 46 48 49 49 50 55 57 57 57 58 59 60 62 64 65 66 68 70 72 71 72
27 25 24 21 18 16 18 18 15 15 16 34 41 44 43 43 43 43 44 43 43 44 44 43 44 46 47 47 48 52 56 58 58 58 58 60 60 61 62 64 66 67 69 72
22 25 21 19 20 20 19 21 13 14 17 34 41 42 42 42 41 41 41 42 42 42 42 42 42 43 47 45 47 49 51 54 54 55 57 59 60 60 60 60 62 64 66 68
18 21 24 21 17 16 22 21 21 14 16 26 37 39 39 40 38 39 39 39 39 39 40 41 41 41 43 44 45 47 47 49 52 53 54 56 58 58 59 60 60 62 64 65
20 21 19 20 19 21 27 27 23 14 22 28 33 34 34 36 41 41 41 40 39 39 39 40 41 41 43 44 44 46 47 49 50 52 53 55 56 57 57 59 61 62 62 64
23 23 21 19 18 18 30 26 22 37 36 32 34 34 39 39 40 38 38 38 38 38 39 39 40 41 43 44 45 46 48 50 51 51 52 53 55 55 54 57 58 59 61 63
28 29 30 31 32 34 33 36 38 36 36 36 36 35 35 35 35 36 36 37 38 39 41 40 40 41 43 47 48 47 50 51 51 50 51 52 53 54 55 55 54 56 54 62
29 29 31 33 36 37 35 37 37 36 36 35 34 34 33 32 34 36 37 37 38 39 39 40 41 42 43 44 45 46 48 49 51 50 51 50 50 49 51 52 50 50 50 51
35 32 31 32 32 34 35 33 31 31 32 31 31 31 31 33 33 35 36 38 37 38 39 40 41 41 42 43 44 44 46 48 47 49 50 49 47 47 48 50 49 48 49 50
33 29 33 35 33 33 33 33 32 31 30 31 31 32 33 34 35 36 37 38 39 39 39 40 41 41 42 42 43 44 44 45 45 45 45 47 47 47 47 47 47 47 44 44

GFSCGP_sfc_30mbdewp_093.txt.gz
Dewpoint
28 25 24 25 26 26 33 39 43 50 52 52 55 56 58 59 56 53 52 50 50 50 51 53 57 61 63 61 63 64 63 68 66 69 67 68 67 68 68 68 68 70 69 67
26 24 26 23 24 25 30 32 50 53 54 50 56 55 57 58 55 53 53 51 51 51 51 52 56 60 63 62 63 67 64 67 65 68 69 69 69 70 70 69 68 70 70 70
25 24 26 18 20 22 26 25 46 46 53 56 52 51 55 57 55 57 57 54 52 53 52 53 52 60 62 63 64 67 67 67 68 69 69 69 68 66 68 68 69 71 70 70
23 24 20 15 16 19 19 25 37 48 46 43 48 44 47 54 56 57 56 56 55 53 54 52 51 58 62 63 65 69 68 66 67 70 67 65 64 64 66 68 70 69 69 70
20 19 19 14 15 17 16 39 43 44 43 48 49 45 50 54 53 54 55 57 56 55 56 52 55 56 61 64 65 69 68 66 66 69 69 66 64 67 68 69 69 70 70 70
19 19 19 17 16 16 18 30 38 41 40 35 44 46 50 53 54 56 57 58 58 57 57 57 57 56 61 63 65 67 70 67 67 68 69 68 66 65 67 67 68 69 70 70
16 16 18 17 18 19 21 26 26 34 35 32 34 44 50 53 54 57 57 57 59 60 57 57 59 58 59 60 65 67 69 70 69 69 69 68 68 66 67 67 67 68 69 70
18 15 19 19 19 22 23 26 25 29 26 26 33 43 46 54 54 58 60 61 61 61 61 60 59 59 60 59 64 66 68 69 69 70 69 69 69 69 67 68 66 69 69 68
26 18 20 19 21 21 27 25 25 26 26 23 41 47 50 51 52 56 59 56 61 64 63 62 62 59 60 59 63 66 68 69 69 71 70 71 70 69 69 69 70 68 70 72
29 24 25 18 26 31 32 31 25 25 23 25 42 44 47 52 54 58 59 60 61 63 62 64 65 66 66 67 65 67 69 70 70 69 71 71 71 70 70 71 70 70 69 70
28 26 26 25 26 28 29 28 27 26 26 26 36 42 54 54 55 56 58 58 60 61 63 65 65 66 66 68 68 67 67 68 69 70 71 71 71 71 71 71 71 70 68 69
30 26 24 21 20 28 27 27 27 26 26 35 41 45 56 55 56 56 57 58 59 60 61 63 64 65 65 66 67 67 67 68 69 69 70 71 72 72 71 71 72 70 69 69
26 26 25 24 17 17 18 23 21 22 26 30 31 45 57 56 54 55 55 57 57 58 60 60 61 62 63 64 65 67 67 67 68 68 69 70 72 71 70 71 72 72 72 70
33 23 30 27 25 19 18 19 21 22 26 35 38 49 52 53 52 53 54 55 56 56 57 58 58 58 61 61 62 63 65 67 67 67 67 68 69 70 71 72 72 72 72 72
24 24 24 26 27 17 17 16 19 21 37 31 41 47 51 52 52 53 53 53 53 55 55 56 56 57 57 59 59 60 63 64 65 66 66 66 68 69 67 69 71 71 71 72
23 24 24 22 21 18 15 17 16 18 40 39 44 49 52 53 53 52 52 52 51 52 52 53 55 56 56 56 57 59 60 62 62 63 65 66 66 67 66 67 69 71 70 71
24 26 23 18 24 21 15 17 16 16 39 44 45 51 53 50 50 49 49 48 47 47 48 49 49 48 49 56 57 57 58 59 60 61 61 62 64 63 64 66 67 67 68 72
27 28 28 24 25 18 20 22 19 16 38 47 51 52 51 50 49 47 45 46 45 45 44 46 48 48 48 49 51 59 59 60 59 60 60 61 61 61 61 61 63 64 66 67
22 25 26 22 21 22 23 22 18 25 42 49 49 49 43 43 43 43 44 44 44 44 42 42 47 47 47 48 48 51 55 54 54 54 56 59 59 59 61 60 61 62 64 65
21 28 23 25 25 20 25 26 25 24 40 44 43 42 41 41 39 40 41 41 41 42 41 42 45 46 46 46 48 49 52 52 52 53 53 56 57 56 59 60 60 62 62 62
21 23 21 21 25 26 28 25 23 17 32 45 45 43 42 41 42 41 41 41 41 42 41 42 45 45 47 49 49 50 51 51 51 51 52 54 54 56 55 57 58 57 58 61
29 24 24 23 21 25 34 28 31 39 39 41 43 43 42 42 42 41 41 39 40 41 42 43 44 47 48 47 48 48 48 50 51 52 52 51 52 52 54 55 57 57 55 56
29 33 33 36 35 38 40 39 39 39 39 38 40 40 40 39 39 39 39 41 42 42 42 42 43 45 46 46 46 46 49 49 49 50 51 53 52 52 52 52 51 52 53 54
33 34 32 36 38 37 38 39 38 37 36 36 36 35 36 37 37 39 40 41 40 40 41 43 43 43 45 45 45 45 46 47 46 46 47 48 49 49 50 51 52 52 51 50
37 36 33 35 38 37 36 36 34 36 35 35 34 33 36 37 38 39 39 39 40 41 41 42 42 43 43 44 45 44 44 46 44 44 44 45 46 46 46 48 48 49 49 47
42 40 38 36 37 36 38 35 33 33 33 32 32 34 35 37 37 40 40 41 40 41 42 42 42 43 44 43 42 44 43 44 45 44 44 44 43 44 45 46 46 47 47 47

GFSCGP_sfc_30mbdewp_096.txt.gz
Dewpoint
33 26 24 25 26 26 26 26 50 54 58 53 55 54 58 59 58 55 51 51 51 55 56 59 61 62 63 63 61 64 66 68 68 67 67 67 67 68 69 69 70 70 69 66
28 24 25 26 25 25 25 28 51 54 56 55 53 56 57 58 58 57 52 51 50 52 55 59 60 61 62 63 61 64 67 67 68 68 68 69 69 69 69 69 68 70 68 66
27 25 26 26 25 22 20 22 47 51 51 52 49 51 55 57 58 55 54 52 50 51 53 59 61 60 61 63 64 65 67 64 66 69 69 69 67 67 68 68 68 70 70 70
26 26 25 25 24 21 17 22 43 53 49 46 50 44 51 54 55 54 55 56 51 51 53 59 61 61 60 64 66 65 66 65 68 69 67 66 65 64 66 67 69 69 71 70
22 23 22 22 22 18 15 19 40 49 46 49 49 42 48 52 54 54 56 56 55 53 52 55 59 61 62 64 66 65 66 67 69 68 67 65 62 65 67 68 68 69 70 71
22 21 20 20 20 18 17 35 44 47 43 39 46 45 48 49 53 54 56 56 57 56 55 53 57 61 62 64 67 66 65 65 68 69 68 66 64 66 66 67 68 68 69 70
25 24 20 19 17 18 18 27 34 36 37 34 45 45 44 51 54 55 55 56 60 62 58 57 57 60 62 63 67 68 66 64 66 68 68 68 67 65 66 67 68 68 68 69
24 24 20 18 18 18 21 23 25 30 30 31 44 41 45 55 58 57 59 60 61 61 62 61 59 60 62 63 66 68 67 66 68 68 69 69 68 68 68 68 68 68 68 69
26 23 23 23 20 19 19 23 27 27 27 29 44 48 51 55 57 59 59 59 60 61 62 62 62 62 60 62 65 66 69 68 68 69 68 68 69 68 67 68 68 66 69 69
29 26 26 26 22 29 22 30 26 26 23 28 43 45 46 50 56 59 59 59 62 64 64 64 65 65 65 64 66 67 68 68 69 70 69 70 69 69 68 69 69 69 69 71
30 27 25 27 25 28 29 28 27 27 27 31 36 44 54 54 57 58 58 60 61 62 64 65 66 67 67 68 67 68 68 68 68 69 70 70 70 70 69 70 70 70 69 70
26 27 25 25 25 29 29 28 28 25 25 40 42 46 56 56 57 57 58 59 60 61 62 64 65 66 66 67 68 67 68 67 68 68 69 69 70 70 70 70 71 70 68 69
25 25 25 24 21 19 19 24 24 25 31 31 35 45 57 56 56 57 57 58 59 59 59 61 61 62 64 65 67 67 67 67 67 67 68 68 69 70 69 70 71 71 68 68
33 25 27 24 24 25 16 18 21 22 29 37 43 48 53 54 55 55 56 56 57 57 57 58 59 60 61 62 64 65 66 68 68 67 66 65 68 68 68 70 71 71 71 69
27 24 25 25 24 24 16 17 20 29 33 29 49 49 49 53 54 54 55 55 55 55 55 55 56 57 58 60 62 63 65 65 67 66 65 65 67 68 66 67 68 70 71 71
25 26 25 27 24 25 17 19 25 32 42 47 49 50 53 53 53 53 53 54 54 54 55 55 55 55 56 57 59 61 62 62 64 65 65 66 65 65 66 67 67 68 69 71
27 24 25 24 26 22 16 19 20 32 44 50 48 51 53 52 52 52 52 50 48 48 48 48 50 53 56 56 57 58 59 60 60 61 62 63 64 64 64 64 64 65 66 67
25 28 27 24 26 18 21 24 30 45 48 50 52 52 52 52 51 48 47 46 46 47 47 47 48 48 49 54 58 59 58 57 58 60 61 62 62 62 61 61 61 62 63 64
22 25 26 21 25 26 26 25 24 37 48 52 51 51 50 46 46 45 45 44 43 44 46 47 46 46 48 51 53 53 52 52 52 52 54 57 58 58 61 60 60 61 61 62
22 27 23 25 23 19 27 26 24 41 45 52 51 48 44 44 42 43 44 42 41 43 45 45 46 47 48 50 51 50 50 51 51 51 51 53 53 54 56 56 57 59 60 61
21 23 22 22 23 27 34 32 29 25 36 48 44 44 43 43 42 42 42 41 41 42 45 48 48 48 48 49 49 49 49 49 51 52 52 52 51 50 52 53 55 57 55 54
30 22 23 26 22 21 38 35 32 36 42 46 45 44 43 43 41 41 41 41 42 43 46 46 45 45 46 47 48 46 46 48 48 48 48 49 51 51 52 51 51 51 52 53
29 33 33 35 33 39 39 38 40 41 44 45 45 45 43 42 41 42 42 41 42 42 44 44 44 44 45 46 46 45 45 46 45 45 46 46 46 47 48 49 49 50 50 50
36 35 35 36 38 38 37 37 37 38 39 42 42 42 40 39 41 41 40 40 41 43 43 43 44 43 43 44 44 44 44 45 44 43 44 44 43 44 45 47 47 47 47 46
37 35 33 36 38 37 36 36 36 36 35 34 37 38 39 40 40 40 40 40 41 41 42 42 43 43 44 43 43 43 44 44 43 43 43 43 42 43 44 45 46 46 47 46
42 38 34 32 40 40 37 35 35 33 34 34 36 37 40 40 39 40 40 40 41 42 42 42 44 43 42 41 43 43 43 43 42 42 42 42 42 42 42 42 42 44 44 45

GFSCGP_sfc_30mbdewp_099.txt.gz
Dewpoint
32 32 29 29 26 26 27 28 50 55 59 56 54 55 54 57 57 53 51 54 55 59 60 62 62 64 63 64 65 66 67 68 68 67 66 66 65 68 69 70 70 70 69 68
27 28 26 26 26 25 26 37 51 54 56 55 53 54 56 58 57 53 53 53 56 57 59 61 62 63 62 62 64 65 67 68 67 67 68 67 68 68 69 69 69 70 69 65
29 26 27 25 25 24 22 23 50 50 53 54 52 52 55 57 57 59 55 51 55 56 58 60 61 62 62 62 63 65 67 67 67 68 69 68 68 68 68 68 68 70 69 68
27 28 26 25 25 24 20 24 40 52 49 45 50 42 51 56 57 58 56 51 53 55 58 60 60 61 62 61 63 65 66 65 68 68 67 66 66 64 66 67 68 69 70 70
24 24 24 24 24 22 18 24 42 50 49 46 47 42 47 51 52 56 55 55 51 54 58 60 60 60 62 63 63 65 66 65 67 68 67 66 65 65 66 68 68 69 69 70
23 23 22 22 23 22 23 43 48 47 46 41 44 42 45 49 52 55 56 57 54 52 57 60 60 60 61 64 64 66 66 66 67 67 67 65 64 64 66 66 67 68 69 69
23 23 24 21 19 18 19 36 37 38 39 36 45 45 44 52 53 55 55 57 56 55 56 58 60 60 61 64 65 65 65 65 68 68 67 66 64 66 66 66 67 67 68 69
23 19 24 20 19 15 20 32 33 31 32 36 46 41 46 56 54 56 56 58 61 59 59 57 59 61 62 63 66 65 65 64 67 68 68 68 67 66 66 67 68 68 68 69
24 25 26 20 19 20 23 21 26 29 29 33 44 47 51 57 57 57 58 60 61 61 62 62 61 62 62 63 66 66 65 64 65 66 68 68 68 68 66 68 68 68 69 69
25 23 27 26 24 28 21 27 24 25 23 28 42 44 45 54 57 58 58 59 61 63 63 63 63 63 64 63 65 67 68 66 67 67 68 68 68 69 68 67 68 68 68 68
28 27 26 26 24 28 29 27 27 27 31 28 35 42 54 52 57 57 58 60 61 62 64 65 66 66 66 67 67 68 68 68 68 69 69 69 69 69 69 68 68 69 70 69
26 27 26 25 27 26 30 28 27 24 31 40 41 44 57 57 57 58 57 59 60 62 63 64 66 66 66 67 67 67 67 67 68 69 69 69 70 70 70 69 69 70 69 69
24 26 26 24 20 22 18 20 27 27 35 39 33 45 57 57 57 58 58 59 59 60 61 62 62 64 66 66 66 67 66 67 67 67 68 68 69 69 70 70 70 70 69 69
31 27 26 22 22 26 17 17 22 23 23 36 42 49 53 55 55 56 57 57 57 58 59 60 61 61 63 65 66 67 67 67 68 67 66 66 67 64 66 67 68 70 71 69
27 23 26 25 25 26 18 20 22 22 31 27 45 49 52 54 54 55 56 56 55 55 56 57 58 58 60 62 63 64 65 67 68 67 67 66 67 67 66 66 67 67 69 71
26 27 26 28 26 24 20 22 25 39 43 46 49 50 54 55 55 54 54 54 53 53 54 54 56 56 58 60 61 61 62 64 65 65 66 66 66 66 65 65 65 65 66 67
28 24 28 25 27 20 19 21 24 41 49 48 46 49 54 53 53 53 53 53 51 51 52 54 55 56 57 58 59 59 60 61 62 62 63 63 63 63 63 63 63 62 63 64
24 28 27 27 27 20 24 25 45 49 50 51 51 52 53 53 53 53 50 49 48 49 48 48 50 54 57 55 53 53 53 54 55 57 58 59 61 62 62 61 60 61 62 62
24 26 26 22 27 30 28 25 26 40 48 52 52 52 52 51 47 46 47 47 47 47 47 47 49 51 52 51 51 51 51 51 51 51 52 52 54 58 56 56 58 60 59 60
24 25 24 26 20 25 30 31 35 46 43 53 52 52 47 47 45 44 44 45 46 46 46 48 50 50 49 49 49 49 49 50 50 51 51 52 52 52 51 52 54 57 56 55
22 24 20 23 21 27 34 37 37 25 32 52 52 49 47 47 46 44 42 45 45 47 48 48 48 48 48 48 47 47 47 47 48 48 48 48 49 50 50 51 52 52 53 54
30 25 24 25 21 19 38 35 28 34 48 51 50 49 47 45 44 43 43 44 46 46 46 46 45 46 47 46 45 44 44 45 46 46 46 46 45 46 48 48 49 49 47 47
29 32 33 34 33 38 39 38 40 42 47 47 47 48 46 45 44 43 43 45 46 45 44 45 45 44 45 45 44 43 44 44 44 44 43 43 44 45 46 47 47 47 46 46
35 36 36 36 37 37 36 39 42 45 45 46 47 47 45 45 45 43 43 43 43 44 43 44 43 43 43 43 43 43 44 44 43 42 42 42 42 42 43 44 46 45 44 45
36 36 34 36 38 37 36 37 40 42 45 46 46 45 45 45 44 43 42 42 42 43 43 43 43 43 42 42 42 43 44 43 42 42 42 42 41 41 41 41 43 43 43 45
41 36 32 33 39 39 36 36 37 38 41 42 42 42 43 42 41 41 41 42 42 42 43 43 43 42 42 42 42 42 42 41 41 40 40 39 38 39 39 39 40 41 42 43

GFSCGP_sfc_30mbdewp_102.txt.gz
Dewpoint
31 33 35 29 26 28 26 45 51 54 59 55 55 55 55 58 55 55 56 56 58 58 61 63 63 65 65 66 66 67 67 68 68 67 66 66 66 68 69 70 70 69 69 69
30 34 33 31 27 29 30 48 53 56 57 55 54 55 55 57 56 57 54 55 58 58 61 62 63 64 64 64 66 66 67 68 67 67 67 67 67 68 68 69 70 70 69 67
32 30 29 26 26 24 26 34 51 51 56 57 54 53 55 57 56 56 57 55 56 59 60 61 62 63 63 63 65 66 67 68 67 68 68 68 68 68 68 68 68 70 69 66
29 29 26 25 25 25 22 25 51 52 50 46 52 43 54 55 56 56 55 53 56 59 61 61 62 63 62 63 64 66 67 68 67 68 67 65 64 64 66 67 68 69 70 70
27 25 26 25 25 23 21 25 50 52 48 46 48 44 47 56 55 57 57 57 55 57 60 60 61 62 63 62 63 65 66 67 68 68 67 66 65 65 66 68 68 69 69 70
25 24 23 24 25 24 32 48 48 47 46 42 43 43 44 51 54 56 56 55 53 56 59 60 61 61 62 62 62 65 66 66 67 67 67 66 65 65 65 66 67 68 69 69
23 23 23 22 20 21 24 39 40 40 42 39 43 44 43 52 53 56 57 56 52 55 58 60 60 60 61 62 63 65 65 65 66 67 67 66 65 65 64 65 67 67 68 68
22 20 25 22 22 19 22 29 32 31 35 36 46 41 44 54 58 57 57 57 54 56 59 60 60 60 60 63 64 64 65 65 66 67 66 66 65 66 66 67 67 68 68 68
23 25 27 22 19 20 22 27 33 32 31 39 44 46 51 57 56 57 58 59 57 56 59 59 61 61 61 62 65 64 65 65 67 68 68 67 67 67 66 67 68 68 69 69
25 22 27 27 26 28 25 25 23 25 26 29 41 43 41 54 56 58 59 60 61 61 61 62 60 62 63 63 64 66 65 64 66 67 68 68 68 68 68 68 68 68 68 68
29 26 26 27 24 26 26 26 26 28 29 29 33 38 53 53 57 57 59 60 61 62 63 63 63 64 64 66 65 67 67 66 66 67 67 67 68 68 69 68 68 68 69 69
27 28 26 26 27 27 29 27 27 24 30 37 35 40 55 57 58 58 59 60 62 63 64 66 66 65 64 66 67 68 68 68 68 68 69 68 69 70 69 69 69 69 70 70
25 26 26 25 19 25 18 19 27 31 40 38 30 40 57 57 57 58 58 60 60 61 62 63 65 65 65 66 67 67 67 67 68 68 68 68 67 68 69 69 70 70 70 70
30 27 26 23 22 25 22 17 24 25 25 37 37 48 54 55 54 57 58 58 59 60 61 61 62 63 66 66 66 64 67 67 67 67 66 66 65 66 66 67 67 68 70 71
26 24 25 25 25 25 21 23 21 23 28 31 40 47 52 53 54 55 56 56 57 58 58 59 60 61 63 64 65 66 67 67 68 67 67 66 66 66 66 65 66 66 67 68
26 26 26 28 28 23 21 31 30 40 38 43 47 49 54 55 55 55 55 54 55 55 56 57 58 60 60 61 62 63 64 65 67 67 66 66 66 65 64 64 64 64 65 66
29 27 28 25 28 27 22 25 41 35 48 49 42 48 54 53 53 54 53 53 53 54 55 56 57 58 59 59 59 59 61 62 62 62 63 64 64 63 62 62 62 62 63 64
27 28 28 27 27 24 29 26 41 50 50 51 51 53 54 54 54 54 54 52 52 52 53 55 56 55 54 53 53 53 53 53 53 54 57 60 61 60 60 60 60 60 61 62
26 27 26 23 29 31 29 26 30 41 46 52 52 53 53 51 50 49 50 50 48 49 50 53 52 52 51 51 51 51 51 52 51 51 51 53 54 54 54 54 55 56 57 57
24 26 24 25 23 27 32 34 37 45 29 52 53 52 50 51 48 46 47 47 47 49 52 51 50 49 49 48 49 48 48 48 48 49 49 51 51 52 53 53 54 57 56 56
23 23 20 24 22 26 32 38 38 25 26 53 53 52 50 50 49 46 47 46 47 50 50 49 48 48 47 47 46 45 46 46 47 47 47 47 48 49 49 50 50 50 51 52
29 23 23 24 19 18 37 34 27 33 42 53 52 50 49 47 45 46 45 46 47 47 47 47 46 45 45 45 44 43 43 45 45 45 45 45 46 47 48 48 48 47 47 47
29 31 31 32 27 36 39 38 40 42 46 50 50 50 48 46 46 47 47 46 46 45 45 46 45 44 44 44 43 42 43 44 43 42 43 43 43 44 46 46 45 44 46 46
35 36 36 36 37 37 37 40 45 46 47 49 50 49 48 47 47 47 47 45 44 44 44 44 44 43 42 43 43 43 43 43 42 42 41 41 41 41 42 44 44 44 44 44
34 36 35 36 37 36 36 39 42 47 48 48 49 49 48 46 46 47 45 44 44 44 43 43 42 42 42 42 43 43 42 42 42 41 39 39 39 39 39 40 41 42 43 43
40 34 32 33 38 37 36 39 39 44 46 47 47 48 48 46 45 46 46 46 44 43 43 43 42 42 42 42 42 41 42 41 39 37 38 38 38 39 39 38 37 40 40 40

GFSCGP_sfc_30mbdewp_105.txt.gz
Dewpoint
31 37 40 40 29 30 42 41 50 56 58 56 56 56 58 59 58 58 58 58 59 59 60 62 63 64 65 66 67 67 69 70 70 69 68 67 67 69 69 70 70 70 71 71
29 33 39 33 28 28 47 50 51 54 56 55 55 55 58 60 59 57 58 58 57 59 59 62 63 63 64 65 67 68 69 70 70 69 68 67 69 70 70 71 72 71 71 71
23 30 35 30 27 28 32 40 50 49 54 56 52 53 55 58 57 58 57 57 57 57 59 61 63 63 64 64 67 68 69 70 69 69 70 70 70 70 69 70 70 71 71 69
34 30 33 26 26 27 29 31 51 51 48 44 50 43 52 55 57 58 56 55 56 57 59 60 61 62 63 64 66 67 69 70 70 70 69 67 65 66 66 69 69 70 71 70
29 29 28 25 25 27 28 31 50 50 48 48 49 46 49 56 55 56 56 55 54 57 58 59 61 62 63 64 65 67 69 70 69 70 69 67 66 65 68 69 69 70 71 71
27 26 27 27 26 27 46 46 49 49 48 42 45 46 46 53 54 55 56 57 54 55 58 60 60 63 63 64 64 66 68 69 70 70 70 69 68 68 67 68 68 69 69 71
25 24 23 23 22 26 38 40 36 36 38 33 43 45 41 52 54 55 55 57 57 55 57 59 61 62 63 63 64 65 67 68 69 69 69 69 69 69 69 68 67 68 68 69
22 19 24 23 22 21 33 33 30 31 32 34 46 42 43 53 54 55 57 56 57 56 57 59 60 61 62 63 64 64 65 67 68 69 69 70 70 68 68 68 68 69 69 69
22 21 28 23 23 22 22 21 29 32 37 35 43 46 49 55 56 55 56 58 56 56 57 59 61 62 62 63 64 64 65 66 67 67 69 69 69 69 68 70 70 69 71 70
26 21 26 27 22 25 23 22 21 28 30 29 40 43 43 53 53 54 56 57 56 56 58 60 62 62 62 63 64 65 65 65 66 67 68 68 69 70 70 70 70 71 71 71
30 27 26 28 24 21 23 23 26 27 30 27 31 38 50 53 56 57 58 58 59 58 60 61 63 63 64 65 66 66 66 67 66 66 69 69 69 70 70 70 69 71 71 71
28 29 26 26 27 28 29 22 25 20 28 36 36 38 56 55 57 58 59 61 61 60 60 62 64 65 65 66 67 68 68 67 67 68 68 68 68 70 70 70 70 71 70 72
28 28 26 25 21 25 24 22 29 32 34 33 26 35 56 58 59 59 59 60 61 63 64 65 66 65 66 66 67 68 68 69 69 69 70 69 68 69 70 71 71 71 71 72
31 28 28 23 24 26 23 22 27 29 22 30 30 45 53 56 57 58 60 61 61 62 62 63 65 65 66 66 66 67 67 68 68 68 68 68 69 69 69 69 70 71 72 72
29 27 27 25 25 24 28 36 25 26 28 28 35 44 50 54 55 57 59 59 59 60 61 61 62 65 66 66 65 65 67 67 67 67 66 66 67 67 67 67 68 69 70 71
29 30 29 27 27 22 23 35 35 37 36 40 40 45 52 55 56 57 57 57 58 58 59 59 60 62 63 65 63 64 66 66 67 67 66 67 66 67 66 66 66 67 67 68
32 33 31 24 30 28 21 26 41 44 46 46 42 48 54 55 55 55 56 56 57 57 58 58 59 59 59 60 62 62 63 64 64 64 65 66 64 64 64 64 64 64 65 66
32 33 30 30 29 23 27 28 38 47 50 51 50 52 54 54 55 55 55 55 55 56 57 57 56 56 56 56 55 55 55 56 58 59 60 61 62 61 62 61 60 61 62 63
31 31 28 24 28 31 28 30 32 34 38 52 52 53 54 55 54 53 54 55 55 57 55 53 53 53 53 53 54 53 53 54 54 53 54 55 57 57 57 56 57 58 60 62
27 33 26 27 24 25 34 34 37 43 31 53 52 53 53 52 49 49 51 51 53 54 52 52 52 51 50 51 51 50 50 49 49 49 51 52 54 55 55 57 58 58 60 59
27 27 25 27 25 25 33 38 38 28 31 49 54 53 52 52 52 49 49 51 54 52 50 50 49 48 48 48 49 49 49 48 48 49 49 50 51 52 52 52 53 55 54 53
31 26 24 26 23 21 39 38 34 39 43 50 54 53 53 51 50 49 49 51 53 50 50 49 48 47 47 47 47 47 48 48 48 49 49 50 51 49 51 50 51 51 52 51
32 33 33 31 31 40 41 41 43 43 44 50 54 52 50 49 50 50 50 51 51 50 49 47 46 46 46 46 46 45 47 47 47 47 47 47 48 48 49 48 48 47 49 47
37 38 38 38 40 39 39 42 47 48 48 51 52 50 50 50 50 49 48 48 48 48 47 46 45 44 44 45 45 45 45 45 45 44 44 44 44 45 45 44 44 44 44 44
37 38 38 38 40 40 40 42 44 48 51 51 51 50 50 50 49 48 47 47 46 46 46 45 44 43 43 44 44 44 44 44 42 40 40 39 39 40 40 41 41 41 41 41
40 38 38 36 41 41 41 42 42 44 48 50 50 49 50 50 49 49 48 48 48 47 45 45 44 44 43 43 43 43 44 42 38 37 36 36 36 36 36 35 36 38 36 37

GFSCGP_sfc_30mbdewp_108.txt.gz
Dewpoint
20 26 39 42 36 34 43 44 50 54 57 57 57 57 58 58 58 53 53 53 54 54 57 60 60 60 62 64 65 66 67 68 68 67 64 63 63 64 66 66 69 69 70 70
22 21 32 43 37 31 39 41 50 54 56 54 53 55 56 58 57 54 53 52 53 54 56 59 60 60 60 63 64 66 67 68 69 66 65 64 64 65 65 66 68 69 70 70
16 17 39 40 33 31 42 42 46 49 55 55 52 51 57 57 58 55 54 54 53 55 55 58 60 60 61 62 65 66 67 67 68 66 67 68 70 70 69 68 66 67 69 69
18 26 33 39 32 31 32 39 47 49 47 45 51 44 53 56 56 57 56 55 53 54 56 57 59 59 60 61 65 67 67 68 67 69 66 66 66 66 63 65 66 67 69 68
23 25 33 35 35 30 31 33 43 45 42 43 45 43 48 56 54 56 57 54 53 54 55 56 58 60 59 61 63 66 68 69 67 69 68 68 63 63 64 65 68 69 69 68
27 31 31 29 31 28 35 37 41 44 42 34 41 44 45 49 52 50 56 55 53 53 54 55 57 59 59 61 63 65 68 69 69 70 68 67 66 65 66 67 67 65 66 67
26 27 29 28 29 33 37 39 37 36 36 34 38 41 40 48 52 53 50 55 54 52 54 55 56 60 61 61 62 64 67 69 69 68 68 68 66 67 66 66 65 66 65 66
19 20 25 25 24 27 32 37 33 32 32 33 42 38 41 48 52 54 54 54 56 54 53 53 57 58 63 61 62 63 66 67 68 68 68 69 69 66 68 67 65 65 68 66
17 18 23 23 23 22 28 30 33 30 32 32 39 41 47 52 52 53 54 55 55 56 54 54 56 58 60 61 62 63 64 67 67 67 68 68 68 67 69 67 70 67 68 67
22 17 20 21 21 21 22 28 28 29 25 26 36 36 34 50 52 53 53 54 55 57 56 56 56 59 60 62 62 64 64 66 66 66 67 66 66 68 68 67 66 68 69 70
24 21 22 23 19 16 20 20 20 21 24 23 27 33 45 50 52 52 53 54 56 57 58 59 60 61 63 62 65 65 65 66 66 66 66 65 66 66 68 68 66 68 69 71
28 24 22 20 21 19 19 18 19 17 21 26 27 36 53 53 53 55 56 56 56 57 56 61 63 64 65 65 66 66 65 66 67 67 66 67 66 66 65 67 66 68 67 69
29 23 22 22 25 26 22 21 20 18 17 20 22 25 54 56 56 57 59 59 59 58 59 61 64 65 66 67 68 69 69 67 67 67 66 66 67 65 66 66 68 68 68 67
28 24 24 20 23 21 22 22 22 22 20 20 21 29 50 54 56 58 59 60 62 62 63 63 64 65 66 66 67 67 67 68 69 68 68 68 68 65 67 68 69 68 67 68
28 25 25 25 26 24 24 22 21 22 21 19 19 24 35 51 56 57 59 60 61 62 62 64 65 65 66 66 66 66 67 68 68 68 68 68 69 69 69 69 69 69 70 69
27 26 29 24 24 23 24 30 27 22 22 24 26 28 47 53 56 58 59 60 60 61 61 62 64 65 65 65 65 67 67 67 68 67 67 67 68 68 68 68 68 69 69 69
28 27 29 23 26 25 22 28 35 34 37 35 26 42 50 54 55 56 58 59 60 60 60 61 60 63 66 66 64 64 65 66 66 67 67 66 66 66 66 66 66 67 67 68
29 29 27 26 29 22 27 31 34 41 44 44 46 49 52 55 56 57 57 57 58 58 58 58 58 57 61 62 63 63 64 64 64 63 65 65 65 65 64 64 64 65 66 66
31 30 24 23 24 26 29 31 33 35 37 48 48 51 54 55 56 56 57 57 58 58 57 56 56 56 57 57 57 58 57 58 58 59 60 61 62 63 63 62 62 62 63 66
26 30 27 25 23 26 34 33 34 35 34 50 51 52 54 54 52 53 56 57 57 56 54 53 53 54 54 54 55 54 54 54 53 54 56 58 58 58 59 60 60 63 62 60
25 26 26 24 25 27 35 35 35 30 35 41 50 53 54 53 53 54 56 57 56 54 53 52 51 50 51 52 52 50 50 50 50 51 53 54 56 57 58 59 61 60 57 56
28 25 22 24 24 24 40 37 37 42 43 44 51 52 53 54 54 54 55 54 53 52 51 50 50 50 50 50 51 50 50 51 52 52 52 53 52 51 55 56 57 56 55 54
28 31 31 31 32 41 41 41 44 47 47 46 52 52 54 54 53 54 55 53 51 50 49 48 48 48 49 48 49 50 50 51 51 51 51 52 52 52 53 53 53 53 53 51
34 38 35 36 39 39 40 42 44 48 50 52 52 53 53 53 53 53 55 52 51 49 48 48 47 46 47 47 48 48 49 49 49 49 49 49 49 49 47 46 46 46 47 46
35 38 34 33 39 40 41 43 44 46 50 52 52 52 53 53 52 53 54 53 51 50 48 47 47 46 46 46 45 45 46 46 45 45 45 44 44 45 45 42 42 40 40 40
35 33 32 33 42 42 43 43 44 43 47 50 51 51 52 53 52 51 51 50 49 48 47 47 46 46 45 44 44 45 45 44 41 39 37 36 37 37 37 36 33 37 37 34

GFSCGP_sfc_30mbdewp_111.txt.gz
Dewpoint
19 19 30 39 40 37 45 46 50 52 58 55 55 56 53 57 58 51 50 50 54 54 54 55 55 56 58 61 62 65 65 66 66 65 64 63 64 64 65 68 67 68 67 68
16 15 25 38 41 36 37 52 51 54 58 54 54 56 56 58 56 55 53 51 52 53 53 54 54 56 57 60 63 66 66 67 67 64 65 65 64 64 65 67 67 67 68 69
16 15 20 34 42 35 33 47 51 52 55 55 53 52 55 55 58 56 53 52 52 53 53 53 58 55 57 59 62 64 67 67 68 70 65 67 69 68 66 67 65 67 68 68
17 15 18 31 38 35 33 46 50 51 49 46 50 45 51 55 55 57 57 52 52 53 55 53 57 59 57 59 61 65 65 68 66 69 67 65 63 65 64 65 64 68 67 66
14 15 20 32 36 34 35 35 54 48 45 46 47 46 51 54 52 53 56 54 52 52 54 54 56 58 59 59 60 62 65 66 67 67 69 67 66 64 63 64 68 68 68 68
18 21 24 29 34 34 35 36 41 44 41 39 43 42 47 52 52 53 55 55 53 56 52 59 57 59 59 57 58 61 64 67 68 68 68 68 67 67 66 65 66 65 67 66
22 25 25 28 29 30 33 35 40 40 38 37 41 41 42 50 49 51 53 55 54 56 53 54 57 58 57 58 56 60 65 67 67 67 67 67 67 67 67 67 65 64 63 65
15 19 25 26 27 27 32 34 40 35 35 38 38 37 45 46 49 52 51 55 56 52 54 55 56 61 56 57 58 58 64 66 67 66 66 67 68 66 66 66 68 63 64 63
13 15 22 23 22 26 27 32 37 39 34 35 40 39 49 48 49 51 52 54 54 54 51 51 54 57 57 58 59 60 65 66 66 65 66 67 67 67 67 68 68 68 66 66
21 17 20 21 21 20 20 27 28 31 29 31 39 41 35 48 49 50 51 53 53 54 55 55 51 53 60 58 59 61 63 65 65 64 65 66 66 66 67 67 67 68 70 70
22 19 17 17 19 18 17 19 24 26 26 27 31 39 46 48 50 50 51 53 55 54 55 55 52 56 57 59 61 61 63 65 66 65 65 64 64 64 66 66 67 67 68 69
21 21 16 19 18 17 16 15 17 18 22 22 21 36 45 49 51 51 51 52 53 55 55 55 54 58 60 63 65 66 63 65 66 67 67 66 65 64 63 65 66 67 69 69
28 20 19 18 18 17 13 14 16 15 15 16 18 36 51 51 52 53 53 53 54 56 57 60 62 62 63 63 66 66 66 66 67 67 66 66 68 66 64 63 64 66 68 69
28 23 23 22 29 28 21 17 18 15 13 13 15 44 49 52 54 57 57 56 56 57 59 60 62 65 66 68 69 69 69 69 69 69 68 68 68 67 65 65 64 65 67 68
26 23 22 24 28 29 23 17 15 17 18 17 16 20 41 49 53 56 58 61 60 63 61 60 62 65 66 68 68 67 67 66 67 66 68 69 69 70 67 68 67 66 66 67
25 22 23 28 27 27 22 22 21 17 17 17 19 22 38 51 56 57 60 61 61 63 63 64 65 64 65 66 67 66 67 67 68 68 68 70 70 69 70 70 69 68 67 68
26 24 29 23 21 20 23 22 22 22 20 17 23 41 37 56 56 57 59 60 61 61 62 63 64 66 65 65 65 65 66 67 67 67 68 68 68 67 67 68 69 69 68 68
26 27 26 26 32 25 25 30 31 31 37 36 38 45 49 53 57 58 59 60 60 60 61 61 60 63 66 66 66 66 67 67 67 67 67 67 66 65 65 65 66 66 67 68
26 29 24 24 32 34 35 31 30 32 39 43 42 47 53 56 57 57 57 59 59 60 59 59 58 58 60 62 64 64 65 65 64 63 64 66 66 65 65 64 64 65 67 66
28 29 27 27 26 31 40 44 35 33 35 45 46 48 52 54 48 53 57 58 58 58 57 56 56 56 56 57 60 59 58 58 58 60 61 62 63 63 64 64 64 65 64 62
27 28 24 22 28 33 39 40 38 29 38 41 46 52 54 52 55 56 58 58 57 55 54 54 54 53 53 54 54 53 53 52 54 55 57 59 61 61 62 63 64 62 58 57
28 30 24 25 29 32 37 36 37 43 43 43 46 52 54 55 56 57 56 56 54 53 52 51 51 51 52 53 53 52 52 54 54 54 55 55 56 57 60 61 61 59 57 55
22 25 34 29 37 40 38 40 41 43 45 48 47 52 54 54 54 55 55 54 53 52 51 50 50 51 52 53 53 52 53 55 55 54 54 54 55 56 58 59 59 57 58 57
30 33 27 33 36 37 38 40 42 44 46 48 49 49 53 54 55 55 55 55 53 51 50 49 48 48 49 52 53 52 52 54 54 53 53 53 52 52 51 50 51 51 50 51
32 36 28 30 37 39 40 41 41 43 46 49 52 53 53 54 55 55 53 52 50 49 49 49 47 47 47 48 48 49 50 51 50 49 48 48 47 48 46 40 41 42 37 37
31 29 30 31 40 41 42 42 41 41 44 47 50 52 54 54 55 56 53 53 51 50 50 49 48 48 48 47 46 46 47 45 43 43 41 40 42 42 42 39 33 34 34 33

GFSCGP_sfc_30mbdewp_114.txt.gz
Dewpoint
26 23 20 28 40 42 42 47 50 54 58 56 54 54 55 57 58 52 47 47 53 52 52 52 56 60 59 61 64 65 65 69 68 68 64 65 67 66 68 70 69 70 69 68
18 16 18 26 39 43 41 44 51 55 57 54 54 54 56 57 58 56 49 51 52 53 57 52 55 58 59 63 65 67 68 69 68 68 67 68 67 66 69 69 69 69 70 69
17 15 16 21 35 41 42 41 50 52 56 55 52 51 53 54 58 59 58 52 53 57 58 53 54 56 61 65 66 67 68 69 68 69 69 66 68 68 68 68 68 68 70 70
15 17 15 17 33 41 37 52 52 54 51 47 52 44 52 53 55 57 59 54 56 56 54 54 54 55 58 66 66 67 69 69 68 69 68 67 66 65 65 68 69 69 68 69
8 15 15 15 22 42 40 45 53 52 51 49 50 46 50 52 52 56 57 55 55 57 52 58 52 57 58 59 65 68 69 70 69 70 68 67 66 66 68 70 70 70 70 70
11 15 16 17 29 35 39 46 46 47 51 45 46 45 46 51 50 51 55 56 56 53 54 57 61 55 59 59 63 66 69 69 69 70 69 69 67 66 67 67 68 69 70 69
11 19 20 22 24 34 36 37 39 41 42 40 46 44 45 51 52 49 52 55 54 55 55 54 58 62 61 61 63 66 69 69 69 69 69 68 69 68 68 68 68 68 68 69
12 16 22 23 25 31 30 30 36 34 37 40 45 42 46 48 51 51 51 54 54 54 58 58 55 60 61 63 62 64 69 69 69 69 69 69 69 68 68 68 69 68 69 69
18 10 20 23 25 26 26 28 32 38 45 40 44 49 46 49 49 51 52 54 55 58 58 57 61 60 62 62 62 67 69 69 69 69 69 69 69 70 69 70 64 65 71 70
21 20 15 21 21 21 24 25 26 38 36 34 42 45 49 47 48 50 51 52 54 56 60 59 59 59 58 60 61 67 68 69 68 67 69 69 70 69 69 70 70 70 70 66
23 21 17 20 19 18 17 19 21 23 33 35 35 39 51 51 53 51 52 53 53 50 53 58 60 61 61 60 62 66 66 67 67 67 67 67 67 68 70 69 69 70 66 64
21 19 18 20 18 18 18 16 14 16 22 25 28 30 48 47 51 52 54 54 55 54 55 57 58 61 60 63 65 66 66 66 66 67 66 68 67 67 68 68 68 69 70 71
29 22 16 18 19 21 16 16 15 14 15 16 17 38 49 50 52 52 51 54 55 55 55 57 56 63 64 66 63 63 63 68 67 67 68 68 69 66 66 67 68 69 70 71
26 25 22 23 28 31 29 27 11 12 12 12 13 38 39 41 51 51 52 55 57 58 58 57 63 64 62 63 68 69 69 69 70 70 70 69 69 68 68 68 68 68 70 70
23 21 22 23 27 27 28 29 26 13 16 13 12 37 43 47 51 54 55 56 59 59 61 63 64 66 68 68 69 69 69 67 67 67 67 68 69 70 71 70 69 68 69 70
25 21 21 21 23 28 26 27 26 19 13 14 16 21 42 55 53 54 57 60 62 60 61 62 62 65 66 67 68 67 67 67 67 66 66 68 68 68 69 70 68 69 68 68
34 29 29 25 25 28 24 26 28 24 18 22 20 51 51 48 45 49 60 60 63 63 64 65 66 66 67 66 67 66 67 67 67 67 68 69 69 68 69 69 70 69 68 69
27 26 26 29 33 31 33 37 37 37 44 44 49 54 55 49 47 57 60 61 62 62 63 63 64 65 66 67 66 66 67 67 67 67 67 68 67 66 66 66 66 68 69 70
26 27 23 29 34 34 31 37 36 37 38 44 47 55 46 57 58 58 60 61 61 61 61 60 59 61 62 65 67 67 66 67 67 67 67 67 66 66 65 64 65 67 66 64
26 30 27 29 28 33 41 40 41 38 39 42 44 54 50 56 50 55 60 60 59 58 58 58 57 57 58 60 60 61 60 59 60 62 64 65 65 66 65 65 65 66 64 60
34 33 24 24 31 41 42 43 42 34 41 43 44 54 51 52 57 59 58 57 57 56 55 55 55 54 55 56 56 55 56 56 57 58 59 62 62 62 62 65 64 62 60 58
33 36 30 31 28 30 44 47 44 44 44 45 44 56 55 57 58 58 57 55 54 53 54 54 53 53 54 54 53 53 53 55 56 56 57 58 59 61 63 61 60 60 58 57
24 29 31 39 39 39 38 39 40 41 43 44 44 55 55 57 57 57 55 54 53 51 50 51 52 52 53 53 53 54 55 55 55 55 56 56 57 59 61 60 60 57 57 54
25 30 27 26 36 36 38 39 41 42 42 42 46 50 53 56 56 55 54 53 52 52 50 50 50 51 53 54 54 54 55 56 55 54 54 54 55 49 44 48 56 48 46 55
33 38 30 28 35 40 39 40 39 40 43 44 49 52 54 56 56 55 55 54 53 52 50 50 49 49 50 51 52 54 54 54 53 53 55 52 53 49 43 36 38 39 35 37
29 28 28 32 41 42 43 43 40 38 40 42 46 53 55 56 55 54 53 51 51 51 51 50 49 49 48 48 49 50 52 53 52 52 51 52 53 49 46 41 32 34 34 33

GFSCGP_sfc_30mbdewp_117.txt.gz
Dewpoint
26 23 22 23 27 30 46 50 51 55 58 55 54 53 52 55 58 57 51 47 51 51 53 54 61 61 61 63 65 65 65 67 67 68 65 66 64 67 69 69 69 69 68 69
25 23 25 24 40 44 46 50 52 55 57 55 54 53 54 55 57 59 58 51 52 52 53 59 60 60 60 64 66 66 67 67 67 68 69 69 66 67 69 71 69 68 69 69
20 20 23 19 27 41 48 47 51 51 55 55 52 50 53 56 57 57 59 58 53 54 54 59 59 59 63 65 67 67 67 68 69 67 67 68 69 69 68 69 69 69 69 70
17 19 17 15 16 35 46 54 53 54 50 47 52 44 51 53 55 56 58 59 53 55 54 57 58 60 63 65 66 67 67 68 68 69 66 64 66 65 66 67 69 69 70 69
9 12 14 15 15 44 50 53 51 50 47 49 49 47 49 53 52 54 56 58 58 55 52 54 58 61 63 66 67 67 68 68 68 68 68 65 67 67 69 70 69 69 70 69
9 11 14 17 24 44 53 53 52 51 50 43 46 47 47 51 51 52 55 57 58 58 57 56 58 61 64 65 66 68 67 69 69 69 68 68 66 66 68 69 68 68 69 70
9 9 15 17 41 45 47 45 41 42 42 42 48 47 48 52 52 51 52 55 59 59 56 57 58 60 63 65 66 68 67 68 68 69 68 68 66 65 67 67 67 68 68 69
12 10 18 22 23 41 45 43 39 35 38 42 47 46 45 50 52 51 53 54 57 59 56 57 56 60 61 65 66 67 68 69 67 69 69 69 67 65 68 69 68 67 68 68
18 16 19 22 23 28 33 32 30 42 44 39 43 47 51 49 53 50 52 54 56 56 56 57 61 59 63 62 63 67 69 70 68 69 70 69 70 70 68 69 67 68 70 71
22 22 24 21 23 23 24 26 31 40 36 35 43 43 43 49 50 52 49 52 55 58 58 59 61 61 63 63 63 68 69 69 68 69 70 68 69 70 70 70 66 70 69 67
23 23 23 22 21 19 18 18 19 32 37 35 34 41 49 48 51 52 53 51 53 57 57 59 60 61 62 62 62 68 69 69 69 69 69 69 68 70 69 70 70 71 68 62
28 24 19 18 22 21 20 19 17 16 17 32 36 36 50 50 53 51 52 55 53 57 57 55 60 61 60 60 64 68 69 69 68 69 69 68 69 69 70 69 69 71 65 66
27 27 22 20 27 31 27 25 21 21 16 14 18 35 51 53 50 43 49 56 55 55 57 57 60 63 64 65 67 68 68 68 68 69 68 69 68 68 68 69 69 70 69 69
26 25 25 23 26 29 29 28 29 29 17 16 14 39 45 48 50 51 55 55 55 56 55 58 61 64 65 66 67 66 64 66 65 65 65 67 67 67 69 69 69 68 70 70
24 22 24 24 25 26 28 27 27 31 42 32 29 37 48 52 53 57 60 57 57 58 57 62 64 64 64 65 67 67 67 65 65 64 67 67 68 69 70 70 69 70 70 70
33 27 30 29 30 31 29 33 32 40 44 45 41 49 55 57 54 55 58 63 60 61 64 65 63 63 63 63 64 68 68 68 69 68 68 67 68 68 69 69 69 69 68 69
30 31 31 26 32 31 32 36 37 39 44 45 48 50 49 50 51 49 55 62 62 63 64 65 67 66 64 64 66 67 67 68 67 66 68 69 68 67 67 69 68 69 70 69
28 30 31 28 29 25 38 40 38 40 43 49 51 54 47 48 49 50 58 62 63 63 62 61 62 66 67 68 68 67 68 68 67 68 68 67 66 66 66 66 68 69 68 66
33 31 28 31 33 36 37 40 40 39 44 45 51 53 55 56 58 59 61 62 60 60 59 59 60 61 65 68 68 68 67 68 67 67 67 66 65 65 65 65 65 63 61 59
36 32 31 28 28 28 37 42 44 41 42 48 52 50 49 51 50 57 59 58 58 58 58 57 57 59 60 61 63 63 62 62 63 65 66 66 66 65 65 65 65 63 61 58
31 33 29 30 33 37 43 44 45 34 41 45 52 52 52 50 57 58 57 56 56 55 55 56 55 55 57 58 59 58 59 58 59 62 63 63 63 64 65 64 63 60 58 55
28 27 34 35 32 35 43 44 35 42 46 46 54 55 55 59 58 56 55 53 54 54 54 54 54 54 55 56 56 56 56 57 58 59 59 61 63 64 62 61 60 59 57 55
32 34 35 36 33 43 45 43 44 43 44 44 54 56 54 57 57 56 54 53 52 53 53 54 54 54 54 55 55 55 56 56 57 58 58 58 55 54 59 60 59 58 57 55
37 37 30 39 41 43 42 43 42 43 44 47 54 56 56 56 56 55 54 52 51 51 52 53 53 53 53 54 54 55 56 56 55 55 56 50 47 44 45 46 43 44 44 50
38 38 32 32 43 45 42 40 39 42 43 47 54 57 57 56 55 54 53 52 53 52 51 52 52 51 51 52 54 55 55 55 54 55 54 52 45 41 36 36 40 37 35 38
36 37 34 40 45 44 43 43 40 40 40 44 54 55 57 56 55 54 54 53 53 52 53 51 50 50 51 52 52 52 54 54 53 54 52 53 50 47 44 38 32 34 34 34

GFSCGP_sfc_30mbdewp_120.txt.gz
Dewpoint
23 24 23 24 24 30 50 48 51 54 57 54 53 55 56 56 57 57 57 49 52 53 58 63 63 63 64 64 65 63 66 66 65 67 67 66 65 66 69 68 69 70 69 69
24 24 25 24 24 34 49 48 50 55 56 55 54 53 56 56 56 58 59 55 51 53 60 60 60 63 64 64 65 64 66 66 67 66 68 66 67 67 69 70 70 70 69 70
24 24 25 25 24 42 47 42 50 51 55 55 53 51 53 55 57 57 58 59 52 56 59 59 59 61 64 64 64 65 66 66 68 67 68 68 68 68 68 68 68 68 69 70
21 23 21 23 23 42 45 51 51 52 50 46 52 43 50 51 54 55 57 58 58 57 59 59 59 61 64 64 65 66 67 68 68 68 66 66 65 64 66 67 68 68 69 70
12 13 17 18 17 44 50 52 51 51 49 49 49 46 47 54 51 54 55 57 59 58 59 59 58 62 64 65 66 66 68 68 68 67 66 65 65 66 67 68 68 69 70 69
16 13 11 22 34 46 53 51 51 51 48 42 47 47 45 49 49 52 55 57 58 58 58 58 59 61 64 65 66 66 68 67 67 67 68 66 66 66 67 68 68 68 69 70
15 10 37 52 51 53 51 45 41 40 42 40 49 48 45 50 51 52 53 56 57 59 58 58 60 62 64 65 66 67 68 67 67 66 68 67 67 66 67 68 68 68 68 68
17 9 27 44 47 45 46 41 35 29 36 40 49 42 42 50 50 52 52 56 58 59 58 58 60 62 63 64 66 67 67 67 68 68 67 68 67 65 68 68 68 68 67 68
19 19 22 31 41 43 41 39 41 41 44 39 45 47 50 51 52 52 52 56 57 60 59 58 60 62 64 64 66 67 67 68 68 68 68 68 67 65 68 69 69 67 69 70
22 21 24 23 30 41 35 36 35 41 35 34 42 41 39 42 47 51 51 53 54 57 59 58 59 62 63 65 66 67 68 67 67 68 69 68 68 69 69 70 67 67 70 70
26 23 21 22 21 21 19 19 20 35 38 35 37 40 46 44 50 51 51 52 52 54 58 58 60 61 63 65 66 68 68 68 67 68 70 68 68 69 70 69 67 67 69 66
26 24 22 19 25 29 21 20 18 16 14 36 35 34 46 47 53 53 52 50 51 53 58 59 60 61 62 63 64 68 68 69 67 68 69 68 68 70 69 69 70 70 68 67
25 25 22 23 25 28 30 30 30 24 20 18 22 17 51 50 52 53 54 54 51 54 58 60 61 61 62 63 63 68 68 69 68 69 69 68 68 68 68 68 69 70 68 66
26 24 23 22 25 27 28 30 38 35 36 37 29 34 48 50 50 51 52 56 56 53 57 57 60 62 63 63 65 67 69 69 68 69 69 68 68 69 68 69 69 70 69 69
29 26 29 30 32 36 36 37 41 41 43 42 44 47 51 53 52 57 61 59 57 57 57 57 60 64 65 65 66 67 67 67 67 66 66 68 68 68 68 69 69 69 70 70
32 24 30 31 33 36 37 39 43 43 45 46 49 48 52 54 55 58 61 60 62 59 58 61 62 64 65 66 66 65 65 66 67 65 66 68 68 69 68 68 69 69 69 69
27 27 29 27 31 31 33 38 42 44 49 50 48 53 50 48 55 56 57 59 62 62 63 64 64 64 65 66 68 66 65 68 67 66 67 67 68 67 67 68 68 68 68 67
28 30 32 27 26 25 38 40 41 45 48 50 50 54 54 55 59 61 61 60 59 60 61 61 61 65 65 66 68 68 68 68 67 67 68 67 67 66 66 67 67 68 67 64
33 32 29 30 30 36 39 40 40 41 44 51 48 50 50 50 57 58 59 59 58 58 58 58 60 61 67 67 68 67 67 67 67 67 66 66 66 65 66 64 62 60 62 60
34 35 30 29 29 25 38 41 43 43 39 48 49 49 49 47 43 54 56 56 56 56 57 57 58 58 60 66 67 66 65 66 66 66 66 66 65 65 65 63 61 59 57 53
27 32 29 34 33 38 41 43 45 34 37 45 51 52 51 48 54 56 56 54 55 55 55 56 56 56 57 60 63 62 61 62 63 65 65 65 65 65 65 64 61 59 57 54
25 26 32 34 32 28 43 43 39 42 46 47 54 54 56 57 56 54 54 54 54 54 54 55 55 55 57 58 59 58 58 59 61 62 62 63 64 63 62 61 59 57 53 49
29 33 34 34 31 42 46 42 43 46 49 52 54 56 58 57 56 54 53 53 53 53 54 54 54 54 56 56 57 56 57 59 59 59 57 56 56 55 58 59 58 57 54 52
36 37 36 36 36 40 45 45 44 45 52 54 54 51 55 56 55 53 52 51 52 53 53 54 54 53 53 55 56 56 56 57 56 52 51 49 48 47 46 43 44 46 50 55
37 37 36 39 43 43 44 46 43 44 54 56 56 56 56 55 54 53 51 51 51 51 52 52 52 52 52 53 54 54 55 55 54 51 48 45 42 39 37 37 40 38 38 41
37 34 32 36 41 43 42 41 41 42 52 55 55 56 56 55 54 53 52 52 52 51 52 51 50 51 52 53 53 53 54 54 54 53 52 48 46 42 40 38 37 37 36 35

GFSCGP_sfc_30mbdewp_123.txt.gz
Dewpoint
22 24 24 26 25 37 49 51 51 54 55 51 51 53 55 58 58 56 58 54 57 59 60 61 62 64 64 64 64 63 65 66 67 67 66 66 66 67 68 69 68 68 69 68
21 23 25 24 24 38 49 50 52 54 56 55 53 53 55 57 57 58 58 54 56 57 59 61 63 64 63 63 64 63 65 65 67 66 66 66 66 67 69 70 70 68 69 69
21 23 25 24 24 44 48 49 48 50 55 55 54 50 53 56 57 58 58 59 54 57 59 62 62 63 62 63 64 64 65 64 67 67 68 68 68 68 68 68 68 70 69 69
21 24 24 24 23 37 43 50 51 49 51 47 52 43 50 54 55 56 56 58 54 58 60 61 61 62 62 63 64 65 66 66 68 68 66 66 64 64 65 66 68 68 70 70
15 15 19 20 21 34 44 52 51 49 49 49 49 46 46 53 52 54 55 58 57 58 59 59 60 62 63 64 64 65 66 67 67 66 66 65 65 65 66 67 68 68 69 70
18 17 13 19 31 39 52 51 50 50 47 41 47 45 44 49 50 53 55 57 59 59 59 59 59 63 63 64 65 66 66 67 67 67 66 65 65 65 66 67 67 67 68 69
17 14 49 51 51 52 49 45 38 37 40 38 48 47 45 49 52 53 54 55 58 58 59 59 59 62 64 63 65 66 67 67 67 67 66 66 65 66 66 66 67 67 68 68
16 14 47 48 47 45 47 41 33 32 35 39 48 43 38 47 51 52 54 54 59 59 59 59 59 62 64 64 65 66 67 66 66 66 67 67 67 66 66 68 68 68 67 68
18 19 28 46 47 47 45 40 40 41 43 40 44 46 45 47 50 51 51 54 58 59 58 59 60 61 64 64 65 65 67 66 67 66 67 67 67 65 66 68 68 68 68 68
22 21 25 33 43 44 40 42 37 40 34 35 40 42 38 43 48 52 52 55 57 59 60 59 60 61 63 64 65 66 67 67 67 67 67 67 67 66 65 69 68 68 68 69
25 22 21 22 24 36 25 30 29 36 38 34 33 33 45 43 48 52 53 55 57 58 60 59 61 62 63 63 65 66 67 67 67 68 68 68 68 68 68 69 68 67 68 69
26 25 21 22 25 27 27 26 19 18 16 36 37 28 50 48 52 52 52 55 57 58 58 60 60 62 63 64 65 66 67 67 67 67 69 68 68 68 69 69 68 67 68 67
24 26 22 24 28 29 30 34 28 22 20 23 21 19 53 53 53 53 52 53 54 56 56 58 60 61 63 64 66 67 67 67 67 67 68 68 68 68 68 69 69 69 68 68
27 25 24 23 26 31 38 40 41 35 32 35 32 45 50 54 54 55 55 54 52 53 53 57 59 61 62 64 64 67 68 68 68 68 68 68 68 68 68 69 68 69 69 67
27 27 31 31 37 39 41 41 42 41 43 43 47 46 49 51 56 59 61 61 57 54 56 58 59 62 62 63 64 67 68 68 68 68 68 67 68 68 68 68 69 69 69 69
30 26 31 33 37 39 40 42 43 45 48 49 49 47 51 54 58 57 59 61 59 57 58 59 60 63 63 63 64 67 67 67 67 67 67 68 68 68 68 68 68 69 69 69
29 27 28 28 32 33 31 40 44 46 49 49 44 51 53 55 57 57 58 59 59 60 61 63 62 64 65 65 66 66 67 67 66 66 67 68 68 67 67 68 68 67 68 67
30 30 30 25 26 21 36 40 45 47 49 51 52 54 55 57 58 58 58 58 59 59 60 61 63 65 65 67 67 67 67 67 66 65 66 67 67 66 66 66 66 67 68 65
33 31 30 29 29 35 37 39 39 41 42 49 49 50 49 56 56 56 57 57 57 57 58 58 59 61 66 66 67 67 67 67 66 65 66 66 66 66 66 64 63 62 62 59
31 33 28 33 27 25 33 41 43 43 36 46 50 49 49 50 41 50 56 56 56 56 56 56 58 60 62 65 65 66 66 66 66 67 67 66 66 65 64 62 60 57 55 53
25 34 29 33 31 36 40 42 44 33 33 45 50 52 51 49 52 56 55 54 55 55 55 56 57 57 58 62 66 64 64 64 65 66 66 65 65 65 63 61 59 56 55 54
24 29 30 33 31 27 43 43 38 40 46 47 54 55 56 55 55 54 53 54 54 54 55 55 56 57 58 60 61 59 60 61 63 64 64 64 65 65 64 61 58 55 52 49
28 32 31 31 31 39 45 42 45 47 49 52 53 57 57 55 54 53 52 53 53 54 54 54 55 56 57 58 59 59 59 60 59 60 58 58 57 59 61 60 57 53 48 44
37 38 35 33 36 41 44 45 44 48 50 53 53 56 56 54 54 53 52 52 53 54 53 54 54 54 55 57 57 58 58 56 56 55 53 52 53 51 50 50 52 54 51 49
35 35 38 38 42 43 45 44 45 52 53 53 54 55 55 54 53 52 51 51 52 52 53 53 52 52 53 54 55 56 56 54 52 51 48 46 44 44 43 43 43 42 41 46
38 35 35 34 39 40 42 43 46 53 52 52 53 55 55 54 53 51 51 51 51 51 51 51 51 51 52 52 53 54 55 53 50 49 48 46 44 43 42 41 40 40 39 37

GFSCGP_sfc_30mbdewp_126.txt.gz
Dewpoint
21 24 26 27 33 33 48 51 50 51 54 52 52 55 57 58 58 56 54 52 56 59 61 62 63 64 64 64 64 65 66 66 67 66 66 65 65 67 68 68 68 68 69 68
23 24 26 27 25 42 48 50 50 53 55 53 52 52 56 57 58 59 58 55 53 58 60 62 62 64 64 64 64 65 65 66 66 66 66 66 66 67 69 69 69 69 69 69
21 24 26 24 26 44 50 47 49 47 54 55 53 50 54 57 58 59 59 59 57 58 59 60 62 63 63 63 64 64 65 65 66 67 67 67 67 68 68 69 69 69 69 70
21 24 24 24 24 44 42 49 48 48 50 46 52 43 49 53 54 57 58 58 57 58 59 60 62 63 63 63 64 64 65 65 67 68 66 65 64 64 66 67 68 69 70 70
18 15 21 22 23 36 39 51 50 49 48 49 50 46 46 53 51 55 56 57 58 57 59 61 61 62 63 63 64 64 65 65 67 68 66 65 64 65 66 67 67 68 69 70
16 18 16 17 35 35 52 51 49 49 47 42 45 45 43 49 50 54 55 56 58 57 59 61 61 62 62 63 64 65 65 66 67 67 66 65 65 65 65 66 66 67 68 69
17 18 46 49 48 51 49 43 38 38 38 36 48 46 43 49 50 54 54 55 58 58 59 60 60 61 62 63 64 65 65 65 67 66 66 66 65 65 65 65 66 67 67 68
16 14 46 50 47 46 46 40 34 29 32 38 48 43 42 48 51 53 55 56 58 58 59 59 60 62 63 63 64 65 65 65 67 67 66 66 66 66 66 66 67 67 67 68
17 20 43 48 48 47 46 41 41 39 43 40 42 45 47 49 51 53 54 56 58 58 59 59 59 62 63 63 64 65 65 65 66 66 67 66 66 66 66 67 68 68 68 68
21 21 26 42 45 45 44 44 38 39 33 32 37 42 41 46 49 51 52 54 56 58 59 59 59 61 63 63 64 65 66 65 66 66 67 67 67 66 66 68 68 68 68 68
25 22 23 26 34 40 36 37 32 37 38 33 32 33 51 52 50 50 51 52 55 58 59 59 59 61 63 64 65 65 66 66 66 67 67 67 67 67 66 66 68 68 68 68
26 25 23 24 26 28 24 24 27 29 21 37 36 31 52 55 53 51 53 55 56 58 59 60 60 62 62 63 65 65 66 66 66 67 67 67 67 68 67 67 69 69 68 68
24 25 23 27 29 31 36 40 24 22 24 26 21 21 51 54 57 53 53 56 57 60 60 60 61 62 63 63 64 66 66 66 67 67 67 68 67 67 67 68 69 69 67 68
28 27 24 24 27 30 37 41 41 33 27 31 36 44 49 51 54 58 58 54 57 60 60 61 61 61 63 64 65 65 66 67 67 67 68 68 68 68 68 68 69 69 69 68
27 30 32 36 39 40 41 41 44 42 42 39 44 45 48 52 54 57 59 61 54 58 59 60 61 61 62 64 65 66 67 67 68 67 67 67 68 68 68 68 69 69 69 69
28 31 33 35 40 40 39 42 45 47 48 49 49 46 53 56 56 57 59 60 59 55 57 60 59 61 62 62 64 65 67 68 68 67 67 68 68 68 68 68 68 69 69 69
29 27 28 30 35 32 31 41 44 47 49 48 43 49 54 55 55 56 57 59 60 61 61 62 63 63 63 64 64 65 67 68 68 68 67 67 68 67 68 68 68 68 68 68
30 30 28 25 26 23 34 40 46 47 49 52 53 53 55 55 57 57 58 57 57 59 61 62 62 64 66 67 66 67 67 67 67 67 67 68 67 67 67 67 67 67 68 67
31 30 29 27 26 32 37 38 39 40 42 50 49 51 50 54 57 56 57 57 57 57 57 58 59 60 64 67 67 67 67 66 66 66 67 67 67 66 66 65 64 64 64 62
32 32 28 33 27 24 31 41 43 42 34 46 49 48 49 52 43 51 54 55 55 56 56 56 57 59 61 64 67 66 66 66 66 66 66 66 66 66 64 62 61 58 57 56
25 33 29 31 29 32 38 42 43 31 31 44 50 52 51 50 51 54 54 54 55 55 55 56 57 57 59 62 65 64 65 65 66 67 66 66 66 64 62 60 58 57 55 55
23 28 30 33 29 24 43 43 36 38 45 47 54 56 54 54 54 54 53 53 54 55 55 55 56 56 58 61 63 62 62 63 65 65 65 65 64 63 62 59 57 56 55 52
27 31 29 30 29 37 43 42 43 46 49 52 54 56 55 54 54 53 52 53 54 54 54 55 55 56 57 58 60 60 60 61 61 61 62 62 62 63 61 59 57 55 51 46
35 38 35 33 34 41 43 45 45 48 50 53 56 56 55 53 54 53 52 52 53 54 54 54 54 54 54 56 57 57 57 58 57 55 54 54 55 55 54 54 56 53 49 45
35 36 36 34 39 42 44 45 44 49 53 52 54 54 54 54 53 52 51 51 52 52 53 52 53 53 53 55 55 55 55 55 54 51 50 51 51 50 49 45 46 47 43 45
38 35 33 30 35 38 39 45 45 51 51 52 53 54 54 53 52 51 51 51 50 51 51 51 52 52 52 53 53 54 53 52 51 49 48 47 47 46 47 45 42 41 42 43